<?xml version="1.0" encoding="UTF-8" standalone="no" ?>
<gpx xmlns="http://www.topografix.com/GPX/1/1" xmlns:xsi="http://www.w3.org/2001/XMLSchema-instance" xsi:schemaLocation="http://www.topografix.com/GPX/1/1 http://www.topografix.com/GPX/1/1/gpx.xsd" version="1.1" creator="VisuGPX - https://www.visugpx.com">
  <metadata>
    <name>Croix de la Bèche</name>
    <desc><![CDATA[Croix de la Bèche]]></desc>
  </metadata>
  <trk>
    <name><![CDATA[Move]]></name>
    <trkseg>
      <trkpt lat="46.861" lon="6.24918">
        <ele>851</ele>
        <time>2016-06-19T08:19:35.588Z</time>
      </trkpt>
      <trkpt lat="46.86096" lon="6.24926">
        <ele>851</ele>
        <time>2016-06-19T08:19:46.588Z</time>
      </trkpt>
      <trkpt lat="46.86094" lon="6.24929">
        <ele>851</ele>
        <time>2016-06-19T08:19:47.588Z</time>
      </trkpt>
      <trkpt lat="46.86093" lon="6.24933">
        <ele>851</ele>
        <time>2016-06-19T08:19:48.588Z</time>
      </trkpt>
      <trkpt lat="46.86091" lon="6.24936">
        <ele>851</ele>
        <time>2016-06-19T08:19:49.588Z</time>
      </trkpt>
      <trkpt lat="46.8609" lon="6.2494">
        <ele>850.54153266621</ele>
        <time>2016-06-19T08:19:50.588Z</time>
      </trkpt>
      <trkpt lat="46.86089" lon="6.24943">
        <ele>850</ele>
        <time>2016-06-19T08:19:51.588Z</time>
      </trkpt>
      <trkpt lat="46.86087" lon="6.24945">
        <ele>850</ele>
        <time>2016-06-19T08:19:52.588Z</time>
      </trkpt>
      <trkpt lat="46.86084" lon="6.24948">
        <ele>850</ele>
        <time>2016-06-19T08:19:53.588Z</time>
      </trkpt>
      <trkpt lat="46.86083" lon="6.24951">
        <ele>850</ele>
        <time>2016-06-19T08:19:54.588Z</time>
      </trkpt>
      <trkpt lat="46.86081" lon="6.24954">
        <ele>850</ele>
        <time>2016-06-19T08:19:55.588Z</time>
      </trkpt>
      <trkpt lat="46.86076" lon="6.24965">
        <ele>850.4579968</ele>
        <time>2016-06-19T08:19:59.588Z</time>
      </trkpt>
      <trkpt lat="46.86074" lon="6.24968">
        <ele>851</ele>
        <time>2016-06-19T08:20:00.588Z</time>
      </trkpt>
      <trkpt lat="46.86072" lon="6.2497">
        <ele>851</ele>
        <time>2016-06-19T08:20:01.588Z</time>
      </trkpt>
      <trkpt lat="46.8607" lon="6.24973">
        <ele>851</ele>
        <time>2016-06-19T08:20:02.588Z</time>
      </trkpt>
      <trkpt lat="46.86068" lon="6.24976">
        <ele>851</ele>
        <time>2016-06-19T08:20:03.588Z</time>
      </trkpt>
      <trkpt lat="46.86066" lon="6.24977">
        <ele>851</ele>
        <time>2016-06-19T08:20:04.588Z</time>
      </trkpt>
      <trkpt lat="46.86064" lon="6.24979">
        <ele>851</ele>
        <time>2016-06-19T08:20:05.588Z</time>
      </trkpt>
      <trkpt lat="46.86062" lon="6.2498">
        <ele>851</ele>
        <time>2016-06-19T08:20:06.588Z</time>
      </trkpt>
      <trkpt lat="46.8606" lon="6.24982">
        <ele>851</ele>
        <time>2016-06-19T08:20:07.588Z</time>
      </trkpt>
      <trkpt lat="46.86059" lon="6.24984">
        <ele>851</ele>
        <time>2016-06-19T08:20:08.588Z</time>
      </trkpt>
      <trkpt lat="46.86057" lon="6.24986">
        <ele>851.9159936</ele>
        <time>2016-06-19T08:20:09.588Z</time>
      </trkpt>
      <trkpt lat="46.86054" lon="6.24988">
        <ele>853</ele>
        <time>2016-06-19T08:20:10.588Z</time>
      </trkpt>
      <trkpt lat="46.86052" lon="6.2499">
        <ele>853</ele>
        <time>2016-06-19T08:20:11.588Z</time>
      </trkpt>
      <trkpt lat="46.8605" lon="6.24992">
        <ele>853</ele>
        <time>2016-06-19T08:20:12.588Z</time>
      </trkpt>
      <trkpt lat="46.86047" lon="6.24996">
        <ele>853</ele>
        <time>2016-06-19T08:20:13.588Z</time>
      </trkpt>
      <trkpt lat="46.86045" lon="6.24998">
        <ele>852.5419904</ele>
        <time>2016-06-19T08:20:14.588Z</time>
      </trkpt>
      <trkpt lat="46.86043" lon="6.25">
        <ele>852</ele>
        <time>2016-06-19T08:20:15.588Z</time>
      </trkpt>
      <trkpt lat="46.86042" lon="6.25003">
        <ele>852</ele>
        <time>2016-06-19T08:20:16.588Z</time>
      </trkpt>
      <trkpt lat="46.8604" lon="6.25005">
        <ele>852</ele>
        <time>2016-06-19T08:20:17.588Z</time>
      </trkpt>
      <trkpt lat="46.86038" lon="6.25006">
        <ele>852</ele>
        <time>2016-06-19T08:20:18.588Z</time>
      </trkpt>
      <trkpt lat="46.86037" lon="6.25009">
        <ele>852.4579968</ele>
        <time>2016-06-19T08:20:19.588Z</time>
      </trkpt>
      <trkpt lat="46.86035" lon="6.2501">
        <ele>853</ele>
        <time>2016-06-19T08:20:20.588Z</time>
      </trkpt>
      <trkpt lat="46.86033" lon="6.25012">
        <ele>853</ele>
        <time>2016-06-19T08:20:21.588Z</time>
      </trkpt>
      <trkpt lat="46.86029" lon="6.25017">
        <ele>853</ele>
        <time>2016-06-19T08:20:23.588Z</time>
      </trkpt>
      <trkpt lat="46.8602" lon="6.25026">
        <ele>853</ele>
        <time>2016-06-19T08:20:27.588Z</time>
      </trkpt>
      <trkpt lat="46.86012" lon="6.25034">
        <ele>853</ele>
        <time>2016-06-19T08:20:30.588Z</time>
      </trkpt>
      <trkpt lat="46.86006" lon="6.2504">
        <ele>853</ele>
        <time>2016-06-19T08:20:33.588Z</time>
      </trkpt>
      <trkpt lat="46.86003" lon="6.25043">
        <ele>853</ele>
        <time>2016-06-19T08:20:35.588Z</time>
      </trkpt>
      <trkpt lat="46.86001" lon="6.25044">
        <ele>853</ele>
        <time>2016-06-19T08:20:36.588Z</time>
      </trkpt>
      <trkpt lat="46.85999" lon="6.25045">
        <ele>853</ele>
        <time>2016-06-19T08:20:37.588Z</time>
      </trkpt>
      <trkpt lat="46.85997" lon="6.25048">
        <ele>853.4589952</ele>
        <time>2016-06-19T08:20:39.588Z</time>
      </trkpt>
      <trkpt lat="46.85994" lon="6.25048">
        <ele>854</ele>
        <time>2016-06-19T08:20:41.588Z</time>
      </trkpt>
      <trkpt lat="46.85992" lon="6.2505">
        <ele>854</ele>
        <time>2016-06-19T08:20:43.588Z</time>
      </trkpt>
      <trkpt lat="46.85989" lon="6.25052">
        <ele>854</ele>
        <time>2016-06-19T08:20:45.588Z</time>
      </trkpt>
      <trkpt lat="46.85987" lon="6.25056">
        <ele>854</ele>
        <time>2016-06-19T08:20:47.588Z</time>
      </trkpt>
      <trkpt lat="46.85985" lon="6.25058">
        <ele>854</ele>
        <time>2016-06-19T08:20:49.588Z</time>
      </trkpt>
      <trkpt lat="46.85982" lon="6.25059">
        <ele>854</ele>
        <time>2016-06-19T08:20:51.588Z</time>
      </trkpt>
      <trkpt lat="46.8598" lon="6.25061">
        <ele>854</ele>
        <time>2016-06-19T08:20:53.588Z</time>
      </trkpt>
      <trkpt lat="46.85978" lon="6.25064">
        <ele>854</ele>
        <time>2016-06-19T08:20:55.588Z</time>
      </trkpt>
      <trkpt lat="46.85976" lon="6.25065">
        <ele>854</ele>
        <time>2016-06-19T08:20:57.588Z</time>
      </trkpt>
      <trkpt lat="46.85975" lon="6.25067">
        <ele>854.4579968</ele>
        <time>2016-06-19T08:20:59.588Z</time>
      </trkpt>
      <trkpt lat="46.85974" lon="6.2507">
        <ele>855</ele>
        <time>2016-06-19T08:21:01.588Z</time>
      </trkpt>
      <trkpt lat="46.85972" lon="6.25073">
        <ele>855</ele>
        <time>2016-06-19T08:21:03.588Z</time>
      </trkpt>
      <trkpt lat="46.85971" lon="6.25076">
        <ele>855</ele>
        <time>2016-06-19T08:21:05.588Z</time>
      </trkpt>
      <trkpt lat="46.8597" lon="6.25078">
        <ele>855</ele>
        <time>2016-06-19T08:21:07.588Z</time>
      </trkpt>
      <trkpt lat="46.85968" lon="6.2508">
        <ele>855</ele>
        <time>2016-06-19T08:21:10.588Z</time>
      </trkpt>
      <trkpt lat="46.85968" lon="6.25085">
        <ele>854</ele>
        <time>2016-06-19T08:21:23.588Z</time>
      </trkpt>
      <trkpt lat="46.85966" lon="6.25087">
        <ele>854</ele>
        <time>2016-06-19T08:21:25.588Z</time>
      </trkpt>
      <trkpt lat="46.85964" lon="6.25089">
        <ele>854</ele>
        <time>2016-06-19T08:21:27.588Z</time>
      </trkpt>
      <trkpt lat="46.85962" lon="6.25092">
        <ele>854</ele>
        <time>2016-06-19T08:21:29.588Z</time>
      </trkpt>
      <trkpt lat="46.8596" lon="6.25094">
        <ele>854</ele>
        <time>2016-06-19T08:21:31.588Z</time>
      </trkpt>
      <trkpt lat="46.85958" lon="6.25096">
        <ele>854</ele>
        <time>2016-06-19T08:21:33.588Z</time>
      </trkpt>
      <trkpt lat="46.85955" lon="6.25098">
        <ele>854</ele>
        <time>2016-06-19T08:21:35.588Z</time>
      </trkpt>
      <trkpt lat="46.85953" lon="6.25098">
        <ele>854</ele>
        <time>2016-06-19T08:21:36.588Z</time>
      </trkpt>
      <trkpt lat="46.85951" lon="6.251">
        <ele>854</ele>
        <time>2016-06-19T08:21:38.588Z</time>
      </trkpt>
      <trkpt lat="46.8595" lon="6.25102">
        <ele>854</ele>
        <time>2016-06-19T08:21:40.588Z</time>
      </trkpt>
      <trkpt lat="46.85949" lon="6.25105">
        <ele>854</ele>
        <time>2016-06-19T08:21:42.588Z</time>
      </trkpt>
      <trkpt lat="46.85947" lon="6.25108">
        <ele>854</ele>
        <time>2016-06-19T08:21:44.588Z</time>
      </trkpt>
      <trkpt lat="46.85945" lon="6.25112">
        <ele>854</ele>
        <time>2016-06-19T08:21:46.588Z</time>
      </trkpt>
      <trkpt lat="46.85943" lon="6.25113">
        <ele>854</ele>
        <time>2016-06-19T08:21:47.588Z</time>
      </trkpt>
      <trkpt lat="46.85933" lon="6.25116">
        <ele>854</ele>
        <time>2016-06-19T08:21:51.588Z</time>
      </trkpt>
      <trkpt lat="46.85924" lon="6.25117">
        <ele>854</ele>
        <time>2016-06-19T08:21:54.588Z</time>
      </trkpt>
      <trkpt lat="46.85914" lon="6.25119">
        <ele>854</ele>
        <time>2016-06-19T08:21:57.588Z</time>
      </trkpt>
      <trkpt lat="46.85903" lon="6.25118">
        <ele>853</ele>
        <time>2016-06-19T08:22:01.588Z</time>
      </trkpt>
      <trkpt lat="46.85894" lon="6.25115">
        <ele>853</ele>
        <time>2016-06-19T08:22:05.588Z</time>
      </trkpt>
      <trkpt lat="46.85885" lon="6.25114">
        <ele>854</ele>
        <time>2016-06-19T08:22:10.588Z</time>
      </trkpt>
      <trkpt lat="46.85875" lon="6.25109">
        <ele>854</ele>
        <time>2016-06-19T08:22:15.588Z</time>
      </trkpt>
      <trkpt lat="46.85865" lon="6.25108">
        <ele>854.9159936</ele>
        <time>2016-06-19T08:22:19.588Z</time>
      </trkpt>
      <trkpt lat="46.85855" lon="6.25106">
        <ele>856</ele>
        <time>2016-06-19T08:22:23.588Z</time>
      </trkpt>
      <trkpt lat="46.85846" lon="6.25105">
        <ele>856</ele>
        <time>2016-06-19T08:22:27.588Z</time>
      </trkpt>
      <trkpt lat="46.85837" lon="6.25101">
        <ele>854</ele>
        <time>2016-06-19T08:22:31.588Z</time>
      </trkpt>
      <trkpt lat="46.85828" lon="6.25098">
        <ele>854</ele>
        <time>2016-06-19T08:22:35.588Z</time>
      </trkpt>
      <trkpt lat="46.85818" lon="6.25096">
        <ele>854</ele>
        <time>2016-06-19T08:22:39.588Z</time>
      </trkpt>
      <trkpt lat="46.85809" lon="6.25095">
        <ele>854</ele>
        <time>2016-06-19T08:22:43.588Z</time>
      </trkpt>
      <trkpt lat="46.858" lon="6.25089">
        <ele>854</ele>
        <time>2016-06-19T08:22:47.588Z</time>
      </trkpt>
      <trkpt lat="46.85791" lon="6.25081">
        <ele>852</ele>
        <time>2016-06-19T08:22:52.588Z</time>
      </trkpt>
      <trkpt lat="46.85781" lon="6.25075">
        <ele>852</ele>
        <time>2016-06-19T08:22:57.588Z</time>
      </trkpt>
      <trkpt lat="46.85773" lon="6.2507">
        <ele>853</ele>
        <time>2016-06-19T08:23:02.588Z</time>
      </trkpt>
      <trkpt lat="46.85762" lon="6.25066">
        <ele>853</ele>
        <time>2016-06-19T08:23:07.588Z</time>
      </trkpt>
      <trkpt lat="46.85751" lon="6.25064">
        <ele>853</ele>
        <time>2016-06-19T08:23:12.588Z</time>
      </trkpt>
      <trkpt lat="46.85744" lon="6.25064">
        <ele>853</ele>
        <time>2016-06-19T08:23:15.588Z</time>
      </trkpt>
      <trkpt lat="46.85734" lon="6.25069">
        <ele>853</ele>
        <time>2016-06-19T08:23:19.588Z</time>
      </trkpt>
      <trkpt lat="46.85724" lon="6.25071">
        <ele>853</ele>
        <time>2016-06-19T08:23:24.588Z</time>
      </trkpt>
      <trkpt lat="46.8572" lon="6.25072">
        <ele>853</ele>
        <time>2016-06-19T08:23:26.588Z</time>
      </trkpt>
      <trkpt lat="46.85717" lon="6.25073">
        <ele>853</ele>
        <time>2016-06-19T08:23:28.588Z</time>
      </trkpt>
      <trkpt lat="46.85715" lon="6.25074">
        <ele>853</ele>
        <time>2016-06-19T08:23:29.588Z</time>
      </trkpt>
      <trkpt lat="46.85712" lon="6.25074">
        <ele>853</ele>
        <time>2016-06-19T08:23:31.588Z</time>
      </trkpt>
      <trkpt lat="46.85709" lon="6.25074">
        <ele>853</ele>
        <time>2016-06-19T08:23:33.588Z</time>
      </trkpt>
      <trkpt lat="46.85699" lon="6.25075">
        <ele>853</ele>
        <time>2016-06-19T08:23:38.588Z</time>
      </trkpt>
      <trkpt lat="46.8569" lon="6.25077">
        <ele>854</ele>
        <time>2016-06-19T08:23:42.588Z</time>
      </trkpt>
      <trkpt lat="46.85681" lon="6.2508">
        <ele>854</ele>
        <time>2016-06-19T08:23:46.588Z</time>
      </trkpt>
      <trkpt lat="46.85671" lon="6.2508">
        <ele>854</ele>
        <time>2016-06-19T08:23:50.588Z</time>
      </trkpt>
      <trkpt lat="46.85663" lon="6.25072">
        <ele>854</ele>
        <time>2016-06-19T08:23:54.588Z</time>
      </trkpt>
      <trkpt lat="46.85655" lon="6.25063">
        <ele>854</ele>
        <time>2016-06-19T08:23:58.588Z</time>
      </trkpt>
      <trkpt lat="46.85646" lon="6.25053">
        <ele>854</ele>
        <time>2016-06-19T08:24:03.588Z</time>
      </trkpt>
      <trkpt lat="46.85639" lon="6.25047">
        <ele>854</ele>
        <time>2016-06-19T08:24:07.588Z</time>
      </trkpt>
      <trkpt lat="46.85638" lon="6.25045">
        <ele>854</ele>
        <time>2016-06-19T08:24:08.588Z</time>
      </trkpt>
      <trkpt lat="46.85635" lon="6.25043">
        <ele>854</ele>
        <time>2016-06-19T08:24:09.588Z</time>
      </trkpt>
      <trkpt lat="46.85633" lon="6.25042">
        <ele>854</ele>
        <time>2016-06-19T08:24:10.588Z</time>
      </trkpt>
      <trkpt lat="46.85631" lon="6.25039">
        <ele>854</ele>
        <time>2016-06-19T08:24:11.588Z</time>
      </trkpt>
      <trkpt lat="46.8563" lon="6.25038">
        <ele>854</ele>
        <time>2016-06-19T08:24:12.588Z</time>
      </trkpt>
      <trkpt lat="46.85628" lon="6.25037">
        <ele>854</ele>
        <time>2016-06-19T08:24:13.588Z</time>
      </trkpt>
      <trkpt lat="46.85626" lon="6.25036">
        <ele>854</ele>
        <time>2016-06-19T08:24:14.588Z</time>
      </trkpt>
      <trkpt lat="46.85623" lon="6.25035">
        <ele>854</ele>
        <time>2016-06-19T08:24:15.588Z</time>
      </trkpt>
      <trkpt lat="46.85621" lon="6.25034">
        <ele>854</ele>
        <time>2016-06-19T08:24:16.588Z</time>
      </trkpt>
      <trkpt lat="46.85619" lon="6.25032">
        <ele>854</ele>
        <time>2016-06-19T08:24:17.588Z</time>
      </trkpt>
      <trkpt lat="46.85617" lon="6.25029">
        <ele>854</ele>
        <time>2016-06-19T08:24:18.588Z</time>
      </trkpt>
      <trkpt lat="46.85616" lon="6.25027">
        <ele>853.65038497616</ele>
        <time>2016-06-19T08:24:19.588Z</time>
      </trkpt>
      <trkpt lat="46.85609" lon="6.25016">
        <ele>853</ele>
        <time>2016-06-19T08:24:26.588Z</time>
      </trkpt>
      <trkpt lat="46.85603" lon="6.25005">
        <ele>853</ele>
        <time>2016-06-19T08:24:30.588Z</time>
      </trkpt>
      <trkpt lat="46.85599" lon="6.24992">
        <ele>853</ele>
        <time>2016-06-19T08:24:35.588Z</time>
      </trkpt>
      <trkpt lat="46.85597" lon="6.24977">
        <ele>852.557568235</ele>
        <time>2016-06-19T08:24:40.588Z</time>
      </trkpt>
      <trkpt lat="46.85595" lon="6.24973">
        <ele>852</ele>
        <time>2016-06-19T08:24:42.588Z</time>
      </trkpt>
      <trkpt lat="46.85592" lon="6.24967">
        <ele>852</ele>
        <time>2016-06-19T08:24:45.588Z</time>
      </trkpt>
      <trkpt lat="46.85591" lon="6.24964">
        <ele>852</ele>
        <time>2016-06-19T08:24:46.588Z</time>
      </trkpt>
      <trkpt lat="46.8559" lon="6.24961">
        <ele>852</ele>
        <time>2016-06-19T08:24:47.588Z</time>
      </trkpt>
      <trkpt lat="46.85589" lon="6.24959">
        <ele>852</ele>
        <time>2016-06-19T08:24:48.588Z</time>
      </trkpt>
      <trkpt lat="46.85588" lon="6.24954">
        <ele>853</ele>
        <time>2016-06-19T08:24:50.588Z</time>
      </trkpt>
      <trkpt lat="46.85586" lon="6.24951">
        <ele>853</ele>
        <time>2016-06-19T08:24:51.588Z</time>
      </trkpt>
      <trkpt lat="46.85586" lon="6.24949">
        <ele>853</ele>
        <time>2016-06-19T08:24:52.588Z</time>
      </trkpt>
      <trkpt lat="46.85585" lon="6.24946">
        <ele>853</ele>
        <time>2016-06-19T08:24:53.588Z</time>
      </trkpt>
      <trkpt lat="46.85584" lon="6.24944">
        <ele>853</ele>
        <time>2016-06-19T08:24:54.588Z</time>
      </trkpt>
      <trkpt lat="46.85583" lon="6.24941">
        <ele>853</ele>
        <time>2016-06-19T08:24:55.588Z</time>
      </trkpt>
      <trkpt lat="46.85582" lon="6.24939">
        <ele>853</ele>
        <time>2016-06-19T08:24:56.588Z</time>
      </trkpt>
      <trkpt lat="46.8558" lon="6.24935">
        <ele>853</ele>
        <time>2016-06-19T08:24:58.588Z</time>
      </trkpt>
      <trkpt lat="46.85578" lon="6.24932">
        <ele>854</ele>
        <time>2016-06-19T08:25:00.588Z</time>
      </trkpt>
      <trkpt lat="46.85575" lon="6.24928">
        <ele>854</ele>
        <time>2016-06-19T08:25:02.588Z</time>
      </trkpt>
      <trkpt lat="46.85574" lon="6.24926">
        <ele>854</ele>
        <time>2016-06-19T08:25:03.588Z</time>
      </trkpt>
      <trkpt lat="46.85572" lon="6.24924">
        <ele>854</ele>
        <time>2016-06-19T08:25:04.588Z</time>
      </trkpt>
      <trkpt lat="46.85571" lon="6.24921">
        <ele>854</ele>
        <time>2016-06-19T08:25:05.588Z</time>
      </trkpt>
      <trkpt lat="46.85571" lon="6.24917">
        <ele>854</ele>
        <time>2016-06-19T08:25:07.588Z</time>
      </trkpt>
      <trkpt lat="46.85569" lon="6.24913">
        <ele>854.4579968</ele>
        <time>2016-06-19T08:25:09.588Z</time>
      </trkpt>
      <trkpt lat="46.85568" lon="6.2491">
        <ele>855</ele>
        <time>2016-06-19T08:25:10.588Z</time>
      </trkpt>
      <trkpt lat="46.85567" lon="6.24908">
        <ele>855</ele>
        <time>2016-06-19T08:25:11.588Z</time>
      </trkpt>
      <trkpt lat="46.85565" lon="6.24904">
        <ele>855</ele>
        <time>2016-06-19T08:25:13.588Z</time>
      </trkpt>
      <trkpt lat="46.85564" lon="6.249">
        <ele>855</ele>
        <time>2016-06-19T08:25:15.588Z</time>
      </trkpt>
      <trkpt lat="46.85563" lon="6.24898">
        <ele>855</ele>
        <time>2016-06-19T08:25:16.588Z</time>
      </trkpt>
      <trkpt lat="46.85562" lon="6.24895">
        <ele>855</ele>
        <time>2016-06-19T08:25:17.588Z</time>
      </trkpt>
      <trkpt lat="46.8556" lon="6.24891">
        <ele>855.9159936</ele>
        <time>2016-06-19T08:25:19.588Z</time>
      </trkpt>
      <trkpt lat="46.85559" lon="6.24889">
        <ele>857</ele>
        <time>2016-06-19T08:25:20.588Z</time>
      </trkpt>
      <trkpt lat="46.85558" lon="6.24886">
        <ele>857</ele>
        <time>2016-06-19T08:25:21.588Z</time>
      </trkpt>
      <trkpt lat="46.85557" lon="6.24884">
        <ele>857</ele>
        <time>2016-06-19T08:25:22.588Z</time>
      </trkpt>
      <trkpt lat="46.85556" lon="6.24882">
        <ele>857</ele>
        <time>2016-06-19T08:25:23.588Z</time>
      </trkpt>
      <trkpt lat="46.85554" lon="6.24879">
        <ele>857</ele>
        <time>2016-06-19T08:25:24.588Z</time>
      </trkpt>
      <trkpt lat="46.85553" lon="6.24876">
        <ele>857</ele>
        <time>2016-06-19T08:25:25.588Z</time>
      </trkpt>
      <trkpt lat="46.85553" lon="6.24873">
        <ele>857</ele>
        <time>2016-06-19T08:25:26.588Z</time>
      </trkpt>
      <trkpt lat="46.85551" lon="6.24869">
        <ele>857</ele>
        <time>2016-06-19T08:25:28.588Z</time>
      </trkpt>
      <trkpt lat="46.8555" lon="6.24865">
        <ele>857</ele>
        <time>2016-06-19T08:25:30.588Z</time>
      </trkpt>
      <trkpt lat="46.85549" lon="6.2486">
        <ele>857</ele>
        <time>2016-06-19T08:25:32.588Z</time>
      </trkpt>
      <trkpt lat="46.85547" lon="6.24856">
        <ele>857</ele>
        <time>2016-06-19T08:25:34.588Z</time>
      </trkpt>
      <trkpt lat="46.85546" lon="6.24851">
        <ele>857</ele>
        <time>2016-06-19T08:25:36.588Z</time>
      </trkpt>
      <trkpt lat="46.85545" lon="6.24848">
        <ele>857</ele>
        <time>2016-06-19T08:25:37.588Z</time>
      </trkpt>
      <trkpt lat="46.85545" lon="6.24845">
        <ele>857</ele>
        <time>2016-06-19T08:25:38.588Z</time>
      </trkpt>
      <trkpt lat="46.85545" lon="6.24843">
        <ele>857</ele>
        <time>2016-06-19T08:25:39.588Z</time>
      </trkpt>
      <trkpt lat="46.85544" lon="6.24837">
        <ele>857</ele>
        <time>2016-06-19T08:25:41.588Z</time>
      </trkpt>
      <trkpt lat="46.85543" lon="6.24834">
        <ele>857</ele>
        <time>2016-06-19T08:25:42.588Z</time>
      </trkpt>
      <trkpt lat="46.85543" lon="6.24831">
        <ele>857</ele>
        <time>2016-06-19T08:25:43.588Z</time>
      </trkpt>
      <trkpt lat="46.85542" lon="6.24827">
        <ele>857</ele>
        <time>2016-06-19T08:25:45.588Z</time>
      </trkpt>
      <trkpt lat="46.85541" lon="6.24822">
        <ele>857</ele>
        <time>2016-06-19T08:25:47.588Z</time>
      </trkpt>
      <trkpt lat="46.85541" lon="6.24819">
        <ele>857</ele>
        <time>2016-06-19T08:25:48.588Z</time>
      </trkpt>
      <trkpt lat="46.85541" lon="6.24816">
        <ele>857</ele>
        <time>2016-06-19T08:25:49.588Z</time>
      </trkpt>
      <trkpt lat="46.85541" lon="6.24813">
        <ele>857</ele>
        <time>2016-06-19T08:25:50.588Z</time>
      </trkpt>
      <trkpt lat="46.85541" lon="6.24808">
        <ele>857</ele>
        <time>2016-06-19T08:25:52.588Z</time>
      </trkpt>
      <trkpt lat="46.85542" lon="6.24796">
        <ele>857</ele>
        <time>2016-06-19T08:25:57.588Z</time>
      </trkpt>
      <trkpt lat="46.8554" lon="6.24781">
        <ele>856</ele>
        <time>2016-06-19T08:26:03.588Z</time>
      </trkpt>
      <trkpt lat="46.85536" lon="6.24769">
        <ele>856</ele>
        <time>2016-06-19T08:26:08.588Z</time>
      </trkpt>
      <trkpt lat="46.85533" lon="6.24762">
        <ele>856</ele>
        <time>2016-06-19T08:26:11.588Z</time>
      </trkpt>
      <trkpt lat="46.85532" lon="6.24759">
        <ele>856</ele>
        <time>2016-06-19T08:26:12.588Z</time>
      </trkpt>
      <trkpt lat="46.85531" lon="6.24756">
        <ele>856</ele>
        <time>2016-06-19T08:26:13.588Z</time>
      </trkpt>
      <trkpt lat="46.85529" lon="6.24752">
        <ele>856</ele>
        <time>2016-06-19T08:26:15.588Z</time>
      </trkpt>
      <trkpt lat="46.85523" lon="6.2474">
        <ele>857</ele>
        <time>2016-06-19T08:26:20.588Z</time>
      </trkpt>
      <trkpt lat="46.85518" lon="6.24729">
        <ele>857</ele>
        <time>2016-06-19T08:26:25.588Z</time>
      </trkpt>
      <trkpt lat="46.85513" lon="6.24715">
        <ele>857</ele>
        <time>2016-06-19T08:26:31.588Z</time>
      </trkpt>
      <trkpt lat="46.85508" lon="6.24702">
        <ele>857</ele>
        <time>2016-06-19T08:26:37.588Z</time>
      </trkpt>
      <trkpt lat="46.85505" lon="6.24694">
        <ele>858</ele>
        <time>2016-06-19T08:26:41.588Z</time>
      </trkpt>
      <trkpt lat="46.85504" lon="6.24686">
        <ele>858</ele>
        <time>2016-06-19T08:26:44.588Z</time>
      </trkpt>
      <trkpt lat="46.85504" lon="6.24681">
        <ele>858</ele>
        <time>2016-06-19T08:26:46.588Z</time>
      </trkpt>
      <trkpt lat="46.855" lon="6.24668">
        <ele>859</ele>
        <time>2016-06-19T08:26:53.588Z</time>
      </trkpt>
      <trkpt lat="46.85498" lon="6.24653">
        <ele>862</ele>
        <time>2016-06-19T08:27:00.588Z</time>
      </trkpt>
      <trkpt lat="46.85495" lon="6.24639">
        <ele>862</ele>
        <time>2016-06-19T08:27:07.588Z</time>
      </trkpt>
      <trkpt lat="46.85491" lon="6.24626">
        <ele>863</ele>
        <time>2016-06-19T08:27:13.588Z</time>
      </trkpt>
      <trkpt lat="46.85488" lon="6.24621">
        <ele>863</ele>
        <time>2016-06-19T08:27:16.588Z</time>
      </trkpt>
      <trkpt lat="46.85486" lon="6.24618">
        <ele>863</ele>
        <time>2016-06-19T08:27:18.588Z</time>
      </trkpt>
      <trkpt lat="46.85483" lon="6.24613">
        <ele>865</ele>
        <time>2016-06-19T08:27:25.588Z</time>
      </trkpt>
      <trkpt lat="46.85485" lon="6.24617">
        <ele>866</ele>
        <time>2016-06-19T08:27:45.588Z</time>
      </trkpt>
      <trkpt lat="46.85483" lon="6.24615">
        <ele>866</ele>
        <time>2016-06-19T08:27:47.588Z</time>
      </trkpt>
      <trkpt lat="46.85482" lon="6.24612">
        <ele>866</ele>
        <time>2016-06-19T08:27:54.588Z</time>
      </trkpt>
      <trkpt lat="46.8548" lon="6.24609">
        <ele>866</ele>
        <time>2016-06-19T08:27:56.588Z</time>
      </trkpt>
      <trkpt lat="46.85477" lon="6.24608">
        <ele>866</ele>
        <time>2016-06-19T08:27:58.588Z</time>
      </trkpt>
      <trkpt lat="46.85474" lon="6.24606">
        <ele>865</ele>
        <time>2016-06-19T08:28:00.588Z</time>
      </trkpt>
      <trkpt lat="46.85471" lon="6.24604">
        <ele>865</ele>
        <time>2016-06-19T08:28:02.588Z</time>
      </trkpt>
      <trkpt lat="46.85469" lon="6.24602">
        <ele>865</ele>
        <time>2016-06-19T08:28:04.588Z</time>
      </trkpt>
      <trkpt lat="46.85467" lon="6.246">
        <ele>865</ele>
        <time>2016-06-19T08:28:06.588Z</time>
      </trkpt>
      <trkpt lat="46.85464" lon="6.24599">
        <ele>865</ele>
        <time>2016-06-19T08:28:08.588Z</time>
      </trkpt>
      <trkpt lat="46.85462" lon="6.24598">
        <ele>866</ele>
        <time>2016-06-19T08:28:10.588Z</time>
      </trkpt>
      <trkpt lat="46.85459" lon="6.24596">
        <ele>866</ele>
        <time>2016-06-19T08:28:12.588Z</time>
      </trkpt>
      <trkpt lat="46.85458" lon="6.24593">
        <ele>866</ele>
        <time>2016-06-19T08:28:14.588Z</time>
      </trkpt>
      <trkpt lat="46.85455" lon="6.24591">
        <ele>866</ele>
        <time>2016-06-19T08:28:16.588Z</time>
      </trkpt>
      <trkpt lat="46.85452" lon="6.24589">
        <ele>866</ele>
        <time>2016-06-19T08:28:18.588Z</time>
      </trkpt>
      <trkpt lat="46.8545" lon="6.24586">
        <ele>866</ele>
        <time>2016-06-19T08:28:20.588Z</time>
      </trkpt>
      <trkpt lat="46.85447" lon="6.24583">
        <ele>866</ele>
        <time>2016-06-19T08:28:22.588Z</time>
      </trkpt>
      <trkpt lat="46.85445" lon="6.24582">
        <ele>866</ele>
        <time>2016-06-19T08:28:23.588Z</time>
      </trkpt>
      <trkpt lat="46.85444" lon="6.24581">
        <ele>866</ele>
        <time>2016-06-19T08:28:24.588Z</time>
      </trkpt>
      <trkpt lat="46.85441" lon="6.24577">
        <ele>866</ele>
        <time>2016-06-19T08:28:26.588Z</time>
      </trkpt>
      <trkpt lat="46.8544" lon="6.24575">
        <ele>866</ele>
        <time>2016-06-19T08:28:27.588Z</time>
      </trkpt>
      <trkpt lat="46.85438" lon="6.24572">
        <ele>866</ele>
        <time>2016-06-19T08:28:28.588Z</time>
      </trkpt>
      <trkpt lat="46.85436" lon="6.2457">
        <ele>866</ele>
        <time>2016-06-19T08:28:29.588Z</time>
      </trkpt>
      <trkpt lat="46.85435" lon="6.24567">
        <ele>866</ele>
        <time>2016-06-19T08:28:30.588Z</time>
      </trkpt>
      <trkpt lat="46.85434" lon="6.24565">
        <ele>866</ele>
        <time>2016-06-19T08:28:31.588Z</time>
      </trkpt>
      <trkpt lat="46.85432" lon="6.24563">
        <ele>866</ele>
        <time>2016-06-19T08:28:32.588Z</time>
      </trkpt>
      <trkpt lat="46.85431" lon="6.24561">
        <ele>866</ele>
        <time>2016-06-19T08:28:33.588Z</time>
      </trkpt>
      <trkpt lat="46.8543" lon="6.2456">
        <ele>866</ele>
        <time>2016-06-19T08:28:34.588Z</time>
      </trkpt>
      <trkpt lat="46.85428" lon="6.24558">
        <ele>866</ele>
        <time>2016-06-19T08:28:35.588Z</time>
      </trkpt>
      <trkpt lat="46.85427" lon="6.24555">
        <ele>866</ele>
        <time>2016-06-19T08:28:36.588Z</time>
      </trkpt>
      <trkpt lat="46.85426" lon="6.24553">
        <ele>866</ele>
        <time>2016-06-19T08:28:37.588Z</time>
      </trkpt>
      <trkpt lat="46.85424" lon="6.2455">
        <ele>866</ele>
        <time>2016-06-19T08:28:38.588Z</time>
      </trkpt>
      <trkpt lat="46.85417" lon="6.24538">
        <ele>865</ele>
        <time>2016-06-19T08:28:43.588Z</time>
      </trkpt>
      <trkpt lat="46.85409" lon="6.24527">
        <ele>865</ele>
        <time>2016-06-19T08:28:48.588Z</time>
      </trkpt>
      <trkpt lat="46.85404" lon="6.24519">
        <ele>865</ele>
        <time>2016-06-19T08:28:52.588Z</time>
      </trkpt>
      <trkpt lat="46.85396" lon="6.24512">
        <ele>865</ele>
        <time>2016-06-19T08:28:57.588Z</time>
      </trkpt>
      <trkpt lat="46.85392" lon="6.24498">
        <ele>866</ele>
        <time>2016-06-19T08:29:03.588Z</time>
      </trkpt>
      <trkpt lat="46.85386" lon="6.24485">
        <ele>867</ele>
        <time>2016-06-19T08:29:10.588Z</time>
      </trkpt>
      <trkpt lat="46.85382" lon="6.24473">
        <ele>867</ele>
        <time>2016-06-19T08:29:16.588Z</time>
      </trkpt>
      <trkpt lat="46.85378" lon="6.24461">
        <ele>867</ele>
        <time>2016-06-19T08:29:22.588Z</time>
      </trkpt>
      <trkpt lat="46.85374" lon="6.24447">
        <ele>867</ele>
        <time>2016-06-19T08:29:28.588Z</time>
      </trkpt>
      <trkpt lat="46.85367" lon="6.24439">
        <ele>868</ele>
        <time>2016-06-19T08:29:33.588Z</time>
      </trkpt>
      <trkpt lat="46.8536" lon="6.24427">
        <ele>868</ele>
        <time>2016-06-19T08:29:38.588Z</time>
      </trkpt>
      <trkpt lat="46.85353" lon="6.24415">
        <ele>871</ele>
        <time>2016-06-19T08:29:43.588Z</time>
      </trkpt>
      <trkpt lat="46.85347" lon="6.24404">
        <ele>871</ele>
        <time>2016-06-19T08:29:47.588Z</time>
      </trkpt>
      <trkpt lat="46.85342" lon="6.24389">
        <ele>871</ele>
        <time>2016-06-19T08:29:52.588Z</time>
      </trkpt>
      <trkpt lat="46.85341" lon="6.24382">
        <ele>871</ele>
        <time>2016-06-19T08:29:54.588Z</time>
      </trkpt>
      <trkpt lat="46.8534" lon="6.24378">
        <ele>871</ele>
        <time>2016-06-19T08:29:55.588Z</time>
      </trkpt>
      <trkpt lat="46.8534" lon="6.24374">
        <ele>871</ele>
        <time>2016-06-19T08:29:56.588Z</time>
      </trkpt>
      <trkpt lat="46.8534" lon="6.2437">
        <ele>871</ele>
        <time>2016-06-19T08:29:57.588Z</time>
      </trkpt>
      <trkpt lat="46.85345" lon="6.24359">
        <ele>871.4580096</ele>
        <time>2016-06-19T08:30:00.588Z</time>
      </trkpt>
      <trkpt lat="46.85347" lon="6.24356">
        <ele>872</ele>
        <time>2016-06-19T08:30:01.588Z</time>
      </trkpt>
      <trkpt lat="46.85354" lon="6.24345">
        <ele>872</ele>
        <time>2016-06-19T08:30:05.588Z</time>
      </trkpt>
      <trkpt lat="46.85362" lon="6.2434">
        <ele>873</ele>
        <time>2016-06-19T08:30:12.588Z</time>
      </trkpt>
      <trkpt lat="46.85365" lon="6.2434">
        <ele>873</ele>
        <time>2016-06-19T08:30:14.588Z</time>
      </trkpt>
      <trkpt lat="46.85368" lon="6.24337">
        <ele>873</ele>
        <time>2016-06-19T08:30:17.588Z</time>
      </trkpt>
      <trkpt lat="46.8537" lon="6.24336">
        <ele>873</ele>
        <time>2016-06-19T08:30:18.588Z</time>
      </trkpt>
      <trkpt lat="46.85372" lon="6.24335">
        <ele>873.34962479481</ele>
        <time>2016-06-19T08:30:20.588Z</time>
      </trkpt>
      <trkpt lat="46.85375" lon="6.24334">
        <ele>874</ele>
        <time>2016-06-19T08:30:22.588Z</time>
      </trkpt>
      <trkpt lat="46.85378" lon="6.24333">
        <ele>874</ele>
        <time>2016-06-19T08:30:24.588Z</time>
      </trkpt>
      <trkpt lat="46.85381" lon="6.24332">
        <ele>874</ele>
        <time>2016-06-19T08:30:26.588Z</time>
      </trkpt>
      <trkpt lat="46.85391" lon="6.24328">
        <ele>874</ele>
        <time>2016-06-19T08:30:32.588Z</time>
      </trkpt>
      <trkpt lat="46.85401" lon="6.24333">
        <ele>874</ele>
        <time>2016-06-19T08:30:38.588Z</time>
      </trkpt>
      <trkpt lat="46.85412" lon="6.24334">
        <ele>873</ele>
        <time>2016-06-19T08:30:44.588Z</time>
      </trkpt>
      <trkpt lat="46.85421" lon="6.24341">
        <ele>873</ele>
        <time>2016-06-19T08:30:51.588Z</time>
      </trkpt>
      <trkpt lat="46.85429" lon="6.2435">
        <ele>873</ele>
        <time>2016-06-19T08:30:57.588Z</time>
      </trkpt>
      <trkpt lat="46.85438" lon="6.24353">
        <ele>874</ele>
        <time>2016-06-19T08:31:03.588Z</time>
      </trkpt>
      <trkpt lat="46.85448" lon="6.24359">
        <ele>874</ele>
        <time>2016-06-19T08:31:11.588Z</time>
      </trkpt>
      <trkpt lat="46.85457" lon="6.24363">
        <ele>874</ele>
        <time>2016-06-19T08:31:16.588Z</time>
      </trkpt>
      <trkpt lat="46.85467" lon="6.24361">
        <ele>876</ele>
        <time>2016-06-19T08:31:23.588Z</time>
      </trkpt>
      <trkpt lat="46.85471" lon="6.24362">
        <ele>876</ele>
        <time>2016-06-19T08:31:26.588Z</time>
      </trkpt>
      <trkpt lat="46.85473" lon="6.24363">
        <ele>876</ele>
        <time>2016-06-19T08:31:28.588Z</time>
      </trkpt>
      <trkpt lat="46.85476" lon="6.24364">
        <ele>876</ele>
        <time>2016-06-19T08:31:30.588Z</time>
      </trkpt>
      <trkpt lat="46.85485" lon="6.2436">
        <ele>876</ele>
        <time>2016-06-19T08:31:38.588Z</time>
      </trkpt>
      <trkpt lat="46.85494" lon="6.24355">
        <ele>877</ele>
        <time>2016-06-19T08:31:43.588Z</time>
      </trkpt>
      <trkpt lat="46.855" lon="6.24353">
        <ele>877</ele>
        <time>2016-06-19T08:31:47.588Z</time>
      </trkpt>
      <trkpt lat="46.85508" lon="6.24344">
        <ele>877</ele>
        <time>2016-06-19T08:31:55.588Z</time>
      </trkpt>
      <trkpt lat="46.85514" lon="6.2433">
        <ele>878</ele>
        <time>2016-06-19T08:32:05.588Z</time>
      </trkpt>
      <trkpt lat="46.85519" lon="6.24317">
        <ele>879</ele>
        <time>2016-06-19T08:32:10.588Z</time>
      </trkpt>
      <trkpt lat="46.85523" lon="6.24304">
        <ele>879</ele>
        <time>2016-06-19T08:32:15.588Z</time>
      </trkpt>
      <trkpt lat="46.85525" lon="6.24302">
        <ele>879</ele>
        <time>2016-06-19T08:32:17.588Z</time>
      </trkpt>
      <trkpt lat="46.85526" lon="6.24299">
        <ele>879</ele>
        <time>2016-06-19T08:32:19.588Z</time>
      </trkpt>
      <trkpt lat="46.85526" lon="6.24295">
        <ele>879</ele>
        <time>2016-06-19T08:32:21.588Z</time>
      </trkpt>
      <trkpt lat="46.85527" lon="6.24291">
        <ele>879</ele>
        <time>2016-06-19T08:32:23.588Z</time>
      </trkpt>
      <trkpt lat="46.85531" lon="6.24278">
        <ele>879</ele>
        <time>2016-06-19T08:32:29.588Z</time>
      </trkpt>
      <trkpt lat="46.85534" lon="6.24276">
        <ele>879</ele>
        <time>2016-06-19T08:32:43.588Z</time>
      </trkpt>
      <trkpt lat="46.85537" lon="6.24269">
        <ele>879</ele>
        <time>2016-06-19T08:32:46.588Z</time>
      </trkpt>
      <trkpt lat="46.85539" lon="6.24254">
        <ele>880</ele>
        <time>2016-06-19T08:32:53.588Z</time>
      </trkpt>
      <trkpt lat="46.85542" lon="6.2424">
        <ele>879.55534429408</ele>
        <time>2016-06-19T08:32:59.588Z</time>
      </trkpt>
      <trkpt lat="46.85543" lon="6.24236">
        <ele>879</ele>
        <time>2016-06-19T08:33:01.588Z</time>
      </trkpt>
      <trkpt lat="46.85545" lon="6.24228">
        <ele>879</ele>
        <time>2016-06-19T08:33:04.588Z</time>
      </trkpt>
      <trkpt lat="46.85547" lon="6.24223">
        <ele>879</ele>
        <time>2016-06-19T08:33:06.588Z</time>
      </trkpt>
      <trkpt lat="46.85552" lon="6.2421">
        <ele>879</ele>
        <time>2016-06-19T08:33:12.588Z</time>
      </trkpt>
      <trkpt lat="46.85559" lon="6.24204">
        <ele>879</ele>
        <time>2016-06-19T08:33:17.588Z</time>
      </trkpt>
      <trkpt lat="46.8557" lon="6.24198">
        <ele>878</ele>
        <time>2016-06-19T08:33:23.588Z</time>
      </trkpt>
      <trkpt lat="46.8558" lon="6.24195">
        <ele>878</ele>
        <time>2016-06-19T08:33:28.588Z</time>
      </trkpt>
      <trkpt lat="46.85581" lon="6.24183">
        <ele>877</ele>
        <time>2016-06-19T08:33:42.588Z</time>
      </trkpt>
      <trkpt lat="46.85579" lon="6.24181">
        <ele>877</ele>
        <time>2016-06-19T08:33:44.588Z</time>
      </trkpt>
      <trkpt lat="46.85577" lon="6.2418">
        <ele>877</ele>
        <time>2016-06-19T08:33:46.588Z</time>
      </trkpt>
      <trkpt lat="46.85576" lon="6.24177">
        <ele>877</ele>
        <time>2016-06-19T08:33:48.588Z</time>
      </trkpt>
      <trkpt lat="46.85574" lon="6.24174">
        <ele>878</ele>
        <time>2016-06-19T08:33:50.588Z</time>
      </trkpt>
      <trkpt lat="46.85572" lon="6.24172">
        <ele>878</ele>
        <time>2016-06-19T08:33:52.588Z</time>
      </trkpt>
      <trkpt lat="46.85571" lon="6.24169">
        <ele>878</ele>
        <time>2016-06-19T08:33:54.588Z</time>
      </trkpt>
      <trkpt lat="46.85569" lon="6.24167">
        <ele>878</ele>
        <time>2016-06-19T08:33:56.588Z</time>
      </trkpt>
      <trkpt lat="46.85568" lon="6.24164">
        <ele>878</ele>
        <time>2016-06-19T08:33:58.588Z</time>
      </trkpt>
      <trkpt lat="46.85567" lon="6.24161">
        <ele>880</ele>
        <time>2016-06-19T08:34:00.588Z</time>
      </trkpt>
      <trkpt lat="46.85566" lon="6.24159">
        <ele>880</ele>
        <time>2016-06-19T08:34:02.588Z</time>
      </trkpt>
      <trkpt lat="46.85565" lon="6.24155">
        <ele>880</ele>
        <time>2016-06-19T08:34:04.588Z</time>
      </trkpt>
      <trkpt lat="46.85563" lon="6.24152">
        <ele>880</ele>
        <time>2016-06-19T08:34:06.588Z</time>
      </trkpt>
      <trkpt lat="46.85562" lon="6.2415">
        <ele>880</ele>
        <time>2016-06-19T08:34:07.588Z</time>
      </trkpt>
      <trkpt lat="46.8556" lon="6.24143">
        <ele>880</ele>
        <time>2016-06-19T08:34:10.588Z</time>
      </trkpt>
      <trkpt lat="46.85554" lon="6.24133">
        <ele>880</ele>
        <time>2016-06-19T08:34:18.588Z</time>
      </trkpt>
      <trkpt lat="46.85546" lon="6.24124">
        <ele>881</ele>
        <time>2016-06-19T08:34:25.588Z</time>
      </trkpt>
      <trkpt lat="46.85543" lon="6.24122">
        <ele>881</ele>
        <time>2016-06-19T08:34:28.588Z</time>
      </trkpt>
      <trkpt lat="46.85541" lon="6.2412">
        <ele>881</ele>
        <time>2016-06-19T08:34:30.588Z</time>
      </trkpt>
      <trkpt lat="46.85539" lon="6.24117">
        <ele>881</ele>
        <time>2016-06-19T08:34:32.588Z</time>
      </trkpt>
      <trkpt lat="46.85536" lon="6.24115">
        <ele>881</ele>
        <time>2016-06-19T08:34:34.588Z</time>
      </trkpt>
      <trkpt lat="46.85534" lon="6.24114">
        <ele>881</ele>
        <time>2016-06-19T08:34:36.588Z</time>
      </trkpt>
      <trkpt lat="46.85532" lon="6.2411">
        <ele>881</ele>
        <time>2016-06-19T08:34:38.588Z</time>
      </trkpt>
      <trkpt lat="46.85529" lon="6.24109">
        <ele>881</ele>
        <time>2016-06-19T08:34:40.588Z</time>
      </trkpt>
      <trkpt lat="46.85526" lon="6.24107">
        <ele>881</ele>
        <time>2016-06-19T08:34:42.588Z</time>
      </trkpt>
      <trkpt lat="46.85524" lon="6.24106">
        <ele>881</ele>
        <time>2016-06-19T08:34:43.588Z</time>
      </trkpt>
      <trkpt lat="46.85522" lon="6.24105">
        <ele>881</ele>
        <time>2016-06-19T08:34:45.588Z</time>
      </trkpt>
      <trkpt lat="46.85519" lon="6.24105">
        <ele>881</ele>
        <time>2016-06-19T08:34:47.588Z</time>
      </trkpt>
      <trkpt lat="46.85516" lon="6.24103">
        <ele>881.4579968</ele>
        <time>2016-06-19T08:34:49.588Z</time>
      </trkpt>
      <trkpt lat="46.85512" lon="6.24099">
        <ele>882</ele>
        <time>2016-06-19T08:34:53.588Z</time>
      </trkpt>
      <trkpt lat="46.85509" lon="6.24097">
        <ele>882</ele>
        <time>2016-06-19T08:34:55.588Z</time>
      </trkpt>
      <trkpt lat="46.85507" lon="6.24095">
        <ele>882</ele>
        <time>2016-06-19T08:34:57.588Z</time>
      </trkpt>
      <trkpt lat="46.85505" lon="6.24094">
        <ele>882</ele>
        <time>2016-06-19T08:34:59.588Z</time>
      </trkpt>
      <trkpt lat="46.85502" lon="6.24093">
        <ele>882</ele>
        <time>2016-06-19T08:35:01.588Z</time>
      </trkpt>
      <trkpt lat="46.855" lon="6.24093">
        <ele>882</ele>
        <time>2016-06-19T08:35:03.588Z</time>
      </trkpt>
      <trkpt lat="46.85498" lon="6.24094">
        <ele>882</ele>
        <time>2016-06-19T08:35:05.588Z</time>
      </trkpt>
      <trkpt lat="46.85496" lon="6.24094">
        <ele>882</ele>
        <time>2016-06-19T08:35:07.588Z</time>
      </trkpt>
      <trkpt lat="46.85494" lon="6.24095">
        <ele>882.9159936</ele>
        <time>2016-06-19T08:35:09.588Z</time>
      </trkpt>
      <trkpt lat="46.85492" lon="6.24096">
        <ele>884</ele>
        <time>2016-06-19T08:35:11.588Z</time>
      </trkpt>
      <trkpt lat="46.8549" lon="6.24096">
        <ele>884</ele>
        <time>2016-06-19T08:35:13.588Z</time>
      </trkpt>
      <trkpt lat="46.85488" lon="6.24098">
        <ele>884</ele>
        <time>2016-06-19T08:35:15.588Z</time>
      </trkpt>
      <trkpt lat="46.85485" lon="6.24099">
        <ele>884</ele>
        <time>2016-06-19T08:35:17.588Z</time>
      </trkpt>
      <trkpt lat="46.85483" lon="6.24099">
        <ele>884</ele>
        <time>2016-06-19T08:35:18.588Z</time>
      </trkpt>
      <trkpt lat="46.85481" lon="6.241">
        <ele>886</ele>
        <time>2016-06-19T08:35:20.588Z</time>
      </trkpt>
      <trkpt lat="46.85478" lon="6.24101">
        <ele>886</ele>
        <time>2016-06-19T08:35:22.588Z</time>
      </trkpt>
      <trkpt lat="46.85475" lon="6.24102">
        <ele>886</ele>
        <time>2016-06-19T08:35:24.588Z</time>
      </trkpt>
      <trkpt lat="46.85472" lon="6.24102">
        <ele>886</ele>
        <time>2016-06-19T08:35:26.588Z</time>
      </trkpt>
      <trkpt lat="46.8547" lon="6.24102">
        <ele>886</ele>
        <time>2016-06-19T08:35:28.588Z</time>
      </trkpt>
      <trkpt lat="46.85467" lon="6.24103">
        <ele>886</ele>
        <time>2016-06-19T08:35:30.588Z</time>
      </trkpt>
      <trkpt lat="46.85464" lon="6.24102">
        <ele>886</ele>
        <time>2016-06-19T08:35:33.588Z</time>
      </trkpt>
      <trkpt lat="46.85461" lon="6.24102">
        <ele>886</ele>
        <time>2016-06-19T08:35:36.588Z</time>
      </trkpt>
      <trkpt lat="46.85459" lon="6.24101">
        <ele>886</ele>
        <time>2016-06-19T08:35:37.588Z</time>
      </trkpt>
      <trkpt lat="46.85456" lon="6.24101">
        <ele>886</ele>
        <time>2016-06-19T08:35:39.588Z</time>
      </trkpt>
      <trkpt lat="46.85454" lon="6.241">
        <ele>886</ele>
        <time>2016-06-19T08:35:41.588Z</time>
      </trkpt>
      <trkpt lat="46.85451" lon="6.24098">
        <ele>886</ele>
        <time>2016-06-19T08:35:43.588Z</time>
      </trkpt>
      <trkpt lat="46.85448" lon="6.24096">
        <ele>886</ele>
        <time>2016-06-19T08:35:45.588Z</time>
      </trkpt>
      <trkpt lat="46.85446" lon="6.24094">
        <ele>886</ele>
        <time>2016-06-19T08:35:47.588Z</time>
      </trkpt>
      <trkpt lat="46.85444" lon="6.24092">
        <ele>887.3739904</ele>
        <time>2016-06-19T08:35:49.588Z</time>
      </trkpt>
      <trkpt lat="46.85442" lon="6.2409">
        <ele>889</ele>
        <time>2016-06-19T08:35:51.588Z</time>
      </trkpt>
      <trkpt lat="46.8544" lon="6.24089">
        <ele>889</ele>
        <time>2016-06-19T08:35:52.588Z</time>
      </trkpt>
      <trkpt lat="46.85437" lon="6.24088">
        <ele>889</ele>
        <time>2016-06-19T08:35:54.588Z</time>
      </trkpt>
      <trkpt lat="46.8543" lon="6.24082">
        <ele>889</ele>
        <time>2016-06-19T08:35:59.588Z</time>
      </trkpt>
      <trkpt lat="46.85428" lon="6.2408">
        <ele>889</ele>
        <time>2016-06-19T08:36:01.588Z</time>
      </trkpt>
      <trkpt lat="46.85424" lon="6.24076">
        <ele>889</ele>
        <time>2016-06-19T08:36:06.588Z</time>
      </trkpt>
      <trkpt lat="46.85421" lon="6.24076">
        <ele>889</ele>
        <time>2016-06-19T08:36:08.588Z</time>
      </trkpt>
      <trkpt lat="46.85412" lon="6.24071">
        <ele>891</ele>
        <time>2016-06-19T08:36:14.588Z</time>
      </trkpt>
      <trkpt lat="46.85409" lon="6.2407">
        <ele>891</ele>
        <time>2016-06-19T08:36:16.588Z</time>
      </trkpt>
      <trkpt lat="46.85406" lon="6.24069">
        <ele>891</ele>
        <time>2016-06-19T08:36:18.588Z</time>
      </trkpt>
      <trkpt lat="46.85404" lon="6.24068">
        <ele>893</ele>
        <time>2016-06-19T08:36:20.588Z</time>
      </trkpt>
      <trkpt lat="46.85401" lon="6.24068">
        <ele>893</ele>
        <time>2016-06-19T08:36:22.588Z</time>
      </trkpt>
      <trkpt lat="46.85399" lon="6.24067">
        <ele>893</ele>
        <time>2016-06-19T08:36:24.588Z</time>
      </trkpt>
      <trkpt lat="46.85396" lon="6.24067">
        <ele>893</ele>
        <time>2016-06-19T08:36:26.588Z</time>
      </trkpt>
      <trkpt lat="46.85394" lon="6.24068">
        <ele>893</ele>
        <time>2016-06-19T08:36:28.588Z</time>
      </trkpt>
      <trkpt lat="46.85391" lon="6.24068">
        <ele>893</ele>
        <time>2016-06-19T08:36:30.588Z</time>
      </trkpt>
      <trkpt lat="46.85389" lon="6.24069">
        <ele>893</ele>
        <time>2016-06-19T08:36:31.588Z</time>
      </trkpt>
      <trkpt lat="46.85386" lon="6.2407">
        <ele>893</ele>
        <time>2016-06-19T08:36:33.588Z</time>
      </trkpt>
      <trkpt lat="46.85383" lon="6.24071">
        <ele>893</ele>
        <time>2016-06-19T08:36:35.588Z</time>
      </trkpt>
      <trkpt lat="46.85381" lon="6.24072">
        <ele>893</ele>
        <time>2016-06-19T08:36:38.588Z</time>
      </trkpt>
      <trkpt lat="46.85379" lon="6.24073">
        <ele>893</ele>
        <time>2016-06-19T08:36:40.588Z</time>
      </trkpt>
      <trkpt lat="46.85376" lon="6.24072">
        <ele>893</ele>
        <time>2016-06-19T08:36:42.588Z</time>
      </trkpt>
      <trkpt lat="46.85375" lon="6.24071">
        <ele>893</ele>
        <time>2016-06-19T08:36:44.588Z</time>
      </trkpt>
      <trkpt lat="46.85372" lon="6.2407">
        <ele>893</ele>
        <time>2016-06-19T08:36:48.588Z</time>
      </trkpt>
      <trkpt lat="46.85369" lon="6.24071">
        <ele>893</ele>
        <time>2016-06-19T08:36:50.588Z</time>
      </trkpt>
      <trkpt lat="46.85367" lon="6.24071">
        <ele>893</ele>
        <time>2016-06-19T08:36:51.588Z</time>
      </trkpt>
      <trkpt lat="46.85365" lon="6.24072">
        <ele>893</ele>
        <time>2016-06-19T08:36:53.588Z</time>
      </trkpt>
      <trkpt lat="46.85361" lon="6.24072">
        <ele>893</ele>
        <time>2016-06-19T08:36:55.588Z</time>
      </trkpt>
      <trkpt lat="46.85358" lon="6.24072">
        <ele>893</ele>
        <time>2016-06-19T08:36:57.588Z</time>
      </trkpt>
      <trkpt lat="46.85355" lon="6.24072">
        <ele>893.34961502384</ele>
        <time>2016-06-19T08:36:59.588Z</time>
      </trkpt>
      <trkpt lat="46.85353" lon="6.24074">
        <ele>894</ele>
        <time>2016-06-19T08:37:01.588Z</time>
      </trkpt>
      <trkpt lat="46.8535" lon="6.24074">
        <ele>894</ele>
        <time>2016-06-19T08:37:03.588Z</time>
      </trkpt>
      <trkpt lat="46.85348" lon="6.24074">
        <ele>894</ele>
        <time>2016-06-19T08:37:05.588Z</time>
      </trkpt>
      <trkpt lat="46.85344" lon="6.24074">
        <ele>894</ele>
        <time>2016-06-19T08:37:08.588Z</time>
      </trkpt>
      <trkpt lat="46.85341" lon="6.2407">
        <ele>895</ele>
        <time>2016-06-19T08:37:14.588Z</time>
      </trkpt>
      <trkpt lat="46.85338" lon="6.24067">
        <ele>895</ele>
        <time>2016-06-19T08:37:17.588Z</time>
      </trkpt>
      <trkpt lat="46.85335" lon="6.24066">
        <ele>895.21448447297</ele>
        <time>2016-06-19T08:37:19.588Z</time>
      </trkpt>
      <trkpt lat="46.85332" lon="6.24065">
        <ele>896</ele>
        <time>2016-06-19T08:37:21.588Z</time>
      </trkpt>
      <trkpt lat="46.85328" lon="6.24065">
        <ele>896</ele>
        <time>2016-06-19T08:37:24.588Z</time>
      </trkpt>
      <trkpt lat="46.85324" lon="6.24064">
        <ele>896</ele>
        <time>2016-06-19T08:37:28.588Z</time>
      </trkpt>
      <trkpt lat="46.85322" lon="6.24064">
        <ele>897</ele>
        <time>2016-06-19T08:37:30.588Z</time>
      </trkpt>
      <trkpt lat="46.85321" lon="6.24064">
        <ele>897</ele>
        <time>2016-06-19T08:37:31.588Z</time>
      </trkpt>
      <trkpt lat="46.85319" lon="6.24063">
        <ele>897</ele>
        <time>2016-06-19T08:37:32.588Z</time>
      </trkpt>
      <trkpt lat="46.85316" lon="6.24072">
        <ele>897</ele>
        <time>2016-06-19T08:37:39.588Z</time>
      </trkpt>
      <trkpt lat="46.85316" lon="6.24075">
        <ele>897</ele>
        <time>2016-06-19T08:37:42.588Z</time>
      </trkpt>
      <trkpt lat="46.85316" lon="6.24078">
        <ele>897</ele>
        <time>2016-06-19T08:37:44.588Z</time>
      </trkpt>
      <trkpt lat="46.85314" lon="6.24079">
        <ele>897</ele>
        <time>2016-06-19T08:37:46.588Z</time>
      </trkpt>
      <trkpt lat="46.85311" lon="6.2408">
        <ele>897</ele>
        <time>2016-06-19T08:37:48.588Z</time>
      </trkpt>
      <trkpt lat="46.85308" lon="6.24081">
        <ele>898</ele>
        <time>2016-06-19T08:37:50.588Z</time>
      </trkpt>
      <trkpt lat="46.85306" lon="6.24082">
        <ele>898</ele>
        <time>2016-06-19T08:37:52.588Z</time>
      </trkpt>
      <trkpt lat="46.85303" lon="6.24084">
        <ele>898</ele>
        <time>2016-06-19T08:37:54.588Z</time>
      </trkpt>
      <trkpt lat="46.85301" lon="6.24085">
        <ele>898</ele>
        <time>2016-06-19T08:37:56.588Z</time>
      </trkpt>
      <trkpt lat="46.85299" lon="6.24084">
        <ele>898</ele>
        <time>2016-06-19T08:37:58.588Z</time>
      </trkpt>
      <trkpt lat="46.85297" lon="6.24082">
        <ele>898</ele>
        <time>2016-06-19T08:38:00.588Z</time>
      </trkpt>
      <trkpt lat="46.85295" lon="6.24082">
        <ele>898</ele>
        <time>2016-06-19T08:38:02.588Z</time>
      </trkpt>
      <trkpt lat="46.85294" lon="6.24085">
        <ele>898</ele>
        <time>2016-06-19T08:38:05.588Z</time>
      </trkpt>
      <trkpt lat="46.85292" lon="6.24086">
        <ele>898</ele>
        <time>2016-06-19T08:38:07.588Z</time>
      </trkpt>
      <trkpt lat="46.85287" lon="6.24087">
        <ele>898.44465570592</ele>
        <time>2016-06-19T08:38:09.588Z</time>
      </trkpt>
      <trkpt lat="46.85284" lon="6.24088">
        <ele>899</ele>
        <time>2016-06-19T08:38:10.588Z</time>
      </trkpt>
      <trkpt lat="46.85282" lon="6.24087">
        <ele>899</ele>
        <time>2016-06-19T08:38:12.588Z</time>
      </trkpt>
      <trkpt lat="46.8528" lon="6.24086">
        <ele>899</ele>
        <time>2016-06-19T08:38:14.588Z</time>
      </trkpt>
      <trkpt lat="46.8527" lon="6.24079">
        <ele>901</ele>
        <time>2016-06-19T08:38:21.588Z</time>
      </trkpt>
      <trkpt lat="46.85263" lon="6.24071">
        <ele>901</ele>
        <time>2016-06-19T08:38:27.588Z</time>
      </trkpt>
      <trkpt lat="46.85261" lon="6.24058">
        <ele>903</ele>
        <time>2016-06-19T08:38:33.588Z</time>
      </trkpt>
      <trkpt lat="46.85261" lon="6.24044">
        <ele>903</ele>
        <time>2016-06-19T08:38:38.588Z</time>
      </trkpt>
      <trkpt lat="46.85259" lon="6.24031">
        <ele>903</ele>
        <time>2016-06-19T08:38:45.588Z</time>
      </trkpt>
      <trkpt lat="46.85258" lon="6.24023">
        <ele>903</ele>
        <time>2016-06-19T08:38:48.588Z</time>
      </trkpt>
      <trkpt lat="46.85258" lon="6.2402">
        <ele>903</ele>
        <time>2016-06-19T08:38:50.588Z</time>
      </trkpt>
      <trkpt lat="46.85258" lon="6.24013">
        <ele>903</ele>
        <time>2016-06-19T08:38:53.588Z</time>
      </trkpt>
      <trkpt lat="46.85257" lon="6.24009">
        <ele>903</ele>
        <time>2016-06-19T08:38:55.588Z</time>
      </trkpt>
      <trkpt lat="46.85254" lon="6.24006">
        <ele>903</ele>
        <time>2016-06-19T08:38:58.588Z</time>
      </trkpt>
      <trkpt lat="46.85252" lon="6.24004">
        <ele>903</ele>
        <time>2016-06-19T08:39:00.588Z</time>
      </trkpt>
      <trkpt lat="46.8525" lon="6.24003">
        <ele>903</ele>
        <time>2016-06-19T08:39:02.588Z</time>
      </trkpt>
      <trkpt lat="46.85248" lon="6.24001">
        <ele>903</ele>
        <time>2016-06-19T08:39:04.588Z</time>
      </trkpt>
      <trkpt lat="46.85247" lon="6.23999">
        <ele>903</ele>
        <time>2016-06-19T08:39:06.588Z</time>
      </trkpt>
      <trkpt lat="46.85245" lon="6.23997">
        <ele>903</ele>
        <time>2016-06-19T08:39:08.588Z</time>
      </trkpt>
      <trkpt lat="46.85242" lon="6.23995">
        <ele>904</ele>
        <time>2016-06-19T08:39:10.588Z</time>
      </trkpt>
      <trkpt lat="46.8524" lon="6.23993">
        <ele>904</ele>
        <time>2016-06-19T08:39:12.588Z</time>
      </trkpt>
      <trkpt lat="46.85239" lon="6.2399">
        <ele>904</ele>
        <time>2016-06-19T08:39:14.588Z</time>
      </trkpt>
      <trkpt lat="46.85237" lon="6.23988">
        <ele>904</ele>
        <time>2016-06-19T08:39:16.588Z</time>
      </trkpt>
      <trkpt lat="46.85235" lon="6.23986">
        <ele>904</ele>
        <time>2016-06-19T08:39:18.588Z</time>
      </trkpt>
      <trkpt lat="46.85233" lon="6.23985">
        <ele>906</ele>
        <time>2016-06-19T08:39:20.588Z</time>
      </trkpt>
      <trkpt lat="46.85232" lon="6.23982">
        <ele>906</ele>
        <time>2016-06-19T08:39:22.588Z</time>
      </trkpt>
      <trkpt lat="46.8523" lon="6.23981">
        <ele>906</ele>
        <time>2016-06-19T08:39:24.588Z</time>
      </trkpt>
      <trkpt lat="46.85227" lon="6.23979">
        <ele>906</ele>
        <time>2016-06-19T08:39:27.588Z</time>
      </trkpt>
      <trkpt lat="46.85224" lon="6.23977">
        <ele>906</ele>
        <time>2016-06-19T08:39:29.588Z</time>
      </trkpt>
      <trkpt lat="46.85221" lon="6.23977">
        <ele>906</ele>
        <time>2016-06-19T08:39:31.588Z</time>
      </trkpt>
      <trkpt lat="46.85218" lon="6.23976">
        <ele>906</ele>
        <time>2016-06-19T08:39:33.588Z</time>
      </trkpt>
      <trkpt lat="46.85214" lon="6.23977">
        <ele>906</ele>
        <time>2016-06-19T08:39:35.588Z</time>
      </trkpt>
      <trkpt lat="46.85211" lon="6.23977">
        <ele>906</ele>
        <time>2016-06-19T08:39:37.588Z</time>
      </trkpt>
      <trkpt lat="46.85208" lon="6.23977">
        <ele>906.9159936</ele>
        <time>2016-06-19T08:39:39.588Z</time>
      </trkpt>
      <trkpt lat="46.85205" lon="6.23978">
        <ele>908</ele>
        <time>2016-06-19T08:39:41.588Z</time>
      </trkpt>
      <trkpt lat="46.85202" lon="6.23979">
        <ele>908</ele>
        <time>2016-06-19T08:39:43.588Z</time>
      </trkpt>
      <trkpt lat="46.852" lon="6.23979">
        <ele>908</ele>
        <time>2016-06-19T08:39:45.588Z</time>
      </trkpt>
      <trkpt lat="46.85192" lon="6.23983">
        <ele>909</ele>
        <time>2016-06-19T08:39:51.588Z</time>
      </trkpt>
      <trkpt lat="46.8519" lon="6.23984">
        <ele>909</ele>
        <time>2016-06-19T08:39:53.588Z</time>
      </trkpt>
      <trkpt lat="46.85187" lon="6.23984">
        <ele>909</ele>
        <time>2016-06-19T08:39:55.588Z</time>
      </trkpt>
      <trkpt lat="46.85185" lon="6.23985">
        <ele>909</ele>
        <time>2016-06-19T08:39:57.588Z</time>
      </trkpt>
      <trkpt lat="46.85175" lon="6.23985">
        <ele>911</ele>
        <time>2016-06-19T08:40:04.588Z</time>
      </trkpt>
      <trkpt lat="46.85166" lon="6.23988">
        <ele>913</ele>
        <time>2016-06-19T08:40:12.588Z</time>
      </trkpt>
      <trkpt lat="46.85156" lon="6.23988">
        <ele>913.4579968</ele>
        <time>2016-06-19T08:40:19.588Z</time>
      </trkpt>
      <trkpt lat="46.85154" lon="6.23987">
        <ele>914</ele>
        <time>2016-06-19T08:40:21.588Z</time>
      </trkpt>
      <trkpt lat="46.85151" lon="6.23989">
        <ele>914</ele>
        <time>2016-06-19T08:40:24.588Z</time>
      </trkpt>
      <trkpt lat="46.85148" lon="6.23988">
        <ele>914</ele>
        <time>2016-06-19T08:40:26.588Z</time>
      </trkpt>
      <trkpt lat="46.85146" lon="6.23986">
        <ele>914</ele>
        <time>2016-06-19T08:40:28.588Z</time>
      </trkpt>
      <trkpt lat="46.85144" lon="6.23985">
        <ele>914.45347628824</ele>
        <time>2016-06-19T08:40:30.588Z</time>
      </trkpt>
      <trkpt lat="46.85142" lon="6.23985">
        <ele>915</ele>
        <time>2016-06-19T08:40:32.588Z</time>
      </trkpt>
      <trkpt lat="46.85139" lon="6.23984">
        <ele>915</ele>
        <time>2016-06-19T08:40:34.588Z</time>
      </trkpt>
      <trkpt lat="46.85137" lon="6.23984">
        <ele>915</ele>
        <time>2016-06-19T08:40:36.588Z</time>
      </trkpt>
      <trkpt lat="46.85134" lon="6.23983">
        <ele>915.9159936</ele>
        <time>2016-06-19T08:40:39.588Z</time>
      </trkpt>
      <trkpt lat="46.85128" lon="6.23973">
        <ele>917.9159936</ele>
        <time>2016-06-19T08:40:49.588Z</time>
      </trkpt>
      <trkpt lat="46.85118" lon="6.23969">
        <ele>920</ele>
        <time>2016-06-19T08:40:57.588Z</time>
      </trkpt>
      <trkpt lat="46.85111" lon="6.23959">
        <ele>920</ele>
        <time>2016-06-19T08:41:04.588Z</time>
      </trkpt>
      <trkpt lat="46.85103" lon="6.23949">
        <ele>922</ele>
        <time>2016-06-19T08:41:10.588Z</time>
      </trkpt>
      <trkpt lat="46.85099" lon="6.23937">
        <ele>922</ele>
        <time>2016-06-19T08:41:18.588Z</time>
      </trkpt>
      <trkpt lat="46.85091" lon="6.23931">
        <ele>926.4579968</ele>
        <time>2016-06-19T08:41:29.588Z</time>
      </trkpt>
      <trkpt lat="46.85082" lon="6.23922">
        <ele>928</ele>
        <time>2016-06-19T08:41:40.588Z</time>
      </trkpt>
      <trkpt lat="46.85077" lon="6.23912">
        <ele>930</ele>
        <time>2016-06-19T08:41:50.588Z</time>
      </trkpt>
      <trkpt lat="46.85069" lon="6.23906">
        <ele>933</ele>
        <time>2016-06-19T08:42:01.588Z</time>
      </trkpt>
      <trkpt lat="46.85059" lon="6.23901">
        <ele>933</ele>
        <time>2016-06-19T08:42:08.588Z</time>
      </trkpt>
      <trkpt lat="46.8505" lon="6.239">
        <ele>934</ele>
        <time>2016-06-19T08:42:18.588Z</time>
      </trkpt>
      <trkpt lat="46.85041" lon="6.23896">
        <ele>936</ele>
        <time>2016-06-19T08:42:27.588Z</time>
      </trkpt>
      <trkpt lat="46.85032" lon="6.23891">
        <ele>938</ele>
        <time>2016-06-19T08:42:37.588Z</time>
      </trkpt>
      <trkpt lat="46.85025" lon="6.2388">
        <ele>940</ele>
        <time>2016-06-19T08:42:45.588Z</time>
      </trkpt>
      <trkpt lat="46.85016" lon="6.23874">
        <ele>942</ele>
        <time>2016-06-19T08:42:53.588Z</time>
      </trkpt>
      <trkpt lat="46.85007" lon="6.23868">
        <ele>943</ele>
        <time>2016-06-19T08:43:00.588Z</time>
      </trkpt>
      <trkpt lat="46.84999" lon="6.23859">
        <ele>943</ele>
        <time>2016-06-19T08:43:06.588Z</time>
      </trkpt>
      <trkpt lat="46.84992" lon="6.2385">
        <ele>945</ele>
        <time>2016-06-19T08:43:17.588Z</time>
      </trkpt>
      <trkpt lat="46.84984" lon="6.23843">
        <ele>946</ele>
        <time>2016-06-19T08:43:27.588Z</time>
      </trkpt>
      <trkpt lat="46.84979" lon="6.23832">
        <ele>949.3740288</ele>
        <time>2016-06-19T08:43:40.588Z</time>
      </trkpt>
      <trkpt lat="46.84972" lon="6.23824">
        <ele>951.88246394215</ele>
        <time>2016-06-19T08:43:49.588Z</time>
      </trkpt>
      <trkpt lat="46.84966" lon="6.23813">
        <ele>953</ele>
        <time>2016-06-19T08:43:57.588Z</time>
      </trkpt>
      <trkpt lat="46.8496" lon="6.23803">
        <ele>954</ele>
        <time>2016-06-19T08:44:06.588Z</time>
      </trkpt>
      <trkpt lat="46.84953" lon="6.23795">
        <ele>956.9160192</ele>
        <time>2016-06-19T08:44:14.588Z</time>
      </trkpt>
      <trkpt lat="46.84946" lon="6.23783">
        <ele>958</ele>
        <time>2016-06-19T08:44:24.588Z</time>
      </trkpt>
      <trkpt lat="46.84941" lon="6.23772">
        <ele>960</ele>
        <time>2016-06-19T08:44:34.588Z</time>
      </trkpt>
      <trkpt lat="46.84932" lon="6.23768">
        <ele>962</ele>
        <time>2016-06-19T08:44:42.588Z</time>
      </trkpt>
      <trkpt lat="46.84923" lon="6.23761">
        <ele>964</ele>
        <time>2016-06-19T08:44:51.588Z</time>
      </trkpt>
      <trkpt lat="46.84918" lon="6.23755">
        <ele>964</ele>
        <time>2016-06-19T08:44:58.588Z</time>
      </trkpt>
      <trkpt lat="46.84916" lon="6.23751">
        <ele>966</ele>
        <time>2016-06-19T08:45:02.588Z</time>
      </trkpt>
      <trkpt lat="46.84914" lon="6.23749">
        <ele>966</ele>
        <time>2016-06-19T08:45:04.588Z</time>
      </trkpt>
      <trkpt lat="46.84913" lon="6.23747">
        <ele>966</ele>
        <time>2016-06-19T08:45:06.588Z</time>
      </trkpt>
      <trkpt lat="46.84911" lon="6.23745">
        <ele>966.9159936</ele>
        <time>2016-06-19T08:45:09.588Z</time>
      </trkpt>
      <trkpt lat="46.8491" lon="6.23743">
        <ele>968</ele>
        <time>2016-06-19T08:45:11.588Z</time>
      </trkpt>
      <trkpt lat="46.84907" lon="6.2374">
        <ele>968</ele>
        <time>2016-06-19T08:45:14.588Z</time>
      </trkpt>
      <trkpt lat="46.84905" lon="6.23739">
        <ele>968</ele>
        <time>2016-06-19T08:45:16.588Z</time>
      </trkpt>
      <trkpt lat="46.84903" lon="6.23739">
        <ele>968</ele>
        <time>2016-06-19T08:45:17.588Z</time>
      </trkpt>
      <trkpt lat="46.84902" lon="6.23737">
        <ele>969</ele>
        <time>2016-06-19T08:45:20.588Z</time>
      </trkpt>
      <trkpt lat="46.84899" lon="6.23733">
        <ele>970</ele>
        <time>2016-06-19T08:45:31.588Z</time>
      </trkpt>
      <trkpt lat="46.84897" lon="6.23731">
        <ele>970</ele>
        <time>2016-06-19T08:45:36.588Z</time>
      </trkpt>
      <trkpt lat="46.84896" lon="6.23729">
        <ele>970</ele>
        <time>2016-06-19T08:45:38.588Z</time>
      </trkpt>
      <trkpt lat="46.84894" lon="6.23727">
        <ele>971</ele>
        <time>2016-06-19T08:45:41.588Z</time>
      </trkpt>
      <trkpt lat="46.84892" lon="6.23724">
        <ele>971</ele>
        <time>2016-06-19T08:45:43.588Z</time>
      </trkpt>
      <trkpt lat="46.84888" lon="6.23719">
        <ele>972</ele>
        <time>2016-06-19T08:46:03.588Z</time>
      </trkpt>
      <trkpt lat="46.84886" lon="6.23718">
        <ele>972</ele>
        <time>2016-06-19T08:46:05.588Z</time>
      </trkpt>
      <trkpt lat="46.84884" lon="6.23716">
        <ele>972</ele>
        <time>2016-06-19T08:46:07.588Z</time>
      </trkpt>
      <trkpt lat="46.84882" lon="6.23715">
        <ele>972.9159936</ele>
        <time>2016-06-19T08:46:09.588Z</time>
      </trkpt>
      <trkpt lat="46.8488" lon="6.23712">
        <ele>974</ele>
        <time>2016-06-19T08:46:11.588Z</time>
      </trkpt>
      <trkpt lat="46.84878" lon="6.23711">
        <ele>974</ele>
        <time>2016-06-19T08:46:13.588Z</time>
      </trkpt>
      <trkpt lat="46.84877" lon="6.23709">
        <ele>974</ele>
        <time>2016-06-19T08:46:15.588Z</time>
      </trkpt>
      <trkpt lat="46.84874" lon="6.23707">
        <ele>974</ele>
        <time>2016-06-19T08:46:17.588Z</time>
      </trkpt>
      <trkpt lat="46.84872" lon="6.23705">
        <ele>974.9159936</ele>
        <time>2016-06-19T08:46:19.588Z</time>
      </trkpt>
      <trkpt lat="46.84871" lon="6.23703">
        <ele>976</ele>
        <time>2016-06-19T08:46:21.588Z</time>
      </trkpt>
      <trkpt lat="46.84869" lon="6.23701">
        <ele>976</ele>
        <time>2016-06-19T08:46:23.588Z</time>
      </trkpt>
      <trkpt lat="46.84866" lon="6.237">
        <ele>976</ele>
        <time>2016-06-19T08:46:25.588Z</time>
      </trkpt>
      <trkpt lat="46.84864" lon="6.23698">
        <ele>976</ele>
        <time>2016-06-19T08:46:27.588Z</time>
      </trkpt>
      <trkpt lat="46.84863" lon="6.23696">
        <ele>976.69923004768</ele>
        <time>2016-06-19T08:46:29.588Z</time>
      </trkpt>
      <trkpt lat="46.84861" lon="6.23695">
        <ele>978</ele>
        <time>2016-06-19T08:46:31.588Z</time>
      </trkpt>
      <trkpt lat="46.84859" lon="6.23693">
        <ele>978</ele>
        <time>2016-06-19T08:46:33.588Z</time>
      </trkpt>
      <trkpt lat="46.84856" lon="6.23691">
        <ele>978</ele>
        <time>2016-06-19T08:46:35.588Z</time>
      </trkpt>
      <trkpt lat="46.84854" lon="6.23689">
        <ele>978</ele>
        <time>2016-06-19T08:46:38.588Z</time>
      </trkpt>
      <trkpt lat="46.84853" lon="6.23687">
        <ele>979</ele>
        <time>2016-06-19T08:46:40.588Z</time>
      </trkpt>
      <trkpt lat="46.84851" lon="6.23686">
        <ele>979</ele>
        <time>2016-06-19T08:46:42.588Z</time>
      </trkpt>
      <trkpt lat="46.84849" lon="6.23684">
        <ele>979</ele>
        <time>2016-06-19T08:46:44.588Z</time>
      </trkpt>
      <trkpt lat="46.84847" lon="6.23682">
        <ele>979</ele>
        <time>2016-06-19T08:46:46.588Z</time>
      </trkpt>
      <trkpt lat="46.84846" lon="6.2368">
        <ele>979</ele>
        <time>2016-06-19T08:46:48.588Z</time>
      </trkpt>
      <trkpt lat="46.84844" lon="6.23679">
        <ele>979.89388991928</ele>
        <time>2016-06-19T08:46:50.588Z</time>
      </trkpt>
      <trkpt lat="46.84841" lon="6.23677">
        <ele>981</ele>
        <time>2016-06-19T08:46:52.588Z</time>
      </trkpt>
      <trkpt lat="46.8484" lon="6.23676">
        <ele>981</ele>
        <time>2016-06-19T08:46:54.588Z</time>
      </trkpt>
      <trkpt lat="46.84837" lon="6.23674">
        <ele>981</ele>
        <time>2016-06-19T08:46:56.588Z</time>
      </trkpt>
      <trkpt lat="46.84835" lon="6.23672">
        <ele>981</ele>
        <time>2016-06-19T08:46:58.588Z</time>
      </trkpt>
      <trkpt lat="46.84834" lon="6.23671">
        <ele>981</ele>
        <time>2016-06-19T08:47:00.588Z</time>
      </trkpt>
      <trkpt lat="46.84832" lon="6.23669">
        <ele>981</ele>
        <time>2016-06-19T08:47:02.588Z</time>
      </trkpt>
      <trkpt lat="46.84829" lon="6.23668">
        <ele>981</ele>
        <time>2016-06-19T08:47:04.588Z</time>
      </trkpt>
      <trkpt lat="46.84827" lon="6.23666">
        <ele>981</ele>
        <time>2016-06-19T08:47:06.588Z</time>
      </trkpt>
      <trkpt lat="46.84826" lon="6.23665">
        <ele>981</ele>
        <time>2016-06-19T08:47:08.588Z</time>
      </trkpt>
      <trkpt lat="46.84824" lon="6.23663">
        <ele>983</ele>
        <time>2016-06-19T08:47:10.588Z</time>
      </trkpt>
      <trkpt lat="46.84821" lon="6.23661">
        <ele>983</ele>
        <time>2016-06-19T08:47:13.588Z</time>
      </trkpt>
      <trkpt lat="46.84819" lon="6.23659">
        <ele>983</ele>
        <time>2016-06-19T08:47:15.588Z</time>
      </trkpt>
      <trkpt lat="46.84817" lon="6.23657">
        <ele>983</ele>
        <time>2016-06-19T08:47:17.588Z</time>
      </trkpt>
      <trkpt lat="46.84815" lon="6.23656">
        <ele>984.3739904</ele>
        <time>2016-06-19T08:47:19.588Z</time>
      </trkpt>
      <trkpt lat="46.84812" lon="6.23654">
        <ele>986</ele>
        <time>2016-06-19T08:47:21.588Z</time>
      </trkpt>
      <trkpt lat="46.8481" lon="6.23653">
        <ele>986</ele>
        <time>2016-06-19T08:47:23.588Z</time>
      </trkpt>
      <trkpt lat="46.84808" lon="6.23652">
        <ele>986</ele>
        <time>2016-06-19T08:47:25.588Z</time>
      </trkpt>
      <trkpt lat="46.84805" lon="6.23651">
        <ele>986</ele>
        <time>2016-06-19T08:47:27.588Z</time>
      </trkpt>
      <trkpt lat="46.84803" lon="6.2365">
        <ele>986.4579968</ele>
        <time>2016-06-19T08:47:29.588Z</time>
      </trkpt>
      <trkpt lat="46.84801" lon="6.23649">
        <ele>987</ele>
        <time>2016-06-19T08:47:31.588Z</time>
      </trkpt>
      <trkpt lat="46.84799" lon="6.23648">
        <ele>987</ele>
        <time>2016-06-19T08:47:33.588Z</time>
      </trkpt>
      <trkpt lat="46.84797" lon="6.23647">
        <ele>987</ele>
        <time>2016-06-19T08:47:35.588Z</time>
      </trkpt>
      <trkpt lat="46.84795" lon="6.23646">
        <ele>987</ele>
        <time>2016-06-19T08:47:37.588Z</time>
      </trkpt>
      <trkpt lat="46.84793" lon="6.23645">
        <ele>987.9159936</ele>
        <time>2016-06-19T08:47:39.588Z</time>
      </trkpt>
      <trkpt lat="46.84791" lon="6.23644">
        <ele>989</ele>
        <time>2016-06-19T08:47:41.588Z</time>
      </trkpt>
      <trkpt lat="46.84788" lon="6.23642">
        <ele>989</ele>
        <time>2016-06-19T08:47:44.588Z</time>
      </trkpt>
      <trkpt lat="46.84786" lon="6.23641">
        <ele>989</ele>
        <time>2016-06-19T08:47:46.588Z</time>
      </trkpt>
      <trkpt lat="46.84783" lon="6.2364">
        <ele>989</ele>
        <time>2016-06-19T08:47:48.588Z</time>
      </trkpt>
      <trkpt lat="46.84781" lon="6.2364">
        <ele>990</ele>
        <time>2016-06-19T08:47:50.588Z</time>
      </trkpt>
      <trkpt lat="46.84777" lon="6.23639">
        <ele>990</ele>
        <time>2016-06-19T08:47:53.588Z</time>
      </trkpt>
      <trkpt lat="46.84773" lon="6.23637">
        <ele>990</ele>
        <time>2016-06-19T08:47:56.588Z</time>
      </trkpt>
      <trkpt lat="46.84769" lon="6.23635">
        <ele>991</ele>
        <time>2016-06-19T08:48:12.588Z</time>
      </trkpt>
      <trkpt lat="46.84767" lon="6.23636">
        <ele>991</ele>
        <time>2016-06-19T08:48:14.588Z</time>
      </trkpt>
      <trkpt lat="46.84764" lon="6.23637">
        <ele>991</ele>
        <time>2016-06-19T08:48:16.588Z</time>
      </trkpt>
      <trkpt lat="46.84762" lon="6.23638">
        <ele>991</ele>
        <time>2016-06-19T08:48:18.588Z</time>
      </trkpt>
      <trkpt lat="46.84759" lon="6.23638">
        <ele>992</ele>
        <time>2016-06-19T08:48:20.588Z</time>
      </trkpt>
      <trkpt lat="46.84757" lon="6.23638">
        <ele>992</ele>
        <time>2016-06-19T08:48:23.588Z</time>
      </trkpt>
      <trkpt lat="46.84761" lon="6.23637">
        <ele>993</ele>
        <time>2016-06-19T08:48:35.588Z</time>
      </trkpt>
      <trkpt lat="46.84759" lon="6.23636">
        <ele>993</ele>
        <time>2016-06-19T08:48:37.588Z</time>
      </trkpt>
      <trkpt lat="46.84757" lon="6.23635">
        <ele>993</ele>
        <time>2016-06-19T08:48:39.588Z</time>
      </trkpt>
      <trkpt lat="46.84755" lon="6.23633">
        <ele>993</ele>
        <time>2016-06-19T08:48:41.588Z</time>
      </trkpt>
      <trkpt lat="46.84753" lon="6.23632">
        <ele>993</ele>
        <time>2016-06-19T08:48:43.588Z</time>
      </trkpt>
      <trkpt lat="46.84751" lon="6.23631">
        <ele>993</ele>
        <time>2016-06-19T08:48:45.588Z</time>
      </trkpt>
      <trkpt lat="46.84749" lon="6.23629">
        <ele>993</ele>
        <time>2016-06-19T08:48:48.588Z</time>
      </trkpt>
      <trkpt lat="46.84747" lon="6.23628">
        <ele>995</ele>
        <time>2016-06-19T08:48:50.588Z</time>
      </trkpt>
      <trkpt lat="46.84745" lon="6.23628">
        <ele>995</ele>
        <time>2016-06-19T08:48:53.588Z</time>
      </trkpt>
      <trkpt lat="46.84743" lon="6.23627">
        <ele>995</ele>
        <time>2016-06-19T08:48:55.588Z</time>
      </trkpt>
      <trkpt lat="46.84741" lon="6.23627">
        <ele>995</ele>
        <time>2016-06-19T08:48:57.588Z</time>
      </trkpt>
      <trkpt lat="46.84739" lon="6.23626">
        <ele>995</ele>
        <time>2016-06-19T08:48:59.588Z</time>
      </trkpt>
      <trkpt lat="46.84737" lon="6.23625">
        <ele>999</ele>
        <time>2016-06-19T08:49:01.588Z</time>
      </trkpt>
      <trkpt lat="46.84735" lon="6.23626">
        <ele>999</ele>
        <time>2016-06-19T08:49:04.588Z</time>
      </trkpt>
      <trkpt lat="46.84733" lon="6.23628">
        <ele>999</ele>
        <time>2016-06-19T08:49:06.588Z</time>
      </trkpt>
      <trkpt lat="46.8473" lon="6.23628">
        <ele>999</ele>
        <time>2016-06-19T08:49:08.588Z</time>
      </trkpt>
      <trkpt lat="46.84728" lon="6.23628">
        <ele>1000</ele>
        <time>2016-06-19T08:49:11.588Z</time>
      </trkpt>
      <trkpt lat="46.84726" lon="6.23629">
        <ele>1000</ele>
        <time>2016-06-19T08:49:15.588Z</time>
      </trkpt>
      <trkpt lat="46.84725" lon="6.2363">
        <ele>1000</ele>
        <time>2016-06-19T08:49:18.588Z</time>
      </trkpt>
      <trkpt lat="46.84723" lon="6.23633">
        <ele>1002</ele>
        <time>2016-06-19T08:49:21.588Z</time>
      </trkpt>
      <trkpt lat="46.84721" lon="6.23635">
        <ele>1002</ele>
        <time>2016-06-19T08:49:23.588Z</time>
      </trkpt>
      <trkpt lat="46.8472" lon="6.23637">
        <ele>1002</ele>
        <time>2016-06-19T08:49:27.588Z</time>
      </trkpt>
      <trkpt lat="46.84719" lon="6.2364">
        <ele>1004</ele>
        <time>2016-06-19T08:49:31.588Z</time>
      </trkpt>
      <trkpt lat="46.84719" lon="6.23643">
        <ele>1004</ele>
        <time>2016-06-19T08:49:33.588Z</time>
      </trkpt>
      <trkpt lat="46.84717" lon="6.23645">
        <ele>1004</ele>
        <time>2016-06-19T08:49:35.588Z</time>
      </trkpt>
      <trkpt lat="46.84715" lon="6.23646">
        <ele>1004</ele>
        <time>2016-06-19T08:49:37.588Z</time>
      </trkpt>
      <trkpt lat="46.84712" lon="6.23648">
        <ele>1004.4059105882</ele>
        <time>2016-06-19T08:49:40.588Z</time>
      </trkpt>
      <trkpt lat="46.84711" lon="6.23649">
        <ele>1006</ele>
        <time>2016-06-19T08:49:42.588Z</time>
      </trkpt>
      <trkpt lat="46.84708" lon="6.23653">
        <ele>1006</ele>
        <time>2016-06-19T08:49:45.588Z</time>
      </trkpt>
      <trkpt lat="46.84707" lon="6.23655">
        <ele>1006</ele>
        <time>2016-06-19T08:49:48.588Z</time>
      </trkpt>
      <trkpt lat="46.84704" lon="6.23663">
        <ele>1008</ele>
        <time>2016-06-19T08:49:55.588Z</time>
      </trkpt>
      <trkpt lat="46.84704" lon="6.23667">
        <ele>1008</ele>
        <time>2016-06-19T08:49:58.588Z</time>
      </trkpt>
      <trkpt lat="46.84703" lon="6.2367">
        <ele>1008.4534762882</ele>
        <time>2016-06-19T08:50:00.588Z</time>
      </trkpt>
      <trkpt lat="46.84703" lon="6.23674">
        <ele>1009</ele>
        <time>2016-06-19T08:50:02.588Z</time>
      </trkpt>
      <trkpt lat="46.84702" lon="6.23676">
        <ele>1009</ele>
        <time>2016-06-19T08:50:04.588Z</time>
      </trkpt>
      <trkpt lat="46.84701" lon="6.23679">
        <ele>1009</ele>
        <time>2016-06-19T08:50:06.588Z</time>
      </trkpt>
      <trkpt lat="46.847" lon="6.23684">
        <ele>1009</ele>
        <time>2016-06-19T08:50:08.588Z</time>
      </trkpt>
      <trkpt lat="46.84699" lon="6.23686">
        <ele>1009</ele>
        <time>2016-06-19T08:50:09.588Z</time>
      </trkpt>
      <trkpt lat="46.84697" lon="6.2369">
        <ele>1009</ele>
        <time>2016-06-19T08:50:11.588Z</time>
      </trkpt>
      <trkpt lat="46.84697" lon="6.23694">
        <ele>1009</ele>
        <time>2016-06-19T08:50:13.588Z</time>
      </trkpt>
      <trkpt lat="46.84698" lon="6.23698">
        <ele>1009</ele>
        <time>2016-06-19T08:50:16.588Z</time>
      </trkpt>
      <trkpt lat="46.84699" lon="6.23701">
        <ele>1009</ele>
        <time>2016-06-19T08:50:18.588Z</time>
      </trkpt>
      <trkpt lat="46.84699" lon="6.23704">
        <ele>1009.9160192</ele>
        <time>2016-06-19T08:50:20.588Z</time>
      </trkpt>
      <trkpt lat="46.84704" lon="6.23716">
        <ele>1011</ele>
        <time>2016-06-19T08:50:27.588Z</time>
      </trkpt>
      <trkpt lat="46.84706" lon="6.23722">
        <ele>1011</ele>
        <time>2016-06-19T08:50:31.588Z</time>
      </trkpt>
      <trkpt lat="46.84707" lon="6.23726">
        <ele>1011</ele>
        <time>2016-06-19T08:50:33.588Z</time>
      </trkpt>
      <trkpt lat="46.84707" lon="6.2373">
        <ele>1011</ele>
        <time>2016-06-19T08:50:35.588Z</time>
      </trkpt>
      <trkpt lat="46.84708" lon="6.23734">
        <ele>1011</ele>
        <time>2016-06-19T08:50:37.588Z</time>
      </trkpt>
      <trkpt lat="46.84709" lon="6.23736">
        <ele>1011</ele>
        <time>2016-06-19T08:50:39.588Z</time>
      </trkpt>
      <trkpt lat="46.8471" lon="6.23739">
        <ele>1013</ele>
        <time>2016-06-19T08:50:41.588Z</time>
      </trkpt>
      <trkpt lat="46.84711" lon="6.23741">
        <ele>1013</ele>
        <time>2016-06-19T08:50:43.588Z</time>
      </trkpt>
      <trkpt lat="46.84712" lon="6.23744">
        <ele>1013</ele>
        <time>2016-06-19T08:50:46.588Z</time>
      </trkpt>
      <trkpt lat="46.84713" lon="6.23748">
        <ele>1013</ele>
        <time>2016-06-19T08:50:49.588Z</time>
      </trkpt>
      <trkpt lat="46.84716" lon="6.23751">
        <ele>1015</ele>
        <time>2016-06-19T08:50:52.588Z</time>
      </trkpt>
      <trkpt lat="46.84717" lon="6.23752">
        <ele>1015</ele>
        <time>2016-06-19T08:50:54.588Z</time>
      </trkpt>
      <trkpt lat="46.84718" lon="6.23755">
        <ele>1015</ele>
        <time>2016-06-19T08:50:57.588Z</time>
      </trkpt>
      <trkpt lat="46.84718" lon="6.23759">
        <ele>1017</ele>
        <time>2016-06-19T08:51:00.588Z</time>
      </trkpt>
      <trkpt lat="46.84717" lon="6.23762">
        <ele>1017</ele>
        <time>2016-06-19T08:51:02.588Z</time>
      </trkpt>
      <trkpt lat="46.84717" lon="6.23764">
        <ele>1017</ele>
        <time>2016-06-19T08:51:05.588Z</time>
      </trkpt>
      <trkpt lat="46.84715" lon="6.23769">
        <ele>1017.9159936</ele>
        <time>2016-06-19T08:51:09.588Z</time>
      </trkpt>
      <trkpt lat="46.84715" lon="6.23773">
        <ele>1019</ele>
        <time>2016-06-19T08:51:12.588Z</time>
      </trkpt>
      <trkpt lat="46.84715" lon="6.23777">
        <ele>1019</ele>
        <time>2016-06-19T08:51:15.588Z</time>
      </trkpt>
      <trkpt lat="46.84716" lon="6.23781">
        <ele>1019</ele>
        <time>2016-06-19T08:51:18.588Z</time>
      </trkpt>
      <trkpt lat="46.84716" lon="6.23785">
        <ele>1021</ele>
        <time>2016-06-19T08:51:20.588Z</time>
      </trkpt>
      <trkpt lat="46.84715" lon="6.23788">
        <ele>1021</ele>
        <time>2016-06-19T08:51:23.588Z</time>
      </trkpt>
      <trkpt lat="46.84715" lon="6.23791">
        <ele>1021</ele>
        <time>2016-06-19T08:51:25.588Z</time>
      </trkpt>
      <trkpt lat="46.84714" lon="6.23795">
        <ele>1021</ele>
        <time>2016-06-19T08:51:28.588Z</time>
      </trkpt>
      <trkpt lat="46.84712" lon="6.23797">
        <ele>1022</ele>
        <time>2016-06-19T08:51:30.588Z</time>
      </trkpt>
      <trkpt lat="46.8471" lon="6.238">
        <ele>1022</ele>
        <time>2016-06-19T08:51:32.588Z</time>
      </trkpt>
      <trkpt lat="46.84709" lon="6.23803">
        <ele>1022</ele>
        <time>2016-06-19T08:51:34.588Z</time>
      </trkpt>
      <trkpt lat="46.84709" lon="6.23807">
        <ele>1022</ele>
        <time>2016-06-19T08:51:37.588Z</time>
      </trkpt>
      <trkpt lat="46.84709" lon="6.2381">
        <ele>1022.9159936</ele>
        <time>2016-06-19T08:51:39.588Z</time>
      </trkpt>
      <trkpt lat="46.84709" lon="6.23814">
        <ele>1024</ele>
        <time>2016-06-19T08:51:41.588Z</time>
      </trkpt>
      <trkpt lat="46.84709" lon="6.23817">
        <ele>1024</ele>
        <time>2016-06-19T08:51:43.588Z</time>
      </trkpt>
      <trkpt lat="46.84707" lon="6.23819">
        <ele>1024</ele>
        <time>2016-06-19T08:51:45.588Z</time>
      </trkpt>
      <trkpt lat="46.84707" lon="6.23822">
        <ele>1024</ele>
        <time>2016-06-19T08:51:47.588Z</time>
      </trkpt>
      <trkpt lat="46.84705" lon="6.23826">
        <ele>1024</ele>
        <time>2016-06-19T08:51:49.588Z</time>
      </trkpt>
      <trkpt lat="46.84704" lon="6.2383">
        <ele>1024</ele>
        <time>2016-06-19T08:51:51.588Z</time>
      </trkpt>
      <trkpt lat="46.84703" lon="6.23833">
        <ele>1024</ele>
        <time>2016-06-19T08:51:53.588Z</time>
      </trkpt>
      <trkpt lat="46.84703" lon="6.23836">
        <ele>1024</ele>
        <time>2016-06-19T08:51:56.588Z</time>
      </trkpt>
      <trkpt lat="46.847" lon="6.23856">
        <ele>1025</ele>
        <time>2016-06-19T08:52:08.588Z</time>
      </trkpt>
      <trkpt lat="46.84698" lon="6.23868">
        <ele>1025</ele>
        <time>2016-06-19T08:52:12.588Z</time>
      </trkpt>
      <trkpt lat="46.84698" lon="6.23872">
        <ele>1025</ele>
        <time>2016-06-19T08:52:14.588Z</time>
      </trkpt>
      <trkpt lat="46.84697" lon="6.23878">
        <ele>1025</ele>
        <time>2016-06-19T08:52:16.588Z</time>
      </trkpt>
      <trkpt lat="46.84697" lon="6.2388">
        <ele>1025</ele>
        <time>2016-06-19T08:52:17.588Z</time>
      </trkpt>
      <trkpt lat="46.84696" lon="6.23884">
        <ele>1025</ele>
        <time>2016-06-19T08:52:19.588Z</time>
      </trkpt>
      <trkpt lat="46.84697" lon="6.23887">
        <ele>1025</ele>
        <time>2016-06-19T08:52:21.588Z</time>
      </trkpt>
      <trkpt lat="46.84697" lon="6.2389">
        <ele>1025</ele>
        <time>2016-06-19T08:52:23.588Z</time>
      </trkpt>
      <trkpt lat="46.84697" lon="6.23893">
        <ele>1025</ele>
        <time>2016-06-19T08:52:25.588Z</time>
      </trkpt>
      <trkpt lat="46.84696" lon="6.23896">
        <ele>1025</ele>
        <time>2016-06-19T08:52:27.588Z</time>
      </trkpt>
      <trkpt lat="46.84696" lon="6.23899">
        <ele>1025.9159936</ele>
        <time>2016-06-19T08:52:29.588Z</time>
      </trkpt>
      <trkpt lat="46.84696" lon="6.23902">
        <ele>1027</ele>
        <time>2016-06-19T08:52:32.588Z</time>
      </trkpt>
      <trkpt lat="46.84691" lon="6.23906">
        <ele>1027</ele>
        <time>2016-06-19T08:52:35.588Z</time>
      </trkpt>
      <trkpt lat="46.84689" lon="6.23909">
        <ele>1027</ele>
        <time>2016-06-19T08:52:37.588Z</time>
      </trkpt>
      <trkpt lat="46.84686" lon="6.23911">
        <ele>1027.9159936</ele>
        <time>2016-06-19T08:52:39.588Z</time>
      </trkpt>
      <trkpt lat="46.84684" lon="6.23912">
        <ele>1029</ele>
        <time>2016-06-19T08:52:41.588Z</time>
      </trkpt>
      <trkpt lat="46.84681" lon="6.23913">
        <ele>1029</ele>
        <time>2016-06-19T08:52:43.588Z</time>
      </trkpt>
      <trkpt lat="46.84678" lon="6.23913">
        <ele>1029</ele>
        <time>2016-06-19T08:52:45.588Z</time>
      </trkpt>
      <trkpt lat="46.84676" lon="6.23915">
        <ele>1029</ele>
        <time>2016-06-19T08:52:47.588Z</time>
      </trkpt>
      <trkpt lat="46.84674" lon="6.23917">
        <ele>1029.6992300477</ele>
        <time>2016-06-19T08:52:49.588Z</time>
      </trkpt>
      <trkpt lat="46.84671" lon="6.23917">
        <ele>1031</ele>
        <time>2016-06-19T08:52:51.588Z</time>
      </trkpt>
      <trkpt lat="46.8467" lon="6.23919">
        <ele>1031</ele>
        <time>2016-06-19T08:52:53.588Z</time>
      </trkpt>
      <trkpt lat="46.84668" lon="6.2392">
        <ele>1031</ele>
        <time>2016-06-19T08:52:55.588Z</time>
      </trkpt>
      <trkpt lat="46.84666" lon="6.23921">
        <ele>1031</ele>
        <time>2016-06-19T08:52:57.588Z</time>
      </trkpt>
      <trkpt lat="46.84663" lon="6.23922">
        <ele>1031.8893114119</ele>
        <time>2016-06-19T08:52:59.588Z</time>
      </trkpt>
      <trkpt lat="46.8466" lon="6.23923">
        <ele>1033</ele>
        <time>2016-06-19T08:53:01.588Z</time>
      </trkpt>
      <trkpt lat="46.84658" lon="6.23925">
        <ele>1033</ele>
        <time>2016-06-19T08:53:03.588Z</time>
      </trkpt>
      <trkpt lat="46.84655" lon="6.23926">
        <ele>1033</ele>
        <time>2016-06-19T08:53:05.588Z</time>
      </trkpt>
      <trkpt lat="46.84652" lon="6.23927">
        <ele>1033</ele>
        <time>2016-06-19T08:53:07.588Z</time>
      </trkpt>
      <trkpt lat="46.84649" lon="6.23928">
        <ele>1033.1379968</ele>
        <time>2016-06-19T08:53:09.588Z</time>
      </trkpt>
      <trkpt lat="46.84646" lon="6.23928">
        <ele>1034</ele>
        <time>2016-06-19T08:53:11.588Z</time>
      </trkpt>
      <trkpt lat="46.84643" lon="6.23929">
        <ele>1034</ele>
        <time>2016-06-19T08:53:13.588Z</time>
      </trkpt>
      <trkpt lat="46.84641" lon="6.2393">
        <ele>1034</ele>
        <time>2016-06-19T08:53:14.588Z</time>
      </trkpt>
      <trkpt lat="46.84638" lon="6.23932">
        <ele>1034</ele>
        <time>2016-06-19T08:53:16.588Z</time>
      </trkpt>
      <trkpt lat="46.84636" lon="6.23933">
        <ele>1034</ele>
        <time>2016-06-19T08:53:18.588Z</time>
      </trkpt>
      <trkpt lat="46.84633" lon="6.23933">
        <ele>1036</ele>
        <time>2016-06-19T08:53:20.588Z</time>
      </trkpt>
      <trkpt lat="46.8463" lon="6.23934">
        <ele>1036</ele>
        <time>2016-06-19T08:53:23.588Z</time>
      </trkpt>
      <trkpt lat="46.84628" lon="6.23934">
        <ele>1036</ele>
        <time>2016-06-19T08:53:25.588Z</time>
      </trkpt>
      <trkpt lat="46.84626" lon="6.23934">
        <ele>1036</ele>
        <time>2016-06-19T08:53:27.588Z</time>
      </trkpt>
      <trkpt lat="46.84624" lon="6.23933">
        <ele>1036.9159936</ele>
        <time>2016-06-19T08:53:29.588Z</time>
      </trkpt>
      <trkpt lat="46.84622" lon="6.23932">
        <ele>1038</ele>
        <time>2016-06-19T08:53:31.588Z</time>
      </trkpt>
      <trkpt lat="46.8462" lon="6.23931">
        <ele>1038</ele>
        <time>2016-06-19T08:53:33.588Z</time>
      </trkpt>
      <trkpt lat="46.84616" lon="6.2393">
        <ele>1038</ele>
        <time>2016-06-19T08:53:36.588Z</time>
      </trkpt>
      <trkpt lat="46.84614" lon="6.2393">
        <ele>1038</ele>
        <time>2016-06-19T08:53:38.588Z</time>
      </trkpt>
      <trkpt lat="46.84612" lon="6.23929">
        <ele>1040</ele>
        <time>2016-06-19T08:53:40.588Z</time>
      </trkpt>
      <trkpt lat="46.84609" lon="6.23927">
        <ele>1040</ele>
        <time>2016-06-19T08:53:42.588Z</time>
      </trkpt>
      <trkpt lat="46.84607" lon="6.23926">
        <ele>1040</ele>
        <time>2016-06-19T08:53:44.588Z</time>
      </trkpt>
      <trkpt lat="46.84605" lon="6.23925">
        <ele>1040</ele>
        <time>2016-06-19T08:53:46.588Z</time>
      </trkpt>
      <trkpt lat="46.84602" lon="6.23924">
        <ele>1040</ele>
        <time>2016-06-19T08:53:48.588Z</time>
      </trkpt>
      <trkpt lat="46.846" lon="6.23923">
        <ele>1041</ele>
        <time>2016-06-19T08:53:50.588Z</time>
      </trkpt>
      <trkpt lat="46.84597" lon="6.23922">
        <ele>1041</ele>
        <time>2016-06-19T08:53:52.588Z</time>
      </trkpt>
      <trkpt lat="46.84595" lon="6.23922">
        <ele>1041</ele>
        <time>2016-06-19T08:53:54.588Z</time>
      </trkpt>
      <trkpt lat="46.84593" lon="6.23922">
        <ele>1041</ele>
        <time>2016-06-19T08:53:56.588Z</time>
      </trkpt>
      <trkpt lat="46.84591" lon="6.23921">
        <ele>1041</ele>
        <time>2016-06-19T08:53:58.588Z</time>
      </trkpt>
      <trkpt lat="46.84588" lon="6.2392">
        <ele>1042</ele>
        <time>2016-06-19T08:54:00.588Z</time>
      </trkpt>
      <trkpt lat="46.84586" lon="6.2392">
        <ele>1042</ele>
        <time>2016-06-19T08:54:02.588Z</time>
      </trkpt>
      <trkpt lat="46.84584" lon="6.2392">
        <ele>1042</ele>
        <time>2016-06-19T08:54:04.588Z</time>
      </trkpt>
      <trkpt lat="46.84582" lon="6.23919">
        <ele>1042</ele>
        <time>2016-06-19T08:54:07.588Z</time>
      </trkpt>
      <trkpt lat="46.84579" lon="6.23918">
        <ele>1042</ele>
        <time>2016-06-19T08:54:09.588Z</time>
      </trkpt>
      <trkpt lat="46.84576" lon="6.23917">
        <ele>1043</ele>
        <time>2016-06-19T08:54:11.588Z</time>
      </trkpt>
      <trkpt lat="46.84573" lon="6.23917">
        <ele>1043</ele>
        <time>2016-06-19T08:54:13.588Z</time>
      </trkpt>
      <trkpt lat="46.8457" lon="6.23916">
        <ele>1043</ele>
        <time>2016-06-19T08:54:15.588Z</time>
      </trkpt>
      <trkpt lat="46.84567" lon="6.23916">
        <ele>1043</ele>
        <time>2016-06-19T08:54:17.588Z</time>
      </trkpt>
      <trkpt lat="46.84564" lon="6.23915">
        <ele>1043</ele>
        <time>2016-06-19T08:54:19.588Z</time>
      </trkpt>
      <trkpt lat="46.84562" lon="6.23914">
        <ele>1045</ele>
        <time>2016-06-19T08:54:21.588Z</time>
      </trkpt>
      <trkpt lat="46.84559" lon="6.23914">
        <ele>1045</ele>
        <time>2016-06-19T08:54:23.588Z</time>
      </trkpt>
      <trkpt lat="46.84557" lon="6.23913">
        <ele>1045</ele>
        <time>2016-06-19T08:54:25.588Z</time>
      </trkpt>
      <trkpt lat="46.84554" lon="6.23913">
        <ele>1045</ele>
        <time>2016-06-19T08:54:27.588Z</time>
      </trkpt>
      <trkpt lat="46.84551" lon="6.23913">
        <ele>1045</ele>
        <time>2016-06-19T08:54:29.588Z</time>
      </trkpt>
      <trkpt lat="46.84549" lon="6.23913">
        <ele>1046</ele>
        <time>2016-06-19T08:54:31.588Z</time>
      </trkpt>
      <trkpt lat="46.84547" lon="6.23913">
        <ele>1046</ele>
        <time>2016-06-19T08:54:33.588Z</time>
      </trkpt>
      <trkpt lat="46.84545" lon="6.23913">
        <ele>1046</ele>
        <time>2016-06-19T08:54:36.588Z</time>
      </trkpt>
      <trkpt lat="46.84542" lon="6.23914">
        <ele>1046</ele>
        <time>2016-06-19T08:54:39.588Z</time>
      </trkpt>
      <trkpt lat="46.8454" lon="6.23916">
        <ele>1046</ele>
        <time>2016-06-19T08:54:42.588Z</time>
      </trkpt>
      <trkpt lat="46.84539" lon="6.23918">
        <ele>1046</ele>
        <time>2016-06-19T08:54:44.588Z</time>
      </trkpt>
      <trkpt lat="46.8454" lon="6.23922">
        <ele>1046</ele>
        <time>2016-06-19T08:54:46.588Z</time>
      </trkpt>
      <trkpt lat="46.8454" lon="6.23925">
        <ele>1046</ele>
        <time>2016-06-19T08:54:48.588Z</time>
      </trkpt>
      <trkpt lat="46.84541" lon="6.23929">
        <ele>1046.9160192</ele>
        <time>2016-06-19T08:54:50.588Z</time>
      </trkpt>
      <trkpt lat="46.84541" lon="6.23933">
        <ele>1048</ele>
        <time>2016-06-19T08:54:52.588Z</time>
      </trkpt>
      <trkpt lat="46.84544" lon="6.23935">
        <ele>1048</ele>
        <time>2016-06-19T08:54:54.588Z</time>
      </trkpt>
      <trkpt lat="46.84545" lon="6.23938">
        <ele>1048</ele>
        <time>2016-06-19T08:54:56.588Z</time>
      </trkpt>
      <trkpt lat="46.84548" lon="6.2394">
        <ele>1048</ele>
        <time>2016-06-19T08:54:58.588Z</time>
      </trkpt>
      <trkpt lat="46.84551" lon="6.23941">
        <ele>1047.5419904</ele>
        <time>2016-06-19T08:55:00.588Z</time>
      </trkpt>
      <trkpt lat="46.84554" lon="6.23941">
        <ele>1047</ele>
        <time>2016-06-19T08:55:02.588Z</time>
      </trkpt>
      <trkpt lat="46.84556" lon="6.23943">
        <ele>1047</ele>
        <time>2016-06-19T08:55:04.588Z</time>
      </trkpt>
      <trkpt lat="46.84558" lon="6.23946">
        <ele>1047</ele>
        <time>2016-06-19T08:55:06.588Z</time>
      </trkpt>
      <trkpt lat="46.8456" lon="6.23949">
        <ele>1047</ele>
        <time>2016-06-19T08:55:08.588Z</time>
      </trkpt>
      <trkpt lat="46.84561" lon="6.23951">
        <ele>1047.9160192</ele>
        <time>2016-06-19T08:55:10.588Z</time>
      </trkpt>
      <trkpt lat="46.84564" lon="6.23954">
        <ele>1049</ele>
        <time>2016-06-19T08:55:12.588Z</time>
      </trkpt>
      <trkpt lat="46.84566" lon="6.23957">
        <ele>1049</ele>
        <time>2016-06-19T08:55:14.588Z</time>
      </trkpt>
      <trkpt lat="46.84568" lon="6.23958">
        <ele>1049</ele>
        <time>2016-06-19T08:55:15.588Z</time>
      </trkpt>
      <trkpt lat="46.8457" lon="6.23961">
        <ele>1049</ele>
        <time>2016-06-19T08:55:17.588Z</time>
      </trkpt>
      <trkpt lat="46.84572" lon="6.23964">
        <ele>1049</ele>
        <time>2016-06-19T08:55:19.588Z</time>
      </trkpt>
      <trkpt lat="46.84574" lon="6.23967">
        <ele>1049</ele>
        <time>2016-06-19T08:55:21.588Z</time>
      </trkpt>
      <trkpt lat="46.84575" lon="6.23971">
        <ele>1049</ele>
        <time>2016-06-19T08:55:23.588Z</time>
      </trkpt>
      <trkpt lat="46.84576" lon="6.23973">
        <ele>1049</ele>
        <time>2016-06-19T08:55:25.588Z</time>
      </trkpt>
      <trkpt lat="46.84577" lon="6.23976">
        <ele>1049</ele>
        <time>2016-06-19T08:55:27.588Z</time>
      </trkpt>
      <trkpt lat="46.84578" lon="6.2398">
        <ele>1049</ele>
        <time>2016-06-19T08:55:29.588Z</time>
      </trkpt>
      <trkpt lat="46.84579" lon="6.23983">
        <ele>1049</ele>
        <time>2016-06-19T08:55:31.588Z</time>
      </trkpt>
      <trkpt lat="46.84582" lon="6.23988">
        <ele>1049</ele>
        <time>2016-06-19T08:55:35.588Z</time>
      </trkpt>
      <trkpt lat="46.84586" lon="6.23993">
        <ele>1049</ele>
        <time>2016-06-19T08:55:39.588Z</time>
      </trkpt>
      <trkpt lat="46.84588" lon="6.23997">
        <ele>1050</ele>
        <time>2016-06-19T08:55:41.588Z</time>
      </trkpt>
      <trkpt lat="46.84589" lon="6.24">
        <ele>1050</ele>
        <time>2016-06-19T08:55:43.588Z</time>
      </trkpt>
      <trkpt lat="46.84591" lon="6.24005">
        <ele>1050</ele>
        <time>2016-06-19T08:55:46.588Z</time>
      </trkpt>
      <trkpt lat="46.84592" lon="6.24008">
        <ele>1050</ele>
        <time>2016-06-19T08:55:49.588Z</time>
      </trkpt>
      <trkpt lat="46.84594" lon="6.2401">
        <ele>1050</ele>
        <time>2016-06-19T08:55:51.588Z</time>
      </trkpt>
      <trkpt lat="46.84601" lon="6.2402">
        <ele>1050</ele>
        <time>2016-06-19T08:56:00.588Z</time>
      </trkpt>
      <trkpt lat="46.8461" lon="6.24027">
        <ele>1052</ele>
        <time>2016-06-19T08:56:06.588Z</time>
      </trkpt>
      <trkpt lat="46.84612" lon="6.2403">
        <ele>1052</ele>
        <time>2016-06-19T08:56:08.588Z</time>
      </trkpt>
      <trkpt lat="46.84614" lon="6.24032">
        <ele>1052</ele>
        <time>2016-06-19T08:56:09.588Z</time>
      </trkpt>
      <trkpt lat="46.84619" lon="6.24043">
        <ele>1052</ele>
        <time>2016-06-19T08:56:16.588Z</time>
      </trkpt>
      <trkpt lat="46.8462" lon="6.24046">
        <ele>1052</ele>
        <time>2016-06-19T08:56:18.588Z</time>
      </trkpt>
      <trkpt lat="46.84621" lon="6.2405">
        <ele>1052</ele>
        <time>2016-06-19T08:56:20.588Z</time>
      </trkpt>
      <trkpt lat="46.84621" lon="6.24057">
        <ele>1053</ele>
        <time>2016-06-19T08:56:23.588Z</time>
      </trkpt>
      <trkpt lat="46.84622" lon="6.24062">
        <ele>1053</ele>
        <time>2016-06-19T08:56:26.588Z</time>
      </trkpt>
      <trkpt lat="46.84621" lon="6.24077">
        <ele>1055</ele>
        <time>2016-06-19T08:56:33.588Z</time>
      </trkpt>
      <trkpt lat="46.8462" lon="6.24095">
        <ele>1056</ele>
        <time>2016-06-19T08:56:47.588Z</time>
      </trkpt>
      <trkpt lat="46.8462" lon="6.2411">
        <ele>1056</ele>
        <time>2016-06-19T08:56:54.588Z</time>
      </trkpt>
      <trkpt lat="46.84616" lon="6.24124">
        <ele>1056.9160192</ele>
        <time>2016-06-19T08:57:00.588Z</time>
      </trkpt>
      <trkpt lat="46.84613" lon="6.24136">
        <ele>1058</ele>
        <time>2016-06-19T08:57:07.588Z</time>
      </trkpt>
      <trkpt lat="46.84607" lon="6.24146">
        <ele>1060</ele>
        <time>2016-06-19T08:57:13.588Z</time>
      </trkpt>
      <trkpt lat="46.84602" lon="6.24158">
        <ele>1061</ele>
        <time>2016-06-19T08:57:21.588Z</time>
      </trkpt>
      <trkpt lat="46.84595" lon="6.24169">
        <ele>1061</ele>
        <time>2016-06-19T08:57:26.588Z</time>
      </trkpt>
      <trkpt lat="46.84587" lon="6.24176">
        <ele>1061</ele>
        <time>2016-06-19T08:57:35.588Z</time>
      </trkpt>
      <trkpt lat="46.84578" lon="6.24178">
        <ele>1061</ele>
        <time>2016-06-19T08:57:40.588Z</time>
      </trkpt>
      <trkpt lat="46.84572" lon="6.24178">
        <ele>1061</ele>
        <time>2016-06-19T08:57:43.588Z</time>
      </trkpt>
      <trkpt lat="46.8457" lon="6.24176">
        <ele>1061</ele>
        <time>2016-06-19T08:57:45.588Z</time>
      </trkpt>
      <trkpt lat="46.84568" lon="6.24173">
        <ele>1061</ele>
        <time>2016-06-19T08:57:47.588Z</time>
      </trkpt>
      <trkpt lat="46.84563" lon="6.2417">
        <ele>1061</ele>
        <time>2016-06-19T08:57:51.588Z</time>
      </trkpt>
      <trkpt lat="46.84559" lon="6.24169">
        <ele>1061</ele>
        <time>2016-06-19T08:57:54.588Z</time>
      </trkpt>
      <trkpt lat="46.84556" lon="6.24168">
        <ele>1061</ele>
        <time>2016-06-19T08:57:56.588Z</time>
      </trkpt>
      <trkpt lat="46.84553" lon="6.24166">
        <ele>1061</ele>
        <time>2016-06-19T08:57:58.588Z</time>
      </trkpt>
      <trkpt lat="46.8455" lon="6.24164">
        <ele>1061.9160192</ele>
        <time>2016-06-19T08:58:00.588Z</time>
      </trkpt>
      <trkpt lat="46.84548" lon="6.24162">
        <ele>1063</ele>
        <time>2016-06-19T08:58:02.588Z</time>
      </trkpt>
      <trkpt lat="46.84546" lon="6.24159">
        <ele>1063</ele>
        <time>2016-06-19T08:58:04.588Z</time>
      </trkpt>
      <trkpt lat="46.84544" lon="6.24157">
        <ele>1063</ele>
        <time>2016-06-19T08:58:06.588Z</time>
      </trkpt>
      <trkpt lat="46.84541" lon="6.24155">
        <ele>1063</ele>
        <time>2016-06-19T08:58:08.588Z</time>
      </trkpt>
      <trkpt lat="46.8454" lon="6.24153">
        <ele>1063</ele>
        <time>2016-06-19T08:58:10.588Z</time>
      </trkpt>
      <trkpt lat="46.84537" lon="6.2415">
        <ele>1063</ele>
        <time>2016-06-19T08:58:13.588Z</time>
      </trkpt>
      <trkpt lat="46.84532" lon="6.24138">
        <ele>1063.4580096</ele>
        <time>2016-06-19T08:58:20.588Z</time>
      </trkpt>
      <trkpt lat="46.84526" lon="6.24127">
        <ele>1064</ele>
        <time>2016-06-19T08:58:27.588Z</time>
      </trkpt>
      <trkpt lat="46.84524" lon="6.24124">
        <ele>1064</ele>
        <time>2016-06-19T08:58:29.588Z</time>
      </trkpt>
      <trkpt lat="46.84522" lon="6.24122">
        <ele>1064</ele>
        <time>2016-06-19T08:58:30.588Z</time>
      </trkpt>
      <trkpt lat="46.8452" lon="6.2412">
        <ele>1064</ele>
        <time>2016-06-19T08:58:32.588Z</time>
      </trkpt>
      <trkpt lat="46.84518" lon="6.24117">
        <ele>1064</ele>
        <time>2016-06-19T08:58:34.588Z</time>
      </trkpt>
      <trkpt lat="46.84516" lon="6.24115">
        <ele>1064</ele>
        <time>2016-06-19T08:58:36.588Z</time>
      </trkpt>
      <trkpt lat="46.84514" lon="6.24113">
        <ele>1064</ele>
        <time>2016-06-19T08:58:37.588Z</time>
      </trkpt>
      <trkpt lat="46.84512" lon="6.24111">
        <ele>1064</ele>
        <time>2016-06-19T08:58:39.588Z</time>
      </trkpt>
      <trkpt lat="46.84509" lon="6.2411">
        <ele>1063</ele>
        <time>2016-06-19T08:58:41.588Z</time>
      </trkpt>
      <trkpt lat="46.84507" lon="6.24111">
        <ele>1063</ele>
        <time>2016-06-19T08:58:43.588Z</time>
      </trkpt>
      <trkpt lat="46.84504" lon="6.24109">
        <ele>1063</ele>
        <time>2016-06-19T08:58:45.588Z</time>
      </trkpt>
      <trkpt lat="46.84502" lon="6.24107">
        <ele>1063</ele>
        <time>2016-06-19T08:58:47.588Z</time>
      </trkpt>
      <trkpt lat="46.84499" lon="6.24104">
        <ele>1063</ele>
        <time>2016-06-19T08:58:49.588Z</time>
      </trkpt>
      <trkpt lat="46.84497" lon="6.24102">
        <ele>1064</ele>
        <time>2016-06-19T08:58:51.588Z</time>
      </trkpt>
      <trkpt lat="46.84495" lon="6.24099">
        <ele>1064</ele>
        <time>2016-06-19T08:58:54.588Z</time>
      </trkpt>
      <trkpt lat="46.84493" lon="6.24098">
        <ele>1064</ele>
        <time>2016-06-19T08:58:56.588Z</time>
      </trkpt>
      <trkpt lat="46.84492" lon="6.24096">
        <ele>1064</ele>
        <time>2016-06-19T08:58:58.588Z</time>
      </trkpt>
      <trkpt lat="46.8449" lon="6.24094">
        <ele>1064</ele>
        <time>2016-06-19T08:59:00.588Z</time>
      </trkpt>
      <trkpt lat="46.84488" lon="6.24091">
        <ele>1064</ele>
        <time>2016-06-19T08:59:02.588Z</time>
      </trkpt>
      <trkpt lat="46.84486" lon="6.24087">
        <ele>1064</ele>
        <time>2016-06-19T08:59:04.588Z</time>
      </trkpt>
      <trkpt lat="46.84484" lon="6.24084">
        <ele>1064</ele>
        <time>2016-06-19T08:59:06.588Z</time>
      </trkpt>
      <trkpt lat="46.84482" lon="6.24081">
        <ele>1064</ele>
        <time>2016-06-19T08:59:08.588Z</time>
      </trkpt>
      <trkpt lat="46.84481" lon="6.24079">
        <ele>1064</ele>
        <time>2016-06-19T08:59:10.588Z</time>
      </trkpt>
      <trkpt lat="46.8448" lon="6.24077">
        <ele>1064</ele>
        <time>2016-06-19T08:59:12.588Z</time>
      </trkpt>
      <trkpt lat="46.84478" lon="6.24074">
        <ele>1064</ele>
        <time>2016-06-19T08:59:14.588Z</time>
      </trkpt>
      <trkpt lat="46.84476" lon="6.24072">
        <ele>1064</ele>
        <time>2016-06-19T08:59:16.588Z</time>
      </trkpt>
      <trkpt lat="46.84475" lon="6.2407">
        <ele>1064</ele>
        <time>2016-06-19T08:59:18.588Z</time>
      </trkpt>
      <trkpt lat="46.84473" lon="6.24068">
        <ele>1064</ele>
        <time>2016-06-19T08:59:20.588Z</time>
      </trkpt>
      <trkpt lat="46.84464" lon="6.24058">
        <ele>1064</ele>
        <time>2016-06-19T08:59:29.588Z</time>
      </trkpt>
      <trkpt lat="46.84461" lon="6.24058">
        <ele>1063.5465237118</ele>
        <time>2016-06-19T08:59:30.588Z</time>
      </trkpt>
      <trkpt lat="46.84458" lon="6.24058">
        <ele>1063</ele>
        <time>2016-06-19T08:59:32.588Z</time>
      </trkpt>
      <trkpt lat="46.84457" lon="6.24056">
        <ele>1063</ele>
        <time>2016-06-19T08:59:35.588Z</time>
      </trkpt>
      <trkpt lat="46.84452" lon="6.24053">
        <ele>1063.6939539394</ele>
        <time>2016-06-19T08:59:40.588Z</time>
      </trkpt>
      <trkpt lat="46.84449" lon="6.24054">
        <ele>1065</ele>
        <time>2016-06-19T08:59:42.588Z</time>
      </trkpt>
      <trkpt lat="46.84448" lon="6.24055">
        <ele>1065</ele>
        <time>2016-06-19T08:59:44.588Z</time>
      </trkpt>
      <trkpt lat="46.84445" lon="6.24054">
        <ele>1065</ele>
        <time>2016-06-19T08:59:46.588Z</time>
      </trkpt>
      <trkpt lat="46.84443" lon="6.24054">
        <ele>1065</ele>
        <time>2016-06-19T08:59:48.588Z</time>
      </trkpt>
      <trkpt lat="46.84441" lon="6.24052">
        <ele>1065.4580096</ele>
        <time>2016-06-19T08:59:50.588Z</time>
      </trkpt>
      <trkpt lat="46.84439" lon="6.2405">
        <ele>1066</ele>
        <time>2016-06-19T08:59:53.588Z</time>
      </trkpt>
      <trkpt lat="46.84437" lon="6.24048">
        <ele>1066</ele>
        <time>2016-06-19T08:59:56.588Z</time>
      </trkpt>
      <trkpt lat="46.84434" lon="6.24047">
        <ele>1067.3739904</ele>
        <time>2016-06-19T09:00:01.588Z</time>
      </trkpt>
      <trkpt lat="46.84432" lon="6.24047">
        <ele>1069</ele>
        <time>2016-06-19T09:00:03.588Z</time>
      </trkpt>
      <trkpt lat="46.8443" lon="6.24046">
        <ele>1069.3469769697</ele>
        <time>2016-06-19T09:00:06.588Z</time>
      </trkpt>
      <trkpt lat="46.84426" lon="6.24045">
        <ele>1070.9159936</ele>
        <time>2016-06-19T09:00:11.588Z</time>
      </trkpt>
      <trkpt lat="46.84424" lon="6.24043">
        <ele>1072</ele>
        <time>2016-06-19T09:00:14.588Z</time>
      </trkpt>
      <trkpt lat="46.84422" lon="6.24042">
        <ele>1072.4580096</ele>
        <time>2016-06-19T09:00:16.588Z</time>
      </trkpt>
      <trkpt lat="46.84419" lon="6.24041">
        <ele>1073</ele>
        <time>2016-06-19T09:00:19.588Z</time>
      </trkpt>
      <trkpt lat="46.84418" lon="6.24039">
        <ele>1073</ele>
        <time>2016-06-19T09:00:21.588Z</time>
      </trkpt>
      <trkpt lat="46.84415" lon="6.24039">
        <ele>1073</ele>
        <time>2016-06-19T09:00:25.588Z</time>
      </trkpt>
      <trkpt lat="46.84411" lon="6.24035">
        <ele>1075</ele>
        <time>2016-06-19T09:00:32.588Z</time>
      </trkpt>
      <trkpt lat="46.8441" lon="6.24034">
        <ele>1075</ele>
        <time>2016-06-19T09:00:34.588Z</time>
      </trkpt>
      <trkpt lat="46.84408" lon="6.24033">
        <ele>1075</ele>
        <time>2016-06-19T09:00:36.588Z</time>
      </trkpt>
      <trkpt lat="46.84405" lon="6.24032">
        <ele>1075</ele>
        <time>2016-06-19T09:00:38.588Z</time>
      </trkpt>
      <trkpt lat="46.84403" lon="6.24031">
        <ele>1075</ele>
        <time>2016-06-19T09:00:40.588Z</time>
      </trkpt>
      <trkpt lat="46.84401" lon="6.2403">
        <ele>1074</ele>
        <time>2016-06-19T09:00:42.588Z</time>
      </trkpt>
      <trkpt lat="46.84399" lon="6.24028">
        <ele>1074</ele>
        <time>2016-06-19T09:00:44.588Z</time>
      </trkpt>
      <trkpt lat="46.84396" lon="6.24027">
        <ele>1074</ele>
        <time>2016-06-19T09:00:48.588Z</time>
      </trkpt>
      <trkpt lat="46.84394" lon="6.24027">
        <ele>1074</ele>
        <time>2016-06-19T09:00:50.588Z</time>
      </trkpt>
      <trkpt lat="46.84392" lon="6.24026">
        <ele>1075</ele>
        <time>2016-06-19T09:00:52.588Z</time>
      </trkpt>
      <trkpt lat="46.8439" lon="6.24026">
        <ele>1075</ele>
        <time>2016-06-19T09:00:54.588Z</time>
      </trkpt>
      <trkpt lat="46.84386" lon="6.24027">
        <ele>1075</ele>
        <time>2016-06-19T09:00:57.588Z</time>
      </trkpt>
      <trkpt lat="46.84384" lon="6.24028">
        <ele>1075</ele>
        <time>2016-06-19T09:00:58.588Z</time>
      </trkpt>
      <trkpt lat="46.84381" lon="6.24029">
        <ele>1076.3740288</ele>
        <time>2016-06-19T09:01:00.588Z</time>
      </trkpt>
      <trkpt lat="46.84379" lon="6.2403">
        <ele>1078</ele>
        <time>2016-06-19T09:01:01.588Z</time>
      </trkpt>
      <trkpt lat="46.84377" lon="6.2403">
        <ele>1078</ele>
        <time>2016-06-19T09:01:03.588Z</time>
      </trkpt>
      <trkpt lat="46.84375" lon="6.2403">
        <ele>1078</ele>
        <time>2016-06-19T09:01:05.588Z</time>
      </trkpt>
      <trkpt lat="46.84373" lon="6.2403">
        <ele>1078</ele>
        <time>2016-06-19T09:01:07.588Z</time>
      </trkpt>
      <trkpt lat="46.8437" lon="6.24029">
        <ele>1078.9160192</ele>
        <time>2016-06-19T09:01:10.588Z</time>
      </trkpt>
      <trkpt lat="46.84368" lon="6.24027">
        <ele>1080</ele>
        <time>2016-06-19T09:01:12.588Z</time>
      </trkpt>
      <trkpt lat="46.84366" lon="6.24025">
        <ele>1080</ele>
        <time>2016-06-19T09:01:14.588Z</time>
      </trkpt>
      <trkpt lat="46.84364" lon="6.24024">
        <ele>1080</ele>
        <time>2016-06-19T09:01:16.588Z</time>
      </trkpt>
      <trkpt lat="46.84362" lon="6.24023">
        <ele>1080</ele>
        <time>2016-06-19T09:01:18.588Z</time>
      </trkpt>
      <trkpt lat="46.84361" lon="6.24021">
        <ele>1080</ele>
        <time>2016-06-19T09:01:20.588Z</time>
      </trkpt>
      <trkpt lat="46.84359" lon="6.2402">
        <ele>1080</ele>
        <time>2016-06-19T09:01:23.588Z</time>
      </trkpt>
      <trkpt lat="46.84352" lon="6.24017">
        <ele>1081</ele>
        <time>2016-06-19T09:01:32.588Z</time>
      </trkpt>
      <trkpt lat="46.8435" lon="6.24016">
        <ele>1081</ele>
        <time>2016-06-19T09:01:34.588Z</time>
      </trkpt>
      <trkpt lat="46.84348" lon="6.24016">
        <ele>1081</ele>
        <time>2016-06-19T09:01:36.588Z</time>
      </trkpt>
      <trkpt lat="46.84346" lon="6.24015">
        <ele>1081</ele>
        <time>2016-06-19T09:01:38.588Z</time>
      </trkpt>
      <trkpt lat="46.84344" lon="6.24016">
        <ele>1081.4403938462</ele>
        <time>2016-06-19T09:01:40.588Z</time>
      </trkpt>
      <trkpt lat="46.84342" lon="6.24015">
        <ele>1082</ele>
        <time>2016-06-19T09:01:42.588Z</time>
      </trkpt>
      <trkpt lat="46.8434" lon="6.24014">
        <ele>1082</ele>
        <time>2016-06-19T09:01:44.588Z</time>
      </trkpt>
      <trkpt lat="46.84334" lon="6.24014">
        <ele>1082</ele>
        <time>2016-06-19T09:01:49.588Z</time>
      </trkpt>
      <trkpt lat="46.84332" lon="6.24014">
        <ele>1083</ele>
        <time>2016-06-19T09:01:51.588Z</time>
      </trkpt>
      <trkpt lat="46.8433" lon="6.24014">
        <ele>1083</ele>
        <time>2016-06-19T09:01:53.588Z</time>
      </trkpt>
      <trkpt lat="46.84328" lon="6.24014">
        <ele>1083</ele>
        <time>2016-06-19T09:01:55.588Z</time>
      </trkpt>
      <trkpt lat="46.84326" lon="6.24014">
        <ele>1083</ele>
        <time>2016-06-19T09:01:58.588Z</time>
      </trkpt>
      <trkpt lat="46.84324" lon="6.24014">
        <ele>1086</ele>
        <time>2016-06-19T09:02:01.588Z</time>
      </trkpt>
      <trkpt lat="46.84322" lon="6.24015">
        <ele>1086</ele>
        <time>2016-06-19T09:02:04.588Z</time>
      </trkpt>
      <trkpt lat="46.84317" lon="6.24014">
        <ele>1087</ele>
        <time>2016-06-19T09:02:11.588Z</time>
      </trkpt>
      <trkpt lat="46.84315" lon="6.24014">
        <ele>1087</ele>
        <time>2016-06-19T09:02:19.588Z</time>
      </trkpt>
      <trkpt lat="46.84305" lon="6.24009">
        <ele>1089</ele>
        <time>2016-06-19T09:02:26.588Z</time>
      </trkpt>
      <trkpt lat="46.84302" lon="6.24008">
        <ele>1089</ele>
        <time>2016-06-19T09:02:29.588Z</time>
      </trkpt>
      <trkpt lat="46.84297" lon="6.24002">
        <ele>1094</ele>
        <time>2016-06-19T09:02:36.588Z</time>
      </trkpt>
      <trkpt lat="46.84297" lon="6.23999">
        <ele>1094</ele>
        <time>2016-06-19T09:02:38.588Z</time>
      </trkpt>
      <trkpt lat="46.84296" lon="6.23995">
        <ele>1094</ele>
        <time>2016-06-19T09:02:40.588Z</time>
      </trkpt>
      <trkpt lat="46.84295" lon="6.23993">
        <ele>1094</ele>
        <time>2016-06-19T09:02:42.588Z</time>
      </trkpt>
      <trkpt lat="46.84294" lon="6.2399">
        <ele>1094</ele>
        <time>2016-06-19T09:02:44.588Z</time>
      </trkpt>
      <trkpt lat="46.84293" lon="6.23988">
        <ele>1094</ele>
        <time>2016-06-19T09:02:46.588Z</time>
      </trkpt>
      <trkpt lat="46.84291" lon="6.23985">
        <ele>1094</ele>
        <time>2016-06-19T09:02:48.588Z</time>
      </trkpt>
      <trkpt lat="46.84289" lon="6.23984">
        <ele>1094.4580096</ele>
        <time>2016-06-19T09:02:50.588Z</time>
      </trkpt>
      <trkpt lat="46.84287" lon="6.23982">
        <ele>1095</ele>
        <time>2016-06-19T09:02:52.588Z</time>
      </trkpt>
      <trkpt lat="46.84285" lon="6.23982">
        <ele>1095</ele>
        <time>2016-06-19T09:02:54.588Z</time>
      </trkpt>
      <trkpt lat="46.84283" lon="6.23981">
        <ele>1095</ele>
        <time>2016-06-19T09:02:59.588Z</time>
      </trkpt>
      <trkpt lat="46.84278" lon="6.23985">
        <ele>1098</ele>
        <time>2016-06-19T09:03:08.588Z</time>
      </trkpt>
      <trkpt lat="46.84277" lon="6.23987">
        <ele>1098</ele>
        <time>2016-06-19T09:03:10.588Z</time>
      </trkpt>
      <trkpt lat="46.84273" lon="6.23995">
        <ele>1098.9160192</ele>
        <time>2016-06-19T09:03:20.588Z</time>
      </trkpt>
      <trkpt lat="46.84272" lon="6.23999">
        <ele>1100</ele>
        <time>2016-06-19T09:03:23.588Z</time>
      </trkpt>
      <trkpt lat="46.84273" lon="6.24001">
        <ele>1100</ele>
        <time>2016-06-19T09:03:25.588Z</time>
      </trkpt>
      <trkpt lat="46.84274" lon="6.24004">
        <ele>1100</ele>
        <time>2016-06-19T09:03:27.588Z</time>
      </trkpt>
      <trkpt lat="46.84274" lon="6.24007">
        <ele>1100</ele>
        <time>2016-06-19T09:03:29.588Z</time>
      </trkpt>
      <trkpt lat="46.84276" lon="6.2401">
        <ele>1101</ele>
        <time>2016-06-19T09:03:31.588Z</time>
      </trkpt>
      <trkpt lat="46.84278" lon="6.24012">
        <ele>1101</ele>
        <time>2016-06-19T09:03:34.588Z</time>
      </trkpt>
      <trkpt lat="46.84279" lon="6.24015">
        <ele>1101</ele>
        <time>2016-06-19T09:03:36.588Z</time>
      </trkpt>
      <trkpt lat="46.84281" lon="6.24017">
        <ele>1101</ele>
        <time>2016-06-19T09:03:38.588Z</time>
      </trkpt>
      <trkpt lat="46.84283" lon="6.24019">
        <ele>1101</ele>
        <time>2016-06-19T09:03:40.588Z</time>
      </trkpt>
      <trkpt lat="46.84285" lon="6.24022">
        <ele>1101</ele>
        <time>2016-06-19T09:03:42.588Z</time>
      </trkpt>
      <trkpt lat="46.84287" lon="6.24024">
        <ele>1101</ele>
        <time>2016-06-19T09:03:44.588Z</time>
      </trkpt>
      <trkpt lat="46.84289" lon="6.24026">
        <ele>1101</ele>
        <time>2016-06-19T09:03:46.588Z</time>
      </trkpt>
      <trkpt lat="46.84291" lon="6.24028">
        <ele>1101</ele>
        <time>2016-06-19T09:03:48.588Z</time>
      </trkpt>
      <trkpt lat="46.84294" lon="6.2403">
        <ele>1101</ele>
        <time>2016-06-19T09:03:50.588Z</time>
      </trkpt>
      <trkpt lat="46.84297" lon="6.24031">
        <ele>1101</ele>
        <time>2016-06-19T09:03:52.588Z</time>
      </trkpt>
      <trkpt lat="46.84299" lon="6.24032">
        <ele>1101</ele>
        <time>2016-06-19T09:03:54.588Z</time>
      </trkpt>
      <trkpt lat="46.84301" lon="6.24035">
        <ele>1101</ele>
        <time>2016-06-19T09:03:56.588Z</time>
      </trkpt>
      <trkpt lat="46.84303" lon="6.24038">
        <ele>1101</ele>
        <time>2016-06-19T09:03:58.588Z</time>
      </trkpt>
      <trkpt lat="46.84305" lon="6.24041">
        <ele>1100.5419904</ele>
        <time>2016-06-19T09:04:00.588Z</time>
      </trkpt>
      <trkpt lat="46.84308" lon="6.24043">
        <ele>1100</ele>
        <time>2016-06-19T09:04:03.588Z</time>
      </trkpt>
      <trkpt lat="46.8431" lon="6.24044">
        <ele>1100</ele>
        <time>2016-06-19T09:04:04.588Z</time>
      </trkpt>
      <trkpt lat="46.84312" lon="6.24045">
        <ele>1100</ele>
        <time>2016-06-19T09:04:06.588Z</time>
      </trkpt>
      <trkpt lat="46.84315" lon="6.24044">
        <ele>1100</ele>
        <time>2016-06-19T09:04:09.588Z</time>
      </trkpt>
      <trkpt lat="46.84317" lon="6.24045">
        <ele>1101</ele>
        <time>2016-06-19T09:04:11.588Z</time>
      </trkpt>
      <trkpt lat="46.84319" lon="6.24045">
        <ele>1101</ele>
        <time>2016-06-19T09:04:13.588Z</time>
      </trkpt>
      <trkpt lat="46.84321" lon="6.24045">
        <ele>1101</ele>
        <time>2016-06-19T09:04:15.588Z</time>
      </trkpt>
      <trkpt lat="46.84324" lon="6.24046">
        <ele>1101</ele>
        <time>2016-06-19T09:04:17.588Z</time>
      </trkpt>
      <trkpt lat="46.84327" lon="6.24047">
        <ele>1101</ele>
        <time>2016-06-19T09:04:19.588Z</time>
      </trkpt>
      <trkpt lat="46.84329" lon="6.24049">
        <ele>1101</ele>
        <time>2016-06-19T09:04:21.588Z</time>
      </trkpt>
      <trkpt lat="46.84331" lon="6.24051">
        <ele>1101</ele>
        <time>2016-06-19T09:04:23.588Z</time>
      </trkpt>
      <trkpt lat="46.84332" lon="6.24054">
        <ele>1101</ele>
        <time>2016-06-19T09:04:25.588Z</time>
      </trkpt>
      <trkpt lat="46.84334" lon="6.24057">
        <ele>1101</ele>
        <time>2016-06-19T09:04:27.588Z</time>
      </trkpt>
      <trkpt lat="46.84336" lon="6.24059">
        <ele>1101</ele>
        <time>2016-06-19T09:04:29.588Z</time>
      </trkpt>
      <trkpt lat="46.84339" lon="6.24061">
        <ele>1102</ele>
        <time>2016-06-19T09:04:31.588Z</time>
      </trkpt>
      <trkpt lat="46.84342" lon="6.24064">
        <ele>1102</ele>
        <time>2016-06-19T09:04:33.588Z</time>
      </trkpt>
      <trkpt lat="46.84343" lon="6.24067">
        <ele>1102</ele>
        <time>2016-06-19T09:04:35.588Z</time>
      </trkpt>
      <trkpt lat="46.84345" lon="6.24071">
        <ele>1102</ele>
        <time>2016-06-19T09:04:37.588Z</time>
      </trkpt>
      <trkpt lat="46.84347" lon="6.24074">
        <ele>1102</ele>
        <time>2016-06-19T09:04:39.588Z</time>
      </trkpt>
      <trkpt lat="46.84349" lon="6.24077">
        <ele>1104</ele>
        <time>2016-06-19T09:04:41.588Z</time>
      </trkpt>
      <trkpt lat="46.84351" lon="6.24079">
        <ele>1104</ele>
        <time>2016-06-19T09:04:43.588Z</time>
      </trkpt>
      <trkpt lat="46.84354" lon="6.24081">
        <ele>1104</ele>
        <time>2016-06-19T09:04:45.588Z</time>
      </trkpt>
      <trkpt lat="46.84356" lon="6.24082">
        <ele>1104</ele>
        <time>2016-06-19T09:04:47.588Z</time>
      </trkpt>
      <trkpt lat="46.84358" lon="6.24084">
        <ele>1104</ele>
        <time>2016-06-19T09:04:49.588Z</time>
      </trkpt>
      <trkpt lat="46.8436" lon="6.24086">
        <ele>1105</ele>
        <time>2016-06-19T09:04:51.588Z</time>
      </trkpt>
      <trkpt lat="46.84361" lon="6.24088">
        <ele>1105</ele>
        <time>2016-06-19T09:04:53.588Z</time>
      </trkpt>
      <trkpt lat="46.84363" lon="6.24091">
        <ele>1105</ele>
        <time>2016-06-19T09:04:55.588Z</time>
      </trkpt>
      <trkpt lat="46.84365" lon="6.24093">
        <ele>1105</ele>
        <time>2016-06-19T09:04:57.588Z</time>
      </trkpt>
      <trkpt lat="46.84367" lon="6.24095">
        <ele>1105</ele>
        <time>2016-06-19T09:04:59.588Z</time>
      </trkpt>
      <trkpt lat="46.84369" lon="6.24097">
        <ele>1107</ele>
        <time>2016-06-19T09:05:01.588Z</time>
      </trkpt>
      <trkpt lat="46.84371" lon="6.24101">
        <ele>1107</ele>
        <time>2016-06-19T09:05:03.588Z</time>
      </trkpt>
      <trkpt lat="46.84373" lon="6.24104">
        <ele>1107</ele>
        <time>2016-06-19T09:05:06.588Z</time>
      </trkpt>
      <trkpt lat="46.84374" lon="6.24106">
        <ele>1107</ele>
        <time>2016-06-19T09:05:08.588Z</time>
      </trkpt>
      <trkpt lat="46.84375" lon="6.2411">
        <ele>1107.3469769697</ele>
        <time>2016-06-19T09:05:10.588Z</time>
      </trkpt>
      <trkpt lat="46.84376" lon="6.24114">
        <ele>1108</ele>
        <time>2016-06-19T09:05:12.588Z</time>
      </trkpt>
      <trkpt lat="46.84378" lon="6.24117">
        <ele>1108</ele>
        <time>2016-06-19T09:05:14.588Z</time>
      </trkpt>
      <trkpt lat="46.84379" lon="6.2412">
        <ele>1108</ele>
        <time>2016-06-19T09:05:16.588Z</time>
      </trkpt>
      <trkpt lat="46.8438" lon="6.24123">
        <ele>1108</ele>
        <time>2016-06-19T09:05:18.588Z</time>
      </trkpt>
      <trkpt lat="46.84383" lon="6.24126">
        <ele>1108.4580096</ele>
        <time>2016-06-19T09:05:20.588Z</time>
      </trkpt>
      <trkpt lat="46.84384" lon="6.24129">
        <ele>1109</ele>
        <time>2016-06-19T09:05:22.588Z</time>
      </trkpt>
      <trkpt lat="46.84386" lon="6.24132">
        <ele>1109</ele>
        <time>2016-06-19T09:05:24.588Z</time>
      </trkpt>
      <trkpt lat="46.84388" lon="6.24135">
        <ele>1109</ele>
        <time>2016-06-19T09:05:26.588Z</time>
      </trkpt>
      <trkpt lat="46.8439" lon="6.24137">
        <ele>1109</ele>
        <time>2016-06-19T09:05:28.588Z</time>
      </trkpt>
      <trkpt lat="46.84393" lon="6.24139">
        <ele>1109.2000148407</ele>
        <time>2016-06-19T09:05:30.588Z</time>
      </trkpt>
      <trkpt lat="46.84395" lon="6.2414">
        <ele>1110</ele>
        <time>2016-06-19T09:05:32.588Z</time>
      </trkpt>
      <trkpt lat="46.84397" lon="6.24143">
        <ele>1110</ele>
        <time>2016-06-19T09:05:34.588Z</time>
      </trkpt>
      <trkpt lat="46.84398" lon="6.24145">
        <ele>1110</ele>
        <time>2016-06-19T09:05:36.588Z</time>
      </trkpt>
      <trkpt lat="46.844" lon="6.24147">
        <ele>1110</ele>
        <time>2016-06-19T09:05:38.588Z</time>
      </trkpt>
      <trkpt lat="46.84402" lon="6.2415">
        <ele>1110</ele>
        <time>2016-06-19T09:05:40.588Z</time>
      </trkpt>
      <trkpt lat="46.84404" lon="6.24152">
        <ele>1110</ele>
        <time>2016-06-19T09:05:42.588Z</time>
      </trkpt>
      <trkpt lat="46.84406" lon="6.24153">
        <ele>1110</ele>
        <time>2016-06-19T09:05:44.588Z</time>
      </trkpt>
      <trkpt lat="46.84409" lon="6.24153">
        <ele>1110</ele>
        <time>2016-06-19T09:05:46.588Z</time>
      </trkpt>
      <trkpt lat="46.8441" lon="6.24154">
        <ele>1110</ele>
        <time>2016-06-19T09:05:48.588Z</time>
      </trkpt>
      <trkpt lat="46.84413" lon="6.24156">
        <ele>1110</ele>
        <time>2016-06-19T09:05:50.588Z</time>
      </trkpt>
      <trkpt lat="46.84415" lon="6.24156">
        <ele>1110</ele>
        <time>2016-06-19T09:05:52.588Z</time>
      </trkpt>
      <trkpt lat="46.84417" lon="6.24157">
        <ele>1110</ele>
        <time>2016-06-19T09:05:54.588Z</time>
      </trkpt>
      <trkpt lat="46.84419" lon="6.24157">
        <ele>1110</ele>
        <time>2016-06-19T09:05:56.588Z</time>
      </trkpt>
      <trkpt lat="46.84422" lon="6.24159">
        <ele>1110</ele>
        <time>2016-06-19T09:05:58.588Z</time>
      </trkpt>
      <trkpt lat="46.84425" lon="6.24162">
        <ele>1108.6259712</ele>
        <time>2016-06-19T09:06:00.588Z</time>
      </trkpt>
      <trkpt lat="46.84427" lon="6.24165">
        <ele>1107</ele>
        <time>2016-06-19T09:06:02.588Z</time>
      </trkpt>
      <trkpt lat="46.84429" lon="6.24167">
        <ele>1107</ele>
        <time>2016-06-19T09:06:03.588Z</time>
      </trkpt>
      <trkpt lat="46.8443" lon="6.24169">
        <ele>1107</ele>
        <time>2016-06-19T09:06:04.588Z</time>
      </trkpt>
      <trkpt lat="46.84433" lon="6.24172">
        <ele>1107</ele>
        <time>2016-06-19T09:06:06.588Z</time>
      </trkpt>
      <trkpt lat="46.84436" lon="6.24175">
        <ele>1107</ele>
        <time>2016-06-19T09:06:08.588Z</time>
      </trkpt>
      <trkpt lat="46.84437" lon="6.24177">
        <ele>1107</ele>
        <time>2016-06-19T09:06:09.588Z</time>
      </trkpt>
      <trkpt lat="46.84439" lon="6.24179">
        <ele>1106.5419904</ele>
        <time>2016-06-19T09:06:10.588Z</time>
      </trkpt>
      <trkpt lat="46.8444" lon="6.24181">
        <ele>1106</ele>
        <time>2016-06-19T09:06:11.588Z</time>
      </trkpt>
      <trkpt lat="46.84442" lon="6.24185">
        <ele>1106</ele>
        <time>2016-06-19T09:06:13.588Z</time>
      </trkpt>
      <trkpt lat="46.84443" lon="6.24187">
        <ele>1106</ele>
        <time>2016-06-19T09:06:14.588Z</time>
      </trkpt>
      <trkpt lat="46.84444" lon="6.2419">
        <ele>1106</ele>
        <time>2016-06-19T09:06:15.588Z</time>
      </trkpt>
      <trkpt lat="46.84445" lon="6.24192">
        <ele>1106</ele>
        <time>2016-06-19T09:06:16.588Z</time>
      </trkpt>
      <trkpt lat="46.84446" lon="6.24195">
        <ele>1106</ele>
        <time>2016-06-19T09:06:17.588Z</time>
      </trkpt>
      <trkpt lat="46.84447" lon="6.24197">
        <ele>1106</ele>
        <time>2016-06-19T09:06:18.588Z</time>
      </trkpt>
      <trkpt lat="46.84448" lon="6.24202">
        <ele>1104.6529213934</ele>
        <time>2016-06-19T09:06:20.588Z</time>
      </trkpt>
      <trkpt lat="46.8445" lon="6.24206">
        <ele>1103</ele>
        <time>2016-06-19T09:06:22.588Z</time>
      </trkpt>
      <trkpt lat="46.84451" lon="6.2421">
        <ele>1103</ele>
        <time>2016-06-19T09:06:24.588Z</time>
      </trkpt>
      <trkpt lat="46.84451" lon="6.24214">
        <ele>1099</ele>
        <time>2016-06-19T09:06:26.588Z</time>
      </trkpt>
      <trkpt lat="46.84451" lon="6.24218">
        <ele>1099</ele>
        <time>2016-06-19T09:06:28.588Z</time>
      </trkpt>
      <trkpt lat="46.84451" lon="6.24222">
        <ele>1098.5465237118</ele>
        <time>2016-06-19T09:06:30.588Z</time>
      </trkpt>
      <trkpt lat="46.84451" lon="6.24225">
        <ele>1098</ele>
        <time>2016-06-19T09:06:32.588Z</time>
      </trkpt>
      <trkpt lat="46.8445" lon="6.24228">
        <ele>1098</ele>
        <time>2016-06-19T09:06:34.588Z</time>
      </trkpt>
      <trkpt lat="46.8445" lon="6.2423">
        <ele>1097</ele>
        <time>2016-06-19T09:06:36.588Z</time>
      </trkpt>
      <trkpt lat="46.8445" lon="6.24235">
        <ele>1097</ele>
        <time>2016-06-19T09:06:39.588Z</time>
      </trkpt>
      <trkpt lat="46.84451" lon="6.24237">
        <ele>1097</ele>
        <time>2016-06-19T09:06:41.588Z</time>
      </trkpt>
      <trkpt lat="46.84452" lon="6.24241">
        <ele>1097</ele>
        <time>2016-06-19T09:06:44.588Z</time>
      </trkpt>
      <trkpt lat="46.84453" lon="6.24244">
        <ele>1097</ele>
        <time>2016-06-19T09:06:46.588Z</time>
      </trkpt>
      <trkpt lat="46.84453" lon="6.24247">
        <ele>1097</ele>
        <time>2016-06-19T09:06:48.588Z</time>
      </trkpt>
      <trkpt lat="46.84454" lon="6.24251">
        <ele>1097</ele>
        <time>2016-06-19T09:06:50.588Z</time>
      </trkpt>
      <trkpt lat="46.84456" lon="6.24255">
        <ele>1097</ele>
        <time>2016-06-19T09:06:52.588Z</time>
      </trkpt>
      <trkpt lat="46.84457" lon="6.24257">
        <ele>1097</ele>
        <time>2016-06-19T09:06:54.588Z</time>
      </trkpt>
      <trkpt lat="46.84459" lon="6.2426">
        <ele>1097</ele>
        <time>2016-06-19T09:06:56.588Z</time>
      </trkpt>
      <trkpt lat="46.8446" lon="6.24263">
        <ele>1097</ele>
        <time>2016-06-19T09:06:57.588Z</time>
      </trkpt>
      <trkpt lat="46.8446" lon="6.24265">
        <ele>1097</ele>
        <time>2016-06-19T09:06:58.588Z</time>
      </trkpt>
      <trkpt lat="46.84461" lon="6.2427">
        <ele>1097</ele>
        <time>2016-06-19T09:07:00.588Z</time>
      </trkpt>
      <trkpt lat="46.84462" lon="6.24273">
        <ele>1097</ele>
        <time>2016-06-19T09:07:01.588Z</time>
      </trkpt>
      <trkpt lat="46.84463" lon="6.24275">
        <ele>1097</ele>
        <time>2016-06-19T09:07:02.588Z</time>
      </trkpt>
      <trkpt lat="46.84464" lon="6.24278">
        <ele>1097</ele>
        <time>2016-06-19T09:07:03.588Z</time>
      </trkpt>
      <trkpt lat="46.84465" lon="6.2428">
        <ele>1097</ele>
        <time>2016-06-19T09:07:04.588Z</time>
      </trkpt>
      <trkpt lat="46.84466" lon="6.24286">
        <ele>1097</ele>
        <time>2016-06-19T09:07:06.588Z</time>
      </trkpt>
      <trkpt lat="46.84468" lon="6.24289">
        <ele>1097</ele>
        <time>2016-06-19T09:07:08.588Z</time>
      </trkpt>
      <trkpt lat="46.84469" lon="6.24293">
        <ele>1097</ele>
        <time>2016-06-19T09:07:10.588Z</time>
      </trkpt>
      <trkpt lat="46.84472" lon="6.24296">
        <ele>1097</ele>
        <time>2016-06-19T09:07:12.588Z</time>
      </trkpt>
      <trkpt lat="46.84473" lon="6.24298">
        <ele>1097</ele>
        <time>2016-06-19T09:07:13.588Z</time>
      </trkpt>
      <trkpt lat="46.84476" lon="6.24303">
        <ele>1097</ele>
        <time>2016-06-19T09:07:16.588Z</time>
      </trkpt>
      <trkpt lat="46.84477" lon="6.24304">
        <ele>1097</ele>
        <time>2016-06-19T09:07:18.588Z</time>
      </trkpt>
      <trkpt lat="46.84479" lon="6.24304">
        <ele>1096</ele>
        <time>2016-06-19T09:07:21.588Z</time>
      </trkpt>
      <trkpt lat="46.84485" lon="6.24316">
        <ele>1096</ele>
        <time>2016-06-19T09:07:32.588Z</time>
      </trkpt>
      <trkpt lat="46.8449" lon="6.24327">
        <ele>1096</ele>
        <time>2016-06-19T09:07:39.588Z</time>
      </trkpt>
      <trkpt lat="46.84491" lon="6.2433">
        <ele>1097</ele>
        <time>2016-06-19T09:07:41.588Z</time>
      </trkpt>
      <trkpt lat="46.84492" lon="6.24334">
        <ele>1097</ele>
        <time>2016-06-19T09:07:43.588Z</time>
      </trkpt>
      <trkpt lat="46.84497" lon="6.24344">
        <ele>1097.4580096</ele>
        <time>2016-06-19T09:07:50.588Z</time>
      </trkpt>
      <trkpt lat="46.84498" lon="6.24346">
        <ele>1098</ele>
        <time>2016-06-19T09:07:51.588Z</time>
      </trkpt>
      <trkpt lat="46.84499" lon="6.2435">
        <ele>1098</ele>
        <time>2016-06-19T09:07:53.588Z</time>
      </trkpt>
      <trkpt lat="46.84501" lon="6.24354">
        <ele>1098</ele>
        <time>2016-06-19T09:07:56.588Z</time>
      </trkpt>
      <trkpt lat="46.84505" lon="6.24366">
        <ele>1100</ele>
        <time>2016-06-19T09:08:06.588Z</time>
      </trkpt>
      <trkpt lat="46.84506" lon="6.24375">
        <ele>1102</ele>
        <time>2016-06-19T09:08:12.588Z</time>
      </trkpt>
      <trkpt lat="46.84506" lon="6.24378">
        <ele>1102</ele>
        <time>2016-06-19T09:08:14.588Z</time>
      </trkpt>
      <trkpt lat="46.84507" lon="6.24382">
        <ele>1102</ele>
        <time>2016-06-19T09:08:17.588Z</time>
      </trkpt>
      <trkpt lat="46.84508" lon="6.24386">
        <ele>1102</ele>
        <time>2016-06-19T09:08:19.588Z</time>
      </trkpt>
      <trkpt lat="46.84509" lon="6.24389">
        <ele>1102</ele>
        <time>2016-06-19T09:08:21.588Z</time>
      </trkpt>
      <trkpt lat="46.8451" lon="6.24394">
        <ele>1102</ele>
        <time>2016-06-19T09:08:23.588Z</time>
      </trkpt>
      <trkpt lat="46.84511" lon="6.24398">
        <ele>1102</ele>
        <time>2016-06-19T09:08:25.588Z</time>
      </trkpt>
      <trkpt lat="46.84511" lon="6.24401">
        <ele>1102</ele>
        <time>2016-06-19T09:08:27.588Z</time>
      </trkpt>
      <trkpt lat="46.84511" lon="6.24404">
        <ele>1102</ele>
        <time>2016-06-19T09:08:29.588Z</time>
      </trkpt>
      <trkpt lat="46.84513" lon="6.24407">
        <ele>1104</ele>
        <time>2016-06-19T09:08:31.588Z</time>
      </trkpt>
      <trkpt lat="46.84514" lon="6.24411">
        <ele>1104</ele>
        <time>2016-06-19T09:08:33.588Z</time>
      </trkpt>
      <trkpt lat="46.84515" lon="6.24414">
        <ele>1104</ele>
        <time>2016-06-19T09:08:35.588Z</time>
      </trkpt>
      <trkpt lat="46.84516" lon="6.24417">
        <ele>1104</ele>
        <time>2016-06-19T09:08:37.588Z</time>
      </trkpt>
      <trkpt lat="46.84517" lon="6.24419">
        <ele>1104</ele>
        <time>2016-06-19T09:08:39.588Z</time>
      </trkpt>
      <trkpt lat="46.8452" lon="6.24423">
        <ele>1105</ele>
        <time>2016-06-19T09:08:42.588Z</time>
      </trkpt>
      <trkpt lat="46.84523" lon="6.24426">
        <ele>1105</ele>
        <time>2016-06-19T09:08:44.588Z</time>
      </trkpt>
      <trkpt lat="46.84524" lon="6.24428">
        <ele>1105</ele>
        <time>2016-06-19T09:08:46.588Z</time>
      </trkpt>
      <trkpt lat="46.84526" lon="6.24431">
        <ele>1105</ele>
        <time>2016-06-19T09:08:48.588Z</time>
      </trkpt>
      <trkpt lat="46.84528" lon="6.24434">
        <ele>1105</ele>
        <time>2016-06-19T09:08:50.588Z</time>
      </trkpt>
      <trkpt lat="46.84529" lon="6.24437">
        <ele>1105</ele>
        <time>2016-06-19T09:08:52.588Z</time>
      </trkpt>
      <trkpt lat="46.84533" lon="6.24444">
        <ele>1105</ele>
        <time>2016-06-19T09:08:57.588Z</time>
      </trkpt>
      <trkpt lat="46.84534" lon="6.24447">
        <ele>1105</ele>
        <time>2016-06-19T09:09:00.588Z</time>
      </trkpt>
      <trkpt lat="46.84535" lon="6.2445">
        <ele>1106</ele>
        <time>2016-06-19T09:09:02.588Z</time>
      </trkpt>
      <trkpt lat="46.84535" lon="6.24454">
        <ele>1106</ele>
        <time>2016-06-19T09:09:04.588Z</time>
      </trkpt>
      <trkpt lat="46.84537" lon="6.24456">
        <ele>1106</ele>
        <time>2016-06-19T09:09:06.588Z</time>
      </trkpt>
      <trkpt lat="46.84538" lon="6.24459">
        <ele>1106</ele>
        <time>2016-06-19T09:09:08.588Z</time>
      </trkpt>
      <trkpt lat="46.8454" lon="6.24462">
        <ele>1106</ele>
        <time>2016-06-19T09:09:10.588Z</time>
      </trkpt>
      <trkpt lat="46.84542" lon="6.24464">
        <ele>1106</ele>
        <time>2016-06-19T09:09:12.588Z</time>
      </trkpt>
      <trkpt lat="46.84543" lon="6.24466">
        <ele>1106</ele>
        <time>2016-06-19T09:09:14.588Z</time>
      </trkpt>
      <trkpt lat="46.84545" lon="6.24469">
        <ele>1106</ele>
        <time>2016-06-19T09:09:16.588Z</time>
      </trkpt>
      <trkpt lat="46.84545" lon="6.24471">
        <ele>1106</ele>
        <time>2016-06-19T09:09:18.588Z</time>
      </trkpt>
      <trkpt lat="46.84546" lon="6.24474">
        <ele>1106</ele>
        <time>2016-06-19T09:09:20.588Z</time>
      </trkpt>
      <trkpt lat="46.84548" lon="6.24477">
        <ele>1108</ele>
        <time>2016-06-19T09:09:22.588Z</time>
      </trkpt>
      <trkpt lat="46.8455" lon="6.24481">
        <ele>1108</ele>
        <time>2016-06-19T09:09:24.588Z</time>
      </trkpt>
      <trkpt lat="46.84551" lon="6.24484">
        <ele>1108</ele>
        <time>2016-06-19T09:09:26.588Z</time>
      </trkpt>
      <trkpt lat="46.84552" lon="6.24488">
        <ele>1108</ele>
        <time>2016-06-19T09:09:28.588Z</time>
      </trkpt>
      <trkpt lat="46.84553" lon="6.24491">
        <ele>1108</ele>
        <time>2016-06-19T09:09:30.588Z</time>
      </trkpt>
      <trkpt lat="46.84553" lon="6.24495">
        <ele>1109</ele>
        <time>2016-06-19T09:09:32.588Z</time>
      </trkpt>
      <trkpt lat="46.84552" lon="6.24503">
        <ele>1109</ele>
        <time>2016-06-19T09:09:36.588Z</time>
      </trkpt>
      <trkpt lat="46.8455" lon="6.24505">
        <ele>1109</ele>
        <time>2016-06-19T09:09:38.588Z</time>
      </trkpt>
      <trkpt lat="46.84547" lon="6.24507">
        <ele>1109</ele>
        <time>2016-06-19T09:09:40.588Z</time>
      </trkpt>
      <trkpt lat="46.84546" lon="6.24507">
        <ele>1109.9159936</ele>
        <time>2016-06-19T09:09:41.588Z</time>
      </trkpt>
      <trkpt lat="46.84543" lon="6.24508">
        <ele>1111</ele>
        <time>2016-06-19T09:09:43.588Z</time>
      </trkpt>
      <trkpt lat="46.84541" lon="6.24508">
        <ele>1111</ele>
        <time>2016-06-19T09:09:45.588Z</time>
      </trkpt>
      <trkpt lat="46.84537" lon="6.24509">
        <ele>1111</ele>
        <time>2016-06-19T09:09:49.588Z</time>
      </trkpt>
      <trkpt lat="46.84527" lon="6.24509">
        <ele>1112</ele>
        <time>2016-06-19T09:09:58.588Z</time>
      </trkpt>
      <trkpt lat="46.84524" lon="6.24508">
        <ele>1112.9160192</ele>
        <time>2016-06-19T09:10:00.588Z</time>
      </trkpt>
      <trkpt lat="46.84521" lon="6.24506">
        <ele>1114</ele>
        <time>2016-06-19T09:10:02.588Z</time>
      </trkpt>
      <trkpt lat="46.84518" lon="6.24506">
        <ele>1114</ele>
        <time>2016-06-19T09:10:04.588Z</time>
      </trkpt>
      <trkpt lat="46.84516" lon="6.24505">
        <ele>1114</ele>
        <time>2016-06-19T09:10:05.588Z</time>
      </trkpt>
      <trkpt lat="46.84514" lon="6.24505">
        <ele>1114</ele>
        <time>2016-06-19T09:10:06.588Z</time>
      </trkpt>
      <trkpt lat="46.84512" lon="6.24504">
        <ele>1114</ele>
        <time>2016-06-19T09:10:08.588Z</time>
      </trkpt>
      <trkpt lat="46.8451" lon="6.24501">
        <ele>1114.9160192</ele>
        <time>2016-06-19T09:10:10.588Z</time>
      </trkpt>
      <trkpt lat="46.84508" lon="6.24498">
        <ele>1116</ele>
        <time>2016-06-19T09:10:12.588Z</time>
      </trkpt>
      <trkpt lat="46.84508" lon="6.24496">
        <ele>1116</ele>
        <time>2016-06-19T09:10:14.588Z</time>
      </trkpt>
      <trkpt lat="46.84506" lon="6.24492">
        <ele>1116</ele>
        <time>2016-06-19T09:10:16.588Z</time>
      </trkpt>
      <trkpt lat="46.84504" lon="6.2449">
        <ele>1116</ele>
        <time>2016-06-19T09:10:18.588Z</time>
      </trkpt>
      <trkpt lat="46.84502" lon="6.24488">
        <ele>1116</ele>
        <time>2016-06-19T09:10:20.588Z</time>
      </trkpt>
      <trkpt lat="46.84499" lon="6.24481">
        <ele>1116</ele>
        <time>2016-06-19T09:10:25.588Z</time>
      </trkpt>
      <trkpt lat="46.84497" lon="6.24477">
        <ele>1116</ele>
        <time>2016-06-19T09:10:27.588Z</time>
      </trkpt>
      <trkpt lat="46.84492" lon="6.24475">
        <ele>1116</ele>
        <time>2016-06-19T09:10:31.588Z</time>
      </trkpt>
      <trkpt lat="46.84489" lon="6.24474">
        <ele>1116</ele>
        <time>2016-06-19T09:10:33.588Z</time>
      </trkpt>
      <trkpt lat="46.84487" lon="6.24474">
        <ele>1116</ele>
        <time>2016-06-19T09:10:35.588Z</time>
      </trkpt>
      <trkpt lat="46.84483" lon="6.24473">
        <ele>1116</ele>
        <time>2016-06-19T09:10:38.588Z</time>
      </trkpt>
      <trkpt lat="46.84478" lon="6.2447">
        <ele>1118</ele>
        <time>2016-06-19T09:10:44.588Z</time>
      </trkpt>
      <trkpt lat="46.84471" lon="6.24469">
        <ele>1118.4580096</ele>
        <time>2016-06-19T09:10:50.588Z</time>
      </trkpt>
      <trkpt lat="46.84469" lon="6.24469">
        <ele>1119</ele>
        <time>2016-06-19T09:10:52.588Z</time>
      </trkpt>
      <trkpt lat="46.84465" lon="6.24467">
        <ele>1119</ele>
        <time>2016-06-19T09:10:55.588Z</time>
      </trkpt>
      <trkpt lat="46.84462" lon="6.24467">
        <ele>1119</ele>
        <time>2016-06-19T09:10:57.588Z</time>
      </trkpt>
      <trkpt lat="46.8446" lon="6.24466">
        <ele>1119</ele>
        <time>2016-06-19T09:10:59.588Z</time>
      </trkpt>
      <trkpt lat="46.84458" lon="6.24466">
        <ele>1120</ele>
        <time>2016-06-19T09:11:02.588Z</time>
      </trkpt>
      <trkpt lat="46.84455" lon="6.24466">
        <ele>1120</ele>
        <time>2016-06-19T09:11:04.588Z</time>
      </trkpt>
      <trkpt lat="46.84453" lon="6.24465">
        <ele>1120</ele>
        <time>2016-06-19T09:11:06.588Z</time>
      </trkpt>
      <trkpt lat="46.84451" lon="6.24465">
        <ele>1120</ele>
        <time>2016-06-19T09:11:08.588Z</time>
      </trkpt>
      <trkpt lat="46.84448" lon="6.24463">
        <ele>1120</ele>
        <time>2016-06-19T09:11:10.588Z</time>
      </trkpt>
      <trkpt lat="46.84446" lon="6.2446">
        <ele>1120</ele>
        <time>2016-06-19T09:11:12.588Z</time>
      </trkpt>
      <trkpt lat="46.84445" lon="6.24458">
        <ele>1120</ele>
        <time>2016-06-19T09:11:14.588Z</time>
      </trkpt>
      <trkpt lat="46.84443" lon="6.24457">
        <ele>1120</ele>
        <time>2016-06-19T09:11:16.588Z</time>
      </trkpt>
      <trkpt lat="46.84441" lon="6.24455">
        <ele>1120</ele>
        <time>2016-06-19T09:11:18.588Z</time>
      </trkpt>
      <trkpt lat="46.8444" lon="6.24453">
        <ele>1120</ele>
        <time>2016-06-19T09:11:20.588Z</time>
      </trkpt>
      <trkpt lat="46.84438" lon="6.2445">
        <ele>1120</ele>
        <time>2016-06-19T09:11:22.588Z</time>
      </trkpt>
      <trkpt lat="46.84436" lon="6.24448">
        <ele>1120</ele>
        <time>2016-06-19T09:11:24.588Z</time>
      </trkpt>
      <trkpt lat="46.84435" lon="6.24445">
        <ele>1120</ele>
        <time>2016-06-19T09:11:26.588Z</time>
      </trkpt>
      <trkpt lat="46.84433" lon="6.24443">
        <ele>1120</ele>
        <time>2016-06-19T09:11:28.588Z</time>
      </trkpt>
      <trkpt lat="46.84431" lon="6.24441">
        <ele>1120</ele>
        <time>2016-06-19T09:11:30.588Z</time>
      </trkpt>
      <trkpt lat="46.8443" lon="6.24438">
        <ele>1120</ele>
        <time>2016-06-19T09:11:32.588Z</time>
      </trkpt>
      <trkpt lat="46.84428" lon="6.24436">
        <ele>1120</ele>
        <time>2016-06-19T09:11:34.588Z</time>
      </trkpt>
      <trkpt lat="46.84426" lon="6.24434">
        <ele>1120</ele>
        <time>2016-06-19T09:11:36.588Z</time>
      </trkpt>
      <trkpt lat="46.84426" lon="6.24429">
        <ele>1120</ele>
        <time>2016-06-19T09:11:39.588Z</time>
      </trkpt>
      <trkpt lat="46.8442" lon="6.24422">
        <ele>1120</ele>
        <time>2016-06-19T09:11:46.588Z</time>
      </trkpt>
      <trkpt lat="46.84418" lon="6.24421">
        <ele>1120</ele>
        <time>2016-06-19T09:11:48.588Z</time>
      </trkpt>
      <trkpt lat="46.84415" lon="6.24418">
        <ele>1119.7970447059</ele>
        <time>2016-06-19T09:11:50.588Z</time>
      </trkpt>
      <trkpt lat="46.84413" lon="6.24414">
        <ele>1119</ele>
        <time>2016-06-19T09:11:52.588Z</time>
      </trkpt>
      <trkpt lat="46.84412" lon="6.24411">
        <ele>1119</ele>
        <time>2016-06-19T09:11:53.588Z</time>
      </trkpt>
      <trkpt lat="46.84411" lon="6.24409">
        <ele>1119</ele>
        <time>2016-06-19T09:11:54.588Z</time>
      </trkpt>
      <trkpt lat="46.84409" lon="6.24406">
        <ele>1119</ele>
        <time>2016-06-19T09:11:55.588Z</time>
      </trkpt>
      <trkpt lat="46.84408" lon="6.24404">
        <ele>1119</ele>
        <time>2016-06-19T09:11:56.588Z</time>
      </trkpt>
      <trkpt lat="46.84407" lon="6.24401">
        <ele>1119</ele>
        <time>2016-06-19T09:11:57.588Z</time>
      </trkpt>
      <trkpt lat="46.84403" lon="6.24393">
        <ele>1119.4580096</ele>
        <time>2016-06-19T09:12:00.588Z</time>
      </trkpt>
      <trkpt lat="46.84403" lon="6.2439">
        <ele>1120</ele>
        <time>2016-06-19T09:12:01.588Z</time>
      </trkpt>
      <trkpt lat="46.84402" lon="6.24386">
        <ele>1120</ele>
        <time>2016-06-19T09:12:03.588Z</time>
      </trkpt>
      <trkpt lat="46.84395" lon="6.24377">
        <ele>1120</ele>
        <time>2016-06-19T09:12:09.588Z</time>
      </trkpt>
      <trkpt lat="46.84393" lon="6.24375">
        <ele>1120</ele>
        <time>2016-06-19T09:12:10.588Z</time>
      </trkpt>
      <trkpt lat="46.84391" lon="6.24373">
        <ele>1120</ele>
        <time>2016-06-19T09:12:11.588Z</time>
      </trkpt>
      <trkpt lat="46.84389" lon="6.24371">
        <ele>1120</ele>
        <time>2016-06-19T09:12:12.588Z</time>
      </trkpt>
      <trkpt lat="46.84387" lon="6.24368">
        <ele>1120</ele>
        <time>2016-06-19T09:12:13.588Z</time>
      </trkpt>
      <trkpt lat="46.84386" lon="6.24365">
        <ele>1120</ele>
        <time>2016-06-19T09:12:14.588Z</time>
      </trkpt>
      <trkpt lat="46.84384" lon="6.24362">
        <ele>1120</ele>
        <time>2016-06-19T09:12:15.588Z</time>
      </trkpt>
      <trkpt lat="46.84382" lon="6.24358">
        <ele>1120</ele>
        <time>2016-06-19T09:12:16.588Z</time>
      </trkpt>
      <trkpt lat="46.84381" lon="6.24355">
        <ele>1120</ele>
        <time>2016-06-19T09:12:17.588Z</time>
      </trkpt>
      <trkpt lat="46.8438" lon="6.24352">
        <ele>1120</ele>
        <time>2016-06-19T09:12:18.588Z</time>
      </trkpt>
      <trkpt lat="46.84379" lon="6.24349">
        <ele>1120</ele>
        <time>2016-06-19T09:12:19.588Z</time>
      </trkpt>
      <trkpt lat="46.84377" lon="6.24346">
        <ele>1119.5419904</ele>
        <time>2016-06-19T09:12:20.588Z</time>
      </trkpt>
      <trkpt lat="46.84377" lon="6.24344">
        <ele>1119</ele>
        <time>2016-06-19T09:12:21.588Z</time>
      </trkpt>
      <trkpt lat="46.84376" lon="6.24341">
        <ele>1119</ele>
        <time>2016-06-19T09:12:22.588Z</time>
      </trkpt>
      <trkpt lat="46.84376" lon="6.24338">
        <ele>1119</ele>
        <time>2016-06-19T09:12:23.588Z</time>
      </trkpt>
      <trkpt lat="46.84376" lon="6.24336">
        <ele>1119</ele>
        <time>2016-06-19T09:12:24.588Z</time>
      </trkpt>
      <trkpt lat="46.84375" lon="6.24333">
        <ele>1119</ele>
        <time>2016-06-19T09:12:25.588Z</time>
      </trkpt>
      <trkpt lat="46.84375" lon="6.2433">
        <ele>1119</ele>
        <time>2016-06-19T09:12:26.588Z</time>
      </trkpt>
      <trkpt lat="46.84374" lon="6.24327">
        <ele>1119</ele>
        <time>2016-06-19T09:12:27.588Z</time>
      </trkpt>
      <trkpt lat="46.84373" lon="6.24325">
        <ele>1119</ele>
        <time>2016-06-19T09:12:28.588Z</time>
      </trkpt>
      <trkpt lat="46.84372" lon="6.2432">
        <ele>1119</ele>
        <time>2016-06-19T09:12:30.588Z</time>
      </trkpt>
      <trkpt lat="46.84371" lon="6.24317">
        <ele>1119</ele>
        <time>2016-06-19T09:12:32.588Z</time>
      </trkpt>
      <trkpt lat="46.84367" lon="6.24303">
        <ele>1119</ele>
        <time>2016-06-19T09:12:38.588Z</time>
      </trkpt>
      <trkpt lat="46.84365" lon="6.243">
        <ele>1119</ele>
        <time>2016-06-19T09:12:40.588Z</time>
      </trkpt>
      <trkpt lat="46.84364" lon="6.24298">
        <ele>1119</ele>
        <time>2016-06-19T09:12:41.588Z</time>
      </trkpt>
      <trkpt lat="46.84362" lon="6.24296">
        <ele>1119</ele>
        <time>2016-06-19T09:12:42.588Z</time>
      </trkpt>
      <trkpt lat="46.8436" lon="6.24292">
        <ele>1119</ele>
        <time>2016-06-19T09:12:44.588Z</time>
      </trkpt>
      <trkpt lat="46.84359" lon="6.24289">
        <ele>1119</ele>
        <time>2016-06-19T09:12:46.588Z</time>
      </trkpt>
      <trkpt lat="46.84358" lon="6.24286">
        <ele>1119</ele>
        <time>2016-06-19T09:12:48.588Z</time>
      </trkpt>
      <trkpt lat="46.84357" lon="6.24283">
        <ele>1119.4580096</ele>
        <time>2016-06-19T09:12:50.588Z</time>
      </trkpt>
      <trkpt lat="46.84356" lon="6.2428">
        <ele>1120</ele>
        <time>2016-06-19T09:12:58.588Z</time>
      </trkpt>
      <trkpt lat="46.84354" lon="6.24277">
        <ele>1118.6259712</ele>
        <time>2016-06-19T09:13:00.588Z</time>
      </trkpt>
      <trkpt lat="46.84353" lon="6.24273">
        <ele>1117</ele>
        <time>2016-06-19T09:13:02.588Z</time>
      </trkpt>
      <trkpt lat="46.84352" lon="6.24271">
        <ele>1117</ele>
        <time>2016-06-19T09:13:04.588Z</time>
      </trkpt>
      <trkpt lat="46.8435" lon="6.24268">
        <ele>1118</ele>
        <time>2016-06-19T09:13:06.588Z</time>
      </trkpt>
      <trkpt lat="46.84349" lon="6.24265">
        <ele>1118</ele>
        <time>2016-06-19T09:13:08.588Z</time>
      </trkpt>
      <trkpt lat="46.84348" lon="6.24262">
        <ele>1118</ele>
        <time>2016-06-19T09:13:10.588Z</time>
      </trkpt>
      <trkpt lat="46.84346" lon="6.2426">
        <ele>1118</ele>
        <time>2016-06-19T09:13:12.588Z</time>
      </trkpt>
      <trkpt lat="46.84345" lon="6.24257">
        <ele>1118</ele>
        <time>2016-06-19T09:13:14.588Z</time>
      </trkpt>
      <trkpt lat="46.84343" lon="6.24257">
        <ele>1118</ele>
        <time>2016-06-19T09:13:16.588Z</time>
      </trkpt>
      <trkpt lat="46.8434" lon="6.24255">
        <ele>1118</ele>
        <time>2016-06-19T09:13:18.588Z</time>
      </trkpt>
      <trkpt lat="46.84338" lon="6.24253">
        <ele>1118</ele>
        <time>2016-06-19T09:13:20.588Z</time>
      </trkpt>
      <trkpt lat="46.84335" lon="6.2425">
        <ele>1118</ele>
        <time>2016-06-19T09:13:22.588Z</time>
      </trkpt>
      <trkpt lat="46.84334" lon="6.24247">
        <ele>1118</ele>
        <time>2016-06-19T09:13:23.588Z</time>
      </trkpt>
      <trkpt lat="46.84333" lon="6.24245">
        <ele>1118</ele>
        <time>2016-06-19T09:13:24.588Z</time>
      </trkpt>
      <trkpt lat="46.84331" lon="6.24243">
        <ele>1118</ele>
        <time>2016-06-19T09:13:25.588Z</time>
      </trkpt>
      <trkpt lat="46.8433" lon="6.24241">
        <ele>1118</ele>
        <time>2016-06-19T09:13:26.588Z</time>
      </trkpt>
      <trkpt lat="46.84328" lon="6.24239">
        <ele>1118</ele>
        <time>2016-06-19T09:13:27.588Z</time>
      </trkpt>
      <trkpt lat="46.84327" lon="6.24237">
        <ele>1118</ele>
        <time>2016-06-19T09:13:28.588Z</time>
      </trkpt>
      <trkpt lat="46.84326" lon="6.24235">
        <ele>1118</ele>
        <time>2016-06-19T09:13:29.588Z</time>
      </trkpt>
      <trkpt lat="46.84325" lon="6.24232">
        <ele>1117.0930474235</ele>
        <time>2016-06-19T09:13:30.588Z</time>
      </trkpt>
      <trkpt lat="46.84323" lon="6.2423">
        <ele>1116</ele>
        <time>2016-06-19T09:13:31.588Z</time>
      </trkpt>
      <trkpt lat="46.84322" lon="6.24227">
        <ele>1116</ele>
        <time>2016-06-19T09:13:32.588Z</time>
      </trkpt>
      <trkpt lat="46.84321" lon="6.24225">
        <ele>1116</ele>
        <time>2016-06-19T09:13:33.588Z</time>
      </trkpt>
      <trkpt lat="46.84319" lon="6.24223">
        <ele>1116</ele>
        <time>2016-06-19T09:13:34.588Z</time>
      </trkpt>
      <trkpt lat="46.84318" lon="6.24221">
        <ele>1116</ele>
        <time>2016-06-19T09:13:35.588Z</time>
      </trkpt>
      <trkpt lat="46.84316" lon="6.2422">
        <ele>1116</ele>
        <time>2016-06-19T09:13:36.588Z</time>
      </trkpt>
      <trkpt lat="46.84314" lon="6.24218">
        <ele>1116</ele>
        <time>2016-06-19T09:13:37.588Z</time>
      </trkpt>
      <trkpt lat="46.84312" lon="6.24216">
        <ele>1116</ele>
        <time>2016-06-19T09:13:39.588Z</time>
      </trkpt>
      <trkpt lat="46.8431" lon="6.24214">
        <ele>1115.5419904</ele>
        <time>2016-06-19T09:13:40.588Z</time>
      </trkpt>
      <trkpt lat="46.84308" lon="6.24212">
        <ele>1115</ele>
        <time>2016-06-19T09:13:41.588Z</time>
      </trkpt>
      <trkpt lat="46.84307" lon="6.24209">
        <ele>1115</ele>
        <time>2016-06-19T09:13:42.588Z</time>
      </trkpt>
      <trkpt lat="46.84306" lon="6.24206">
        <ele>1115</ele>
        <time>2016-06-19T09:13:44.588Z</time>
      </trkpt>
      <trkpt lat="46.84305" lon="6.24203">
        <ele>1115</ele>
        <time>2016-06-19T09:13:46.588Z</time>
      </trkpt>
      <trkpt lat="46.84303" lon="6.24201">
        <ele>1115</ele>
        <time>2016-06-19T09:13:48.588Z</time>
      </trkpt>
      <trkpt lat="46.84301" lon="6.24199">
        <ele>1114.5419904</ele>
        <time>2016-06-19T09:13:50.588Z</time>
      </trkpt>
      <trkpt lat="46.843" lon="6.24196">
        <ele>1114</ele>
        <time>2016-06-19T09:13:52.588Z</time>
      </trkpt>
      <trkpt lat="46.84297" lon="6.24194">
        <ele>1114</ele>
        <time>2016-06-19T09:13:54.588Z</time>
      </trkpt>
      <trkpt lat="46.84295" lon="6.24193">
        <ele>1114</ele>
        <time>2016-06-19T09:13:56.588Z</time>
      </trkpt>
      <trkpt lat="46.84293" lon="6.24191">
        <ele>1114</ele>
        <time>2016-06-19T09:13:58.588Z</time>
      </trkpt>
      <trkpt lat="46.84286" lon="6.24185">
        <ele>1112</ele>
        <time>2016-06-19T09:14:02.588Z</time>
      </trkpt>
      <trkpt lat="46.84285" lon="6.24184">
        <ele>1112</ele>
        <time>2016-06-19T09:14:03.588Z</time>
      </trkpt>
      <trkpt lat="46.84284" lon="6.24181">
        <ele>1112</ele>
        <time>2016-06-19T09:14:04.588Z</time>
      </trkpt>
      <trkpt lat="46.84283" lon="6.24179">
        <ele>1112</ele>
        <time>2016-06-19T09:14:05.588Z</time>
      </trkpt>
      <trkpt lat="46.84281" lon="6.24175">
        <ele>1112</ele>
        <time>2016-06-19T09:14:07.588Z</time>
      </trkpt>
      <trkpt lat="46.8428" lon="6.24171">
        <ele>1112</ele>
        <time>2016-06-19T09:14:09.588Z</time>
      </trkpt>
      <trkpt lat="46.84278" lon="6.24167">
        <ele>1112</ele>
        <time>2016-06-19T09:14:11.588Z</time>
      </trkpt>
      <trkpt lat="46.84277" lon="6.24165">
        <ele>1112</ele>
        <time>2016-06-19T09:14:13.588Z</time>
      </trkpt>
      <trkpt lat="46.84275" lon="6.24162">
        <ele>1112</ele>
        <time>2016-06-19T09:14:15.588Z</time>
      </trkpt>
      <trkpt lat="46.84273" lon="6.24159">
        <ele>1112</ele>
        <time>2016-06-19T09:14:17.588Z</time>
      </trkpt>
      <trkpt lat="46.84271" lon="6.24155">
        <ele>1112</ele>
        <time>2016-06-19T09:14:19.588Z</time>
      </trkpt>
      <trkpt lat="46.84267" lon="6.24142">
        <ele>1111</ele>
        <time>2016-06-19T09:14:28.588Z</time>
      </trkpt>
      <trkpt lat="46.84259" lon="6.24138">
        <ele>1111</ele>
        <time>2016-06-19T09:14:33.588Z</time>
      </trkpt>
      <trkpt lat="46.84258" lon="6.24136">
        <ele>1111</ele>
        <time>2016-06-19T09:14:34.588Z</time>
      </trkpt>
      <trkpt lat="46.84256" lon="6.24134">
        <ele>1111</ele>
        <time>2016-06-19T09:14:35.588Z</time>
      </trkpt>
      <trkpt lat="46.84254" lon="6.24128">
        <ele>1111</ele>
        <time>2016-06-19T09:14:38.588Z</time>
      </trkpt>
      <trkpt lat="46.84252" lon="6.24125">
        <ele>1111</ele>
        <time>2016-06-19T09:14:40.588Z</time>
      </trkpt>
      <trkpt lat="46.84251" lon="6.24122">
        <ele>1111</ele>
        <time>2016-06-19T09:14:42.588Z</time>
      </trkpt>
      <trkpt lat="46.84249" lon="6.24119">
        <ele>1111</ele>
        <time>2016-06-19T09:14:44.588Z</time>
      </trkpt>
      <trkpt lat="46.84247" lon="6.24116">
        <ele>1111</ele>
        <time>2016-06-19T09:14:46.588Z</time>
      </trkpt>
      <trkpt lat="46.84245" lon="6.24112">
        <ele>1111</ele>
        <time>2016-06-19T09:14:48.588Z</time>
      </trkpt>
      <trkpt lat="46.84243" lon="6.24111">
        <ele>1111.4490262022</ele>
        <time>2016-06-19T09:14:50.588Z</time>
      </trkpt>
      <trkpt lat="46.84242" lon="6.24108">
        <ele>1112</ele>
        <time>2016-06-19T09:14:51.588Z</time>
      </trkpt>
      <trkpt lat="46.84241" lon="6.24105">
        <ele>1112</ele>
        <time>2016-06-19T09:14:53.588Z</time>
      </trkpt>
      <trkpt lat="46.8424" lon="6.24102">
        <ele>1112</ele>
        <time>2016-06-19T09:14:55.588Z</time>
      </trkpt>
      <trkpt lat="46.84239" lon="6.24098">
        <ele>1112</ele>
        <time>2016-06-19T09:14:57.588Z</time>
      </trkpt>
      <trkpt lat="46.84238" lon="6.24094">
        <ele>1110.6259712</ele>
        <time>2016-06-19T09:15:00.588Z</time>
      </trkpt>
      <trkpt lat="46.84236" lon="6.24092">
        <ele>1109</ele>
        <time>2016-06-19T09:15:03.588Z</time>
      </trkpt>
      <trkpt lat="46.84235" lon="6.2409">
        <ele>1109</ele>
        <time>2016-06-19T09:15:05.588Z</time>
      </trkpt>
      <trkpt lat="46.84232" lon="6.24088">
        <ele>1109</ele>
        <time>2016-06-19T09:15:07.588Z</time>
      </trkpt>
      <trkpt lat="46.8423" lon="6.24086">
        <ele>1109</ele>
        <time>2016-06-19T09:15:09.588Z</time>
      </trkpt>
      <trkpt lat="46.84227" lon="6.24081">
        <ele>1109</ele>
        <time>2016-06-19T09:15:11.588Z</time>
      </trkpt>
      <trkpt lat="46.84225" lon="6.24078">
        <ele>1109</ele>
        <time>2016-06-19T09:15:13.588Z</time>
      </trkpt>
      <trkpt lat="46.84223" lon="6.24077">
        <ele>1109</ele>
        <time>2016-06-19T09:15:14.588Z</time>
      </trkpt>
      <trkpt lat="46.84221" lon="6.24074">
        <ele>1109</ele>
        <time>2016-06-19T09:15:16.588Z</time>
      </trkpt>
      <trkpt lat="46.84218" lon="6.2407">
        <ele>1109</ele>
        <time>2016-06-19T09:15:18.588Z</time>
      </trkpt>
      <trkpt lat="46.84217" lon="6.24068">
        <ele>1109</ele>
        <time>2016-06-19T09:15:19.588Z</time>
      </trkpt>
      <trkpt lat="46.84216" lon="6.24066">
        <ele>1109</ele>
        <time>2016-06-19T09:15:20.588Z</time>
      </trkpt>
      <trkpt lat="46.84215" lon="6.24061">
        <ele>1106</ele>
        <time>2016-06-19T09:15:22.588Z</time>
      </trkpt>
      <trkpt lat="46.84214" lon="6.24059">
        <ele>1106</ele>
        <time>2016-06-19T09:15:23.588Z</time>
      </trkpt>
      <trkpt lat="46.84213" lon="6.24056">
        <ele>1106</ele>
        <time>2016-06-19T09:15:24.588Z</time>
      </trkpt>
      <trkpt lat="46.84212" lon="6.24053">
        <ele>1105.5420032</ele>
        <time>2016-06-19T09:15:25.588Z</time>
      </trkpt>
      <trkpt lat="46.84212" lon="6.24049">
        <ele>1105</ele>
        <time>2016-06-19T09:15:27.588Z</time>
      </trkpt>
      <trkpt lat="46.84211" lon="6.24045">
        <ele>1105</ele>
        <time>2016-06-19T09:15:29.588Z</time>
      </trkpt>
      <trkpt lat="46.8421" lon="6.24042">
        <ele>1104.5465237118</ele>
        <time>2016-06-19T09:15:30.588Z</time>
      </trkpt>
      <trkpt lat="46.84208" lon="6.24038">
        <ele>1104</ele>
        <time>2016-06-19T09:15:32.588Z</time>
      </trkpt>
      <trkpt lat="46.84203" lon="6.24029">
        <ele>1104</ele>
        <time>2016-06-19T09:15:39.588Z</time>
      </trkpt>
      <trkpt lat="46.84202" lon="6.24025">
        <ele>1104</ele>
        <time>2016-06-19T09:15:41.588Z</time>
      </trkpt>
      <trkpt lat="46.84201" lon="6.24021">
        <ele>1104</ele>
        <time>2016-06-19T09:15:43.588Z</time>
      </trkpt>
      <trkpt lat="46.84199" lon="6.24017">
        <ele>1103.5420032</ele>
        <time>2016-06-19T09:15:45.588Z</time>
      </trkpt>
      <trkpt lat="46.84198" lon="6.24013">
        <ele>1103</ele>
        <time>2016-06-19T09:15:47.588Z</time>
      </trkpt>
      <trkpt lat="46.84197" lon="6.2401">
        <ele>1103</ele>
        <time>2016-06-19T09:15:49.588Z</time>
      </trkpt>
      <trkpt lat="46.84194" lon="6.24008">
        <ele>1103</ele>
        <time>2016-06-19T09:15:51.588Z</time>
      </trkpt>
      <trkpt lat="46.84193" lon="6.24004">
        <ele>1103</ele>
        <time>2016-06-19T09:15:53.588Z</time>
      </trkpt>
      <trkpt lat="46.84191" lon="6.24002">
        <ele>1103.4579968</ele>
        <time>2016-06-19T09:15:55.588Z</time>
      </trkpt>
      <trkpt lat="46.8419" lon="6.24">
        <ele>1104</ele>
        <time>2016-06-19T09:15:57.588Z</time>
      </trkpt>
      <trkpt lat="46.84189" lon="6.23997">
        <ele>1104</ele>
        <time>2016-06-19T09:15:59.588Z</time>
      </trkpt>
      <trkpt lat="46.84187" lon="6.23994">
        <ele>1103</ele>
        <time>2016-06-19T09:16:01.588Z</time>
      </trkpt>
      <trkpt lat="46.84185" lon="6.23991">
        <ele>1103</ele>
        <time>2016-06-19T09:16:03.588Z</time>
      </trkpt>
      <trkpt lat="46.84183" lon="6.23988">
        <ele>1103</ele>
        <time>2016-06-19T09:16:05.588Z</time>
      </trkpt>
      <trkpt lat="46.84181" lon="6.23985">
        <ele>1103</ele>
        <time>2016-06-19T09:16:08.588Z</time>
      </trkpt>
      <trkpt lat="46.84181" lon="6.23981">
        <ele>1103</ele>
        <time>2016-06-19T09:16:10.588Z</time>
      </trkpt>
      <trkpt lat="46.84176" lon="6.2397">
        <ele>1103</ele>
        <time>2016-06-19T09:16:17.588Z</time>
      </trkpt>
      <trkpt lat="46.84171" lon="6.23959">
        <ele>1102</ele>
        <time>2016-06-19T09:16:22.588Z</time>
      </trkpt>
      <trkpt lat="46.84165" lon="6.23947">
        <ele>1102</ele>
        <time>2016-06-19T09:16:29.588Z</time>
      </trkpt>
      <trkpt lat="46.84157" lon="6.23938">
        <ele>1101</ele>
        <time>2016-06-19T09:16:35.588Z</time>
      </trkpt>
      <trkpt lat="46.84153" lon="6.23932">
        <ele>1101</ele>
        <time>2016-06-19T09:16:39.588Z</time>
      </trkpt>
      <trkpt lat="46.8415" lon="6.23927">
        <ele>1101</ele>
        <time>2016-06-19T09:16:42.588Z</time>
      </trkpt>
      <trkpt lat="46.84148" lon="6.23923">
        <ele>1101</ele>
        <time>2016-06-19T09:16:44.588Z</time>
      </trkpt>
      <trkpt lat="46.84146" lon="6.23921">
        <ele>1101</ele>
        <time>2016-06-19T09:16:46.588Z</time>
      </trkpt>
      <trkpt lat="46.84143" lon="6.23919">
        <ele>1101</ele>
        <time>2016-06-19T09:16:48.588Z</time>
      </trkpt>
      <trkpt lat="46.8414" lon="6.23918">
        <ele>1100.6530230303</ele>
        <time>2016-06-19T09:16:50.588Z</time>
      </trkpt>
      <trkpt lat="46.84137" lon="6.23917">
        <ele>1100</ele>
        <time>2016-06-19T09:16:52.588Z</time>
      </trkpt>
      <trkpt lat="46.84135" lon="6.23916">
        <ele>1100</ele>
        <time>2016-06-19T09:16:54.588Z</time>
      </trkpt>
      <trkpt lat="46.84133" lon="6.23914">
        <ele>1100</ele>
        <time>2016-06-19T09:16:56.588Z</time>
      </trkpt>
      <trkpt lat="46.84132" lon="6.23911">
        <ele>1100</ele>
        <time>2016-06-19T09:16:58.588Z</time>
      </trkpt>
      <trkpt lat="46.8413" lon="6.23908">
        <ele>1099.5419904</ele>
        <time>2016-06-19T09:17:00.588Z</time>
      </trkpt>
      <trkpt lat="46.84128" lon="6.23906">
        <ele>1099</ele>
        <time>2016-06-19T09:17:02.588Z</time>
      </trkpt>
      <trkpt lat="46.84126" lon="6.23905">
        <ele>1099</ele>
        <time>2016-06-19T09:17:04.588Z</time>
      </trkpt>
      <trkpt lat="46.84123" lon="6.23906">
        <ele>1099</ele>
        <time>2016-06-19T09:17:06.588Z</time>
      </trkpt>
      <trkpt lat="46.84121" lon="6.23905">
        <ele>1099</ele>
        <time>2016-06-19T09:17:08.588Z</time>
      </trkpt>
      <trkpt lat="46.84117" lon="6.23902">
        <ele>1099</ele>
        <time>2016-06-19T09:17:10.588Z</time>
      </trkpt>
      <trkpt lat="46.84115" lon="6.23901">
        <ele>1099</ele>
        <time>2016-06-19T09:17:12.588Z</time>
      </trkpt>
      <trkpt lat="46.84112" lon="6.239">
        <ele>1099</ele>
        <time>2016-06-19T09:17:14.588Z</time>
      </trkpt>
      <trkpt lat="46.8411" lon="6.23899">
        <ele>1099</ele>
        <time>2016-06-19T09:17:16.588Z</time>
      </trkpt>
      <trkpt lat="46.84108" lon="6.23898">
        <ele>1099</ele>
        <time>2016-06-19T09:17:18.588Z</time>
      </trkpt>
      <trkpt lat="46.84105" lon="6.23897">
        <ele>1099</ele>
        <time>2016-06-19T09:17:20.588Z</time>
      </trkpt>
      <trkpt lat="46.84103" lon="6.23897">
        <ele>1099</ele>
        <time>2016-06-19T09:17:22.588Z</time>
      </trkpt>
      <trkpt lat="46.841" lon="6.23896">
        <ele>1099</ele>
        <time>2016-06-19T09:17:24.588Z</time>
      </trkpt>
      <trkpt lat="46.84098" lon="6.23897">
        <ele>1099</ele>
        <time>2016-06-19T09:17:26.588Z</time>
      </trkpt>
      <trkpt lat="46.84094" lon="6.23896">
        <ele>1099</ele>
        <time>2016-06-19T09:17:28.588Z</time>
      </trkpt>
      <trkpt lat="46.84092" lon="6.23896">
        <ele>1099.4534762882</ele>
        <time>2016-06-19T09:17:30.588Z</time>
      </trkpt>
      <trkpt lat="46.84085" lon="6.23896">
        <ele>1101</ele>
        <time>2016-06-19T09:17:46.588Z</time>
      </trkpt>
      <trkpt lat="46.8409" lon="6.23893">
        <ele>1100</ele>
        <time>2016-06-19T09:18:10.588Z</time>
      </trkpt>
      <trkpt lat="46.84092" lon="6.23892">
        <ele>1100</ele>
        <time>2016-06-19T09:18:12.588Z</time>
      </trkpt>
      <trkpt lat="46.84095" lon="6.23889">
        <ele>1100</ele>
        <time>2016-06-19T09:18:14.588Z</time>
      </trkpt>
      <trkpt lat="46.84097" lon="6.23886">
        <ele>1100</ele>
        <time>2016-06-19T09:18:16.588Z</time>
      </trkpt>
      <trkpt lat="46.84099" lon="6.23884">
        <ele>1100</ele>
        <time>2016-06-19T09:18:17.588Z</time>
      </trkpt>
      <trkpt lat="46.84102" lon="6.23881">
        <ele>1100</ele>
        <time>2016-06-19T09:18:19.588Z</time>
      </trkpt>
      <trkpt lat="46.84104" lon="6.23879">
        <ele>1099.1061100807</ele>
        <time>2016-06-19T09:18:20.588Z</time>
      </trkpt>
      <trkpt lat="46.84106" lon="6.23877">
        <ele>1098</ele>
        <time>2016-06-19T09:18:21.588Z</time>
      </trkpt>
      <trkpt lat="46.84109" lon="6.23875">
        <ele>1098</ele>
        <time>2016-06-19T09:18:23.588Z</time>
      </trkpt>
      <trkpt lat="46.84111" lon="6.23875">
        <ele>1098</ele>
        <time>2016-06-19T09:18:24.588Z</time>
      </trkpt>
      <trkpt lat="46.84113" lon="6.23873">
        <ele>1098</ele>
        <time>2016-06-19T09:18:25.588Z</time>
      </trkpt>
      <trkpt lat="46.84115" lon="6.23872">
        <ele>1098</ele>
        <time>2016-06-19T09:18:26.588Z</time>
      </trkpt>
      <trkpt lat="46.84117" lon="6.2387">
        <ele>1098</ele>
        <time>2016-06-19T09:18:27.588Z</time>
      </trkpt>
      <trkpt lat="46.8412" lon="6.23869">
        <ele>1098</ele>
        <time>2016-06-19T09:18:28.588Z</time>
      </trkpt>
      <trkpt lat="46.84122" lon="6.23868">
        <ele>1098</ele>
        <time>2016-06-19T09:18:29.588Z</time>
      </trkpt>
      <trkpt lat="46.84124" lon="6.23867">
        <ele>1098</ele>
        <time>2016-06-19T09:18:30.588Z</time>
      </trkpt>
      <trkpt lat="46.84127" lon="6.23867">
        <ele>1096</ele>
        <time>2016-06-19T09:18:32.588Z</time>
      </trkpt>
      <trkpt lat="46.8413" lon="6.23867">
        <ele>1096</ele>
        <time>2016-06-19T09:18:34.588Z</time>
      </trkpt>
      <trkpt lat="46.84132" lon="6.23868">
        <ele>1095.5420032</ele>
        <time>2016-06-19T09:18:35.588Z</time>
      </trkpt>
      <trkpt lat="46.84134" lon="6.23868">
        <ele>1095</ele>
        <time>2016-06-19T09:18:36.588Z</time>
      </trkpt>
      <trkpt lat="46.84136" lon="6.23868">
        <ele>1095</ele>
        <time>2016-06-19T09:18:37.588Z</time>
      </trkpt>
      <trkpt lat="46.84138" lon="6.23867">
        <ele>1095</ele>
        <time>2016-06-19T09:18:39.588Z</time>
      </trkpt>
      <trkpt lat="46.8414" lon="6.23867">
        <ele>1094.0839808</ele>
        <time>2016-06-19T09:18:40.588Z</time>
      </trkpt>
      <trkpt lat="46.84142" lon="6.23867">
        <ele>1093</ele>
        <time>2016-06-19T09:18:41.588Z</time>
      </trkpt>
      <trkpt lat="46.84146" lon="6.23865">
        <ele>1093</ele>
        <time>2016-06-19T09:18:43.588Z</time>
      </trkpt>
      <trkpt lat="46.84149" lon="6.23865">
        <ele>1093</ele>
        <time>2016-06-19T09:18:44.588Z</time>
      </trkpt>
      <trkpt lat="46.84152" lon="6.23865">
        <ele>1091</ele>
        <time>2016-06-19T09:18:46.588Z</time>
      </trkpt>
      <trkpt lat="46.84155" lon="6.23864">
        <ele>1091</ele>
        <time>2016-06-19T09:18:48.588Z</time>
      </trkpt>
      <trkpt lat="46.84159" lon="6.23863">
        <ele>1090.5419904</ele>
        <time>2016-06-19T09:18:50.588Z</time>
      </trkpt>
      <trkpt lat="46.84161" lon="6.23862">
        <ele>1090</ele>
        <time>2016-06-19T09:18:51.588Z</time>
      </trkpt>
      <trkpt lat="46.84163" lon="6.23862">
        <ele>1090</ele>
        <time>2016-06-19T09:18:52.588Z</time>
      </trkpt>
      <trkpt lat="46.84165" lon="6.23861">
        <ele>1090</ele>
        <time>2016-06-19T09:18:53.588Z</time>
      </trkpt>
      <trkpt lat="46.84167" lon="6.23861">
        <ele>1090</ele>
        <time>2016-06-19T09:18:54.588Z</time>
      </trkpt>
      <trkpt lat="46.8417" lon="6.23861">
        <ele>1089.785515527</ele>
        <time>2016-06-19T09:18:55.588Z</time>
      </trkpt>
      <trkpt lat="46.84172" lon="6.2386">
        <ele>1089</ele>
        <time>2016-06-19T09:18:56.588Z</time>
      </trkpt>
      <trkpt lat="46.84175" lon="6.23857">
        <ele>1089</ele>
        <time>2016-06-19T09:18:58.588Z</time>
      </trkpt>
      <trkpt lat="46.84177" lon="6.23856">
        <ele>1089</ele>
        <time>2016-06-19T09:18:59.588Z</time>
      </trkpt>
      <trkpt lat="46.8418" lon="6.23853">
        <ele>1086</ele>
        <time>2016-06-19T09:19:01.588Z</time>
      </trkpt>
      <trkpt lat="46.84183" lon="6.23851">
        <ele>1086</ele>
        <time>2016-06-19T09:19:03.588Z</time>
      </trkpt>
      <trkpt lat="46.84185" lon="6.23849">
        <ele>1086</ele>
        <time>2016-06-19T09:19:05.588Z</time>
      </trkpt>
      <trkpt lat="46.84188" lon="6.23846">
        <ele>1086</ele>
        <time>2016-06-19T09:19:07.588Z</time>
      </trkpt>
      <trkpt lat="46.84191" lon="6.23845">
        <ele>1086</ele>
        <time>2016-06-19T09:19:09.588Z</time>
      </trkpt>
      <trkpt lat="46.84192" lon="6.23843">
        <ele>1084.6259712</ele>
        <time>2016-06-19T09:19:10.588Z</time>
      </trkpt>
      <trkpt lat="46.84195" lon="6.23841">
        <ele>1081</ele>
        <time>2016-06-19T09:19:12.588Z</time>
      </trkpt>
      <trkpt lat="46.84197" lon="6.23839">
        <ele>1081</ele>
        <time>2016-06-19T09:19:14.588Z</time>
      </trkpt>
      <trkpt lat="46.842" lon="6.23838">
        <ele>1080.5509737978</ele>
        <time>2016-06-19T09:19:16.588Z</time>
      </trkpt>
      <trkpt lat="46.84203" lon="6.23838">
        <ele>1081</ele>
        <time>2016-06-19T09:19:18.588Z</time>
      </trkpt>
      <trkpt lat="46.84205" lon="6.23837">
        <ele>1080.5420032</ele>
        <time>2016-06-19T09:19:19.588Z</time>
      </trkpt>
      <trkpt lat="46.84207" lon="6.23837">
        <ele>1080</ele>
        <time>2016-06-19T09:19:20.588Z</time>
      </trkpt>
      <trkpt lat="46.84209" lon="6.23836">
        <ele>1080</ele>
        <time>2016-06-19T09:19:21.588Z</time>
      </trkpt>
      <trkpt lat="46.84211" lon="6.23836">
        <ele>1080</ele>
        <time>2016-06-19T09:19:22.588Z</time>
      </trkpt>
      <trkpt lat="46.84213" lon="6.23836">
        <ele>1080</ele>
        <time>2016-06-19T09:19:23.588Z</time>
      </trkpt>
      <trkpt lat="46.84215" lon="6.23836">
        <ele>1080</ele>
        <time>2016-06-19T09:19:24.588Z</time>
      </trkpt>
      <trkpt lat="46.84217" lon="6.23837">
        <ele>1079.6530327273</ele>
        <time>2016-06-19T09:19:25.588Z</time>
      </trkpt>
      <trkpt lat="46.8422" lon="6.23837">
        <ele>1079</ele>
        <time>2016-06-19T09:19:27.588Z</time>
      </trkpt>
      <trkpt lat="46.84222" lon="6.23838">
        <ele>1079</ele>
        <time>2016-06-19T09:19:28.588Z</time>
      </trkpt>
      <trkpt lat="46.84226" lon="6.23837">
        <ele>1078.0839808</ele>
        <time>2016-06-19T09:19:30.588Z</time>
      </trkpt>
      <trkpt lat="46.8423" lon="6.23838">
        <ele>1077</ele>
        <time>2016-06-19T09:19:32.588Z</time>
      </trkpt>
      <trkpt lat="46.84233" lon="6.23838">
        <ele>1077</ele>
        <time>2016-06-19T09:19:34.588Z</time>
      </trkpt>
      <trkpt lat="46.84235" lon="6.23839">
        <ele>1076.5420032</ele>
        <time>2016-06-19T09:19:35.588Z</time>
      </trkpt>
      <trkpt lat="46.84237" lon="6.23839">
        <ele>1076</ele>
        <time>2016-06-19T09:19:36.588Z</time>
      </trkpt>
      <trkpt lat="46.8424" lon="6.2384">
        <ele>1076</ele>
        <time>2016-06-19T09:19:37.588Z</time>
      </trkpt>
      <trkpt lat="46.84242" lon="6.23841">
        <ele>1076</ele>
        <time>2016-06-19T09:19:38.588Z</time>
      </trkpt>
      <trkpt lat="46.84245" lon="6.23843">
        <ele>1076</ele>
        <time>2016-06-19T09:19:40.588Z</time>
      </trkpt>
      <trkpt lat="46.84247" lon="6.23844">
        <ele>1076</ele>
        <time>2016-06-19T09:19:41.588Z</time>
      </trkpt>
      <trkpt lat="46.84249" lon="6.23845">
        <ele>1076</ele>
        <time>2016-06-19T09:19:42.588Z</time>
      </trkpt>
      <trkpt lat="46.84251" lon="6.23847">
        <ele>1076</ele>
        <time>2016-06-19T09:19:43.588Z</time>
      </trkpt>
      <trkpt lat="46.84254" lon="6.23848">
        <ele>1076</ele>
        <time>2016-06-19T09:19:44.588Z</time>
      </trkpt>
      <trkpt lat="46.84256" lon="6.23849">
        <ele>1076</ele>
        <time>2016-06-19T09:19:45.588Z</time>
      </trkpt>
      <trkpt lat="46.84257" lon="6.2385">
        <ele>1076</ele>
        <time>2016-06-19T09:19:46.588Z</time>
      </trkpt>
      <trkpt lat="46.84261" lon="6.23852">
        <ele>1076</ele>
        <time>2016-06-19T09:19:48.588Z</time>
      </trkpt>
      <trkpt lat="46.84263" lon="6.23852">
        <ele>1076</ele>
        <time>2016-06-19T09:19:49.588Z</time>
      </trkpt>
      <trkpt lat="46.84266" lon="6.23854">
        <ele>1073</ele>
        <time>2016-06-19T09:19:51.588Z</time>
      </trkpt>
      <trkpt lat="46.84268" lon="6.23856">
        <ele>1073</ele>
        <time>2016-06-19T09:19:52.588Z</time>
      </trkpt>
      <trkpt lat="46.84271" lon="6.23858">
        <ele>1073</ele>
        <time>2016-06-19T09:19:54.588Z</time>
      </trkpt>
      <trkpt lat="46.84272" lon="6.2386">
        <ele>1072.0840064</ele>
        <time>2016-06-19T09:19:55.588Z</time>
      </trkpt>
      <trkpt lat="46.84274" lon="6.23862">
        <ele>1071</ele>
        <time>2016-06-19T09:19:56.588Z</time>
      </trkpt>
      <trkpt lat="46.84275" lon="6.23863">
        <ele>1071</ele>
        <time>2016-06-19T09:19:57.588Z</time>
      </trkpt>
      <trkpt lat="46.84277" lon="6.23866">
        <ele>1071</ele>
        <time>2016-06-19T09:19:58.588Z</time>
      </trkpt>
      <trkpt lat="46.84279" lon="6.23868">
        <ele>1071</ele>
        <time>2016-06-19T09:19:59.588Z</time>
      </trkpt>
      <trkpt lat="46.84282" lon="6.23869">
        <ele>1070.0839808</ele>
        <time>2016-06-19T09:20:00.588Z</time>
      </trkpt>
      <trkpt lat="46.84284" lon="6.2387">
        <ele>1069</ele>
        <time>2016-06-19T09:20:01.588Z</time>
      </trkpt>
      <trkpt lat="46.84285" lon="6.23872">
        <ele>1069</ele>
        <time>2016-06-19T09:20:02.588Z</time>
      </trkpt>
      <trkpt lat="46.84287" lon="6.23875">
        <ele>1069</ele>
        <time>2016-06-19T09:20:03.588Z</time>
      </trkpt>
      <trkpt lat="46.84289" lon="6.23877">
        <ele>1069</ele>
        <time>2016-06-19T09:20:04.588Z</time>
      </trkpt>
      <trkpt lat="46.84296" lon="6.23888">
        <ele>1069</ele>
        <time>2016-06-19T09:20:09.588Z</time>
      </trkpt>
      <trkpt lat="46.84302" lon="6.23898">
        <ele>1068</ele>
        <time>2016-06-19T09:20:14.588Z</time>
      </trkpt>
      <trkpt lat="46.84309" lon="6.23908">
        <ele>1068</ele>
        <time>2016-06-19T09:20:19.588Z</time>
      </trkpt>
      <trkpt lat="46.84318" lon="6.23916">
        <ele>1068</ele>
        <time>2016-06-19T09:20:25.588Z</time>
      </trkpt>
      <trkpt lat="46.84326" lon="6.23926">
        <ele>1067.1061100807</ele>
        <time>2016-06-19T09:20:30.588Z</time>
      </trkpt>
      <trkpt lat="46.84334" lon="6.23931">
        <ele>1066</ele>
        <time>2016-06-19T09:20:35.588Z</time>
      </trkpt>
      <trkpt lat="46.84343" lon="6.23936">
        <ele>1065.5553318669</ele>
        <time>2016-06-19T09:20:40.588Z</time>
      </trkpt>
      <trkpt lat="46.84351" lon="6.23939">
        <ele>1065</ele>
        <time>2016-06-19T09:20:46.588Z</time>
      </trkpt>
      <trkpt lat="46.84353" lon="6.2394">
        <ele>1065</ele>
        <time>2016-06-19T09:20:47.588Z</time>
      </trkpt>
      <trkpt lat="46.84356" lon="6.2394">
        <ele>1065</ele>
        <time>2016-06-19T09:20:49.588Z</time>
      </trkpt>
      <trkpt lat="46.8436" lon="6.23943">
        <ele>1063</ele>
        <time>2016-06-19T09:20:52.588Z</time>
      </trkpt>
      <trkpt lat="46.84367" lon="6.23947">
        <ele>1063</ele>
        <time>2016-06-19T09:20:56.588Z</time>
      </trkpt>
      <trkpt lat="46.84368" lon="6.23948">
        <ele>1063</ele>
        <time>2016-06-19T09:20:57.588Z</time>
      </trkpt>
      <trkpt lat="46.84376" lon="6.23951">
        <ele>1060</ele>
        <time>2016-06-19T09:21:01.588Z</time>
      </trkpt>
      <trkpt lat="46.84378" lon="6.23952">
        <ele>1060</ele>
        <time>2016-06-19T09:21:02.588Z</time>
      </trkpt>
      <trkpt lat="46.8438" lon="6.23952">
        <ele>1060</ele>
        <time>2016-06-19T09:21:03.588Z</time>
      </trkpt>
      <trkpt lat="46.84383" lon="6.23953">
        <ele>1060</ele>
        <time>2016-06-19T09:21:05.588Z</time>
      </trkpt>
      <trkpt lat="46.84387" lon="6.23954">
        <ele>1060</ele>
        <time>2016-06-19T09:21:07.588Z</time>
      </trkpt>
      <trkpt lat="46.8439" lon="6.23954">
        <ele>1060</ele>
        <time>2016-06-19T09:21:08.588Z</time>
      </trkpt>
      <trkpt lat="46.84394" lon="6.23955">
        <ele>1059.5419904</ele>
        <time>2016-06-19T09:21:10.588Z</time>
      </trkpt>
      <trkpt lat="46.84404" lon="6.23958">
        <ele>1059</ele>
        <time>2016-06-19T09:21:15.588Z</time>
      </trkpt>
      <trkpt lat="46.84406" lon="6.23959">
        <ele>1059</ele>
        <time>2016-06-19T09:21:16.588Z</time>
      </trkpt>
      <trkpt lat="46.84409" lon="6.2396">
        <ele>1059</ele>
        <time>2016-06-19T09:21:18.588Z</time>
      </trkpt>
      <trkpt lat="46.84412" lon="6.2396">
        <ele>1058.5940894118</ele>
        <time>2016-06-19T09:21:20.588Z</time>
      </trkpt>
      <trkpt lat="46.84415" lon="6.23959">
        <ele>1057</ele>
        <time>2016-06-19T09:21:22.588Z</time>
      </trkpt>
      <trkpt lat="46.84417" lon="6.23959">
        <ele>1057</ele>
        <time>2016-06-19T09:21:24.588Z</time>
      </trkpt>
      <trkpt lat="46.84421" lon="6.23959">
        <ele>1057</ele>
        <time>2016-06-19T09:21:26.588Z</time>
      </trkpt>
      <trkpt lat="46.84423" lon="6.23957">
        <ele>1057</ele>
        <time>2016-06-19T09:21:28.588Z</time>
      </trkpt>
      <trkpt lat="46.84427" lon="6.23956">
        <ele>1056.5419904</ele>
        <time>2016-06-19T09:21:30.588Z</time>
      </trkpt>
      <trkpt lat="46.8443" lon="6.23954">
        <ele>1056</ele>
        <time>2016-06-19T09:21:32.588Z</time>
      </trkpt>
      <trkpt lat="46.84433" lon="6.23952">
        <ele>1056</ele>
        <time>2016-06-19T09:21:34.588Z</time>
      </trkpt>
      <trkpt lat="46.84435" lon="6.23949">
        <ele>1056</ele>
        <time>2016-06-19T09:21:36.588Z</time>
      </trkpt>
      <trkpt lat="46.84437" lon="6.23947">
        <ele>1056</ele>
        <time>2016-06-19T09:21:37.588Z</time>
      </trkpt>
      <trkpt lat="46.8444" lon="6.23943">
        <ele>1056</ele>
        <time>2016-06-19T09:21:39.588Z</time>
      </trkpt>
      <trkpt lat="46.84443" lon="6.23939">
        <ele>1054.6260096</ele>
        <time>2016-06-19T09:21:41.588Z</time>
      </trkpt>
      <trkpt lat="46.84445" lon="6.23937">
        <ele>1053</ele>
        <time>2016-06-19T09:21:42.588Z</time>
      </trkpt>
      <trkpt lat="46.84446" lon="6.23935">
        <ele>1053</ele>
        <time>2016-06-19T09:21:43.588Z</time>
      </trkpt>
      <trkpt lat="46.84447" lon="6.23933">
        <ele>1053</ele>
        <time>2016-06-19T09:21:44.588Z</time>
      </trkpt>
      <trkpt lat="46.84449" lon="6.2393">
        <ele>1052.5420032</ele>
        <time>2016-06-19T09:21:45.588Z</time>
      </trkpt>
      <trkpt lat="46.8445" lon="6.23928">
        <ele>1052</ele>
        <time>2016-06-19T09:21:46.588Z</time>
      </trkpt>
      <trkpt lat="46.84452" lon="6.23925">
        <ele>1052</ele>
        <time>2016-06-19T09:21:48.588Z</time>
      </trkpt>
      <trkpt lat="46.84453" lon="6.23922">
        <ele>1052</ele>
        <time>2016-06-19T09:21:49.588Z</time>
      </trkpt>
      <trkpt lat="46.84454" lon="6.2392">
        <ele>1052</ele>
        <time>2016-06-19T09:21:50.588Z</time>
      </trkpt>
      <trkpt lat="46.84455" lon="6.23915">
        <ele>1052</ele>
        <time>2016-06-19T09:21:52.588Z</time>
      </trkpt>
      <trkpt lat="46.84457" lon="6.23913">
        <ele>1052</ele>
        <time>2016-06-19T09:21:53.588Z</time>
      </trkpt>
      <trkpt lat="46.84458" lon="6.23911">
        <ele>1052</ele>
        <time>2016-06-19T09:21:54.588Z</time>
      </trkpt>
      <trkpt lat="46.84459" lon="6.23909">
        <ele>1051.5420032</ele>
        <time>2016-06-19T09:21:55.588Z</time>
      </trkpt>
      <trkpt lat="46.84461" lon="6.23904">
        <ele>1051</ele>
        <time>2016-06-19T09:21:57.588Z</time>
      </trkpt>
      <trkpt lat="46.84461" lon="6.23901">
        <ele>1051</ele>
        <time>2016-06-19T09:21:58.588Z</time>
      </trkpt>
      <trkpt lat="46.84463" lon="6.23897">
        <ele>1050.0839808</ele>
        <time>2016-06-19T09:22:00.588Z</time>
      </trkpt>
      <trkpt lat="46.84464" lon="6.23895">
        <ele>1049</ele>
        <time>2016-06-19T09:22:01.588Z</time>
      </trkpt>
      <trkpt lat="46.84465" lon="6.2389">
        <ele>1049</ele>
        <time>2016-06-19T09:22:03.588Z</time>
      </trkpt>
      <trkpt lat="46.84466" lon="6.23887">
        <ele>1049</ele>
        <time>2016-06-19T09:22:04.588Z</time>
      </trkpt>
      <trkpt lat="46.84467" lon="6.23885">
        <ele>1049</ele>
        <time>2016-06-19T09:22:05.588Z</time>
      </trkpt>
      <trkpt lat="46.84469" lon="6.23883">
        <ele>1049</ele>
        <time>2016-06-19T09:22:06.588Z</time>
      </trkpt>
      <trkpt lat="46.84471" lon="6.23881">
        <ele>1049</ele>
        <time>2016-06-19T09:22:07.588Z</time>
      </trkpt>
      <trkpt lat="46.84474" lon="6.23874">
        <ele>1048.6556310511</ele>
        <time>2016-06-19T09:22:10.588Z</time>
      </trkpt>
      <trkpt lat="46.84476" lon="6.23871">
        <ele>1048</ele>
        <time>2016-06-19T09:22:12.588Z</time>
      </trkpt>
      <trkpt lat="46.84479" lon="6.23869">
        <ele>1048</ele>
        <time>2016-06-19T09:22:14.588Z</time>
      </trkpt>
      <trkpt lat="46.84488" lon="6.23867">
        <ele>1045.5419904</ele>
        <time>2016-06-19T09:22:20.588Z</time>
      </trkpt>
      <trkpt lat="46.84497" lon="6.23864">
        <ele>1045</ele>
        <time>2016-06-19T09:22:24.588Z</time>
      </trkpt>
      <trkpt lat="46.84503" lon="6.23862">
        <ele>1046</ele>
        <time>2016-06-19T09:22:27.588Z</time>
      </trkpt>
      <trkpt lat="46.84507" lon="6.2386">
        <ele>1046</ele>
        <time>2016-06-19T09:22:30.588Z</time>
      </trkpt>
      <trkpt lat="46.84515" lon="6.23858">
        <ele>1046</ele>
        <time>2016-06-19T09:22:33.588Z</time>
      </trkpt>
      <trkpt lat="46.84518" lon="6.23857">
        <ele>1046</ele>
        <time>2016-06-19T09:22:34.588Z</time>
      </trkpt>
      <trkpt lat="46.8452" lon="6.23857">
        <ele>1046</ele>
        <time>2016-06-19T09:22:35.588Z</time>
      </trkpt>
      <trkpt lat="46.84523" lon="6.23855">
        <ele>1046</ele>
        <time>2016-06-19T09:22:37.588Z</time>
      </trkpt>
      <trkpt lat="46.84527" lon="6.23854">
        <ele>1046</ele>
        <time>2016-06-19T09:22:39.588Z</time>
      </trkpt>
      <trkpt lat="46.8453" lon="6.23852">
        <ele>1044</ele>
        <time>2016-06-19T09:22:41.588Z</time>
      </trkpt>
      <trkpt lat="46.84532" lon="6.23851">
        <ele>1044</ele>
        <time>2016-06-19T09:22:42.588Z</time>
      </trkpt>
      <trkpt lat="46.84533" lon="6.23849">
        <ele>1044</ele>
        <time>2016-06-19T09:22:43.588Z</time>
      </trkpt>
      <trkpt lat="46.84537" lon="6.23848">
        <ele>1044</ele>
        <time>2016-06-19T09:22:45.588Z</time>
      </trkpt>
      <trkpt lat="46.84538" lon="6.23846">
        <ele>1044</ele>
        <time>2016-06-19T09:22:46.588Z</time>
      </trkpt>
      <trkpt lat="46.84541" lon="6.23846">
        <ele>1044</ele>
        <time>2016-06-19T09:22:47.588Z</time>
      </trkpt>
      <trkpt lat="46.84543" lon="6.23846">
        <ele>1044</ele>
        <time>2016-06-19T09:22:48.588Z</time>
      </trkpt>
      <trkpt lat="46.84546" lon="6.23844">
        <ele>1042.6259712</ele>
        <time>2016-06-19T09:22:50.588Z</time>
      </trkpt>
      <trkpt lat="46.84549" lon="6.23844">
        <ele>1041</ele>
        <time>2016-06-19T09:22:52.588Z</time>
      </trkpt>
      <trkpt lat="46.84552" lon="6.23845">
        <ele>1041</ele>
        <time>2016-06-19T09:22:53.588Z</time>
      </trkpt>
      <trkpt lat="46.84554" lon="6.23846">
        <ele>1041</ele>
        <time>2016-06-19T09:22:54.588Z</time>
      </trkpt>
      <trkpt lat="46.84556" lon="6.23847">
        <ele>1040.7440032768</ele>
        <time>2016-06-19T09:22:55.588Z</time>
      </trkpt>
      <trkpt lat="46.84558" lon="6.23847">
        <ele>1039</ele>
        <time>2016-06-19T09:22:56.588Z</time>
      </trkpt>
      <trkpt lat="46.84561" lon="6.23847">
        <ele>1039</ele>
        <time>2016-06-19T09:22:57.588Z</time>
      </trkpt>
      <trkpt lat="46.84564" lon="6.23848">
        <ele>1039</ele>
        <time>2016-06-19T09:22:59.588Z</time>
      </trkpt>
      <trkpt lat="46.84567" lon="6.2385">
        <ele>1037</ele>
        <time>2016-06-19T09:23:01.588Z</time>
      </trkpt>
      <trkpt lat="46.84572" lon="6.23853">
        <ele>1037</ele>
        <time>2016-06-19T09:23:03.588Z</time>
      </trkpt>
      <trkpt lat="46.84574" lon="6.23855">
        <ele>1037</ele>
        <time>2016-06-19T09:23:04.588Z</time>
      </trkpt>
      <trkpt lat="46.84575" lon="6.23857">
        <ele>1037</ele>
        <time>2016-06-19T09:23:05.588Z</time>
      </trkpt>
      <trkpt lat="46.84577" lon="6.23858">
        <ele>1037</ele>
        <time>2016-06-19T09:23:06.588Z</time>
      </trkpt>
      <trkpt lat="46.84584" lon="6.23861">
        <ele>1037</ele>
        <time>2016-06-19T09:23:09.588Z</time>
      </trkpt>
      <trkpt lat="46.84586" lon="6.23862">
        <ele>1037</ele>
        <time>2016-06-19T09:23:10.588Z</time>
      </trkpt>
      <trkpt lat="46.84589" lon="6.23863">
        <ele>1037</ele>
        <time>2016-06-19T09:23:11.588Z</time>
      </trkpt>
      <trkpt lat="46.84593" lon="6.23867">
        <ele>1037</ele>
        <time>2016-06-19T09:23:13.588Z</time>
      </trkpt>
      <trkpt lat="46.84602" lon="6.23877">
        <ele>1037</ele>
        <time>2016-06-19T09:23:17.588Z</time>
      </trkpt>
      <trkpt lat="46.84606" lon="6.23881">
        <ele>1037</ele>
        <time>2016-06-19T09:23:19.588Z</time>
      </trkpt>
      <trkpt lat="46.84608" lon="6.23884">
        <ele>1035</ele>
        <time>2016-06-19T09:23:21.588Z</time>
      </trkpt>
      <trkpt lat="46.84611" lon="6.23888">
        <ele>1035</ele>
        <time>2016-06-19T09:23:24.588Z</time>
      </trkpt>
      <trkpt lat="46.84614" lon="6.23892">
        <ele>1035</ele>
        <time>2016-06-19T09:23:26.588Z</time>
      </trkpt>
      <trkpt lat="46.84616" lon="6.23893">
        <ele>1035</ele>
        <time>2016-06-19T09:23:27.588Z</time>
      </trkpt>
      <trkpt lat="46.8462" lon="6.23894">
        <ele>1035</ele>
        <time>2016-06-19T09:23:29.588Z</time>
      </trkpt>
      <trkpt lat="46.84623" lon="6.23895">
        <ele>1034</ele>
        <time>2016-06-19T09:23:31.588Z</time>
      </trkpt>
      <trkpt lat="46.84632" lon="6.23897">
        <ele>1034</ele>
        <time>2016-06-19T09:23:36.588Z</time>
      </trkpt>
      <trkpt lat="46.84634" lon="6.23896">
        <ele>1034</ele>
        <time>2016-06-19T09:23:37.588Z</time>
      </trkpt>
      <trkpt lat="46.84636" lon="6.23896">
        <ele>1034</ele>
        <time>2016-06-19T09:23:38.588Z</time>
      </trkpt>
      <trkpt lat="46.84638" lon="6.23896">
        <ele>1034</ele>
        <time>2016-06-19T09:23:39.588Z</time>
      </trkpt>
      <trkpt lat="46.8464" lon="6.23895">
        <ele>1032.6259712</ele>
        <time>2016-06-19T09:23:40.588Z</time>
      </trkpt>
      <trkpt lat="46.84642" lon="6.23894">
        <ele>1031</ele>
        <time>2016-06-19T09:23:41.588Z</time>
      </trkpt>
      <trkpt lat="46.84644" lon="6.23892">
        <ele>1031</ele>
        <time>2016-06-19T09:23:43.588Z</time>
      </trkpt>
      <trkpt lat="46.84647" lon="6.23891">
        <ele>1030.0840064</ele>
        <time>2016-06-19T09:23:45.588Z</time>
      </trkpt>
      <trkpt lat="46.84653" lon="6.23887">
        <ele>1029</ele>
        <time>2016-06-19T09:23:49.588Z</time>
      </trkpt>
      <trkpt lat="46.84655" lon="6.23884">
        <ele>1028</ele>
        <time>2016-06-19T09:23:51.588Z</time>
      </trkpt>
      <trkpt lat="46.84659" lon="6.23881">
        <ele>1028</ele>
        <time>2016-06-19T09:23:53.588Z</time>
      </trkpt>
      <trkpt lat="46.84661" lon="6.23879">
        <ele>1027.0840064</ele>
        <time>2016-06-19T09:23:55.588Z</time>
      </trkpt>
      <trkpt lat="46.84664" lon="6.23876">
        <ele>1026</ele>
        <time>2016-06-19T09:23:57.588Z</time>
      </trkpt>
      <trkpt lat="46.84666" lon="6.23875">
        <ele>1026</ele>
        <time>2016-06-19T09:23:58.588Z</time>
      </trkpt>
      <trkpt lat="46.84668" lon="6.23872">
        <ele>1026</ele>
        <time>2016-06-19T09:23:59.588Z</time>
      </trkpt>
      <trkpt lat="46.8467" lon="6.23871">
        <ele>1025.5419904</ele>
        <time>2016-06-19T09:24:00.588Z</time>
      </trkpt>
      <trkpt lat="46.84672" lon="6.2387">
        <ele>1025</ele>
        <time>2016-06-19T09:24:01.588Z</time>
      </trkpt>
      <trkpt lat="46.84673" lon="6.23868">
        <ele>1025</ele>
        <time>2016-06-19T09:24:02.588Z</time>
      </trkpt>
      <trkpt lat="46.84675" lon="6.23866">
        <ele>1025</ele>
        <time>2016-06-19T09:24:03.588Z</time>
      </trkpt>
      <trkpt lat="46.84678" lon="6.23865">
        <ele>1025</ele>
        <time>2016-06-19T09:24:04.588Z</time>
      </trkpt>
      <trkpt lat="46.8468" lon="6.23864">
        <ele>1024.5420032</ele>
        <time>2016-06-19T09:24:05.588Z</time>
      </trkpt>
      <trkpt lat="46.84681" lon="6.23862">
        <ele>1024</ele>
        <time>2016-06-19T09:24:06.588Z</time>
      </trkpt>
      <trkpt lat="46.84683" lon="6.2386">
        <ele>1024</ele>
        <time>2016-06-19T09:24:07.588Z</time>
      </trkpt>
      <trkpt lat="46.84684" lon="6.23859">
        <ele>1024</ele>
        <time>2016-06-19T09:24:08.588Z</time>
      </trkpt>
      <trkpt lat="46.84686" lon="6.23858">
        <ele>1024</ele>
        <time>2016-06-19T09:24:09.588Z</time>
      </trkpt>
      <trkpt lat="46.84688" lon="6.23855">
        <ele>1023</ele>
        <time>2016-06-19T09:24:11.588Z</time>
      </trkpt>
      <trkpt lat="46.8469" lon="6.23853">
        <ele>1023</ele>
        <time>2016-06-19T09:24:12.588Z</time>
      </trkpt>
      <trkpt lat="46.84691" lon="6.23851">
        <ele>1023</ele>
        <time>2016-06-19T09:24:13.588Z</time>
      </trkpt>
      <trkpt lat="46.84694" lon="6.23848">
        <ele>1023</ele>
        <time>2016-06-19T09:24:15.588Z</time>
      </trkpt>
      <trkpt lat="46.84696" lon="6.23845">
        <ele>1023</ele>
        <time>2016-06-19T09:24:17.588Z</time>
      </trkpt>
      <trkpt lat="46.84697" lon="6.23842">
        <ele>1023</ele>
        <time>2016-06-19T09:24:19.588Z</time>
      </trkpt>
      <trkpt lat="46.84699" lon="6.23839">
        <ele>1024</ele>
        <time>2016-06-19T09:24:21.588Z</time>
      </trkpt>
      <trkpt lat="46.847" lon="6.23837">
        <ele>1024</ele>
        <time>2016-06-19T09:24:23.588Z</time>
      </trkpt>
      <trkpt lat="46.84703" lon="6.23836">
        <ele>1024</ele>
        <time>2016-06-19T09:24:25.588Z</time>
      </trkpt>
      <trkpt lat="46.84713" lon="6.23836">
        <ele>1025</ele>
        <time>2016-06-19T09:24:32.588Z</time>
      </trkpt>
      <trkpt lat="46.84716" lon="6.23837">
        <ele>1025</ele>
        <time>2016-06-19T09:24:34.588Z</time>
      </trkpt>
      <trkpt lat="46.84719" lon="6.2384">
        <ele>1025</ele>
        <time>2016-06-19T09:24:36.588Z</time>
      </trkpt>
      <trkpt lat="46.84722" lon="6.23842">
        <ele>1025</ele>
        <time>2016-06-19T09:24:38.588Z</time>
      </trkpt>
      <trkpt lat="46.84729" lon="6.23845">
        <ele>1026</ele>
        <time>2016-06-19T09:24:41.588Z</time>
      </trkpt>
      <trkpt lat="46.84731" lon="6.23846">
        <ele>1026</ele>
        <time>2016-06-19T09:24:42.588Z</time>
      </trkpt>
      <trkpt lat="46.84733" lon="6.23847">
        <ele>1026</ele>
        <time>2016-06-19T09:24:43.588Z</time>
      </trkpt>
      <trkpt lat="46.84736" lon="6.23847">
        <ele>1026</ele>
        <time>2016-06-19T09:24:45.588Z</time>
      </trkpt>
      <trkpt lat="46.84738" lon="6.23848">
        <ele>1026</ele>
        <time>2016-06-19T09:24:46.588Z</time>
      </trkpt>
      <trkpt lat="46.8474" lon="6.23848">
        <ele>1026</ele>
        <time>2016-06-19T09:24:47.588Z</time>
      </trkpt>
      <trkpt lat="46.84742" lon="6.23848">
        <ele>1026</ele>
        <time>2016-06-19T09:24:49.588Z</time>
      </trkpt>
      <trkpt lat="46.84746" lon="6.23847">
        <ele>1027</ele>
        <time>2016-06-19T09:24:51.588Z</time>
      </trkpt>
      <trkpt lat="46.84748" lon="6.23847">
        <ele>1027</ele>
        <time>2016-06-19T09:24:52.588Z</time>
      </trkpt>
      <trkpt lat="46.84751" lon="6.23845">
        <ele>1027</ele>
        <time>2016-06-19T09:24:54.588Z</time>
      </trkpt>
      <trkpt lat="46.84752" lon="6.23843">
        <ele>1027</ele>
        <time>2016-06-19T09:24:56.588Z</time>
      </trkpt>
      <trkpt lat="46.84754" lon="6.23841">
        <ele>1027</ele>
        <time>2016-06-19T09:24:58.588Z</time>
      </trkpt>
      <trkpt lat="46.84755" lon="6.23838">
        <ele>1025.6259712</ele>
        <time>2016-06-19T09:25:00.588Z</time>
      </trkpt>
      <trkpt lat="46.84757" lon="6.23835">
        <ele>1024</ele>
        <time>2016-06-19T09:25:02.588Z</time>
      </trkpt>
      <trkpt lat="46.84758" lon="6.23831">
        <ele>1024</ele>
        <time>2016-06-19T09:25:04.588Z</time>
      </trkpt>
      <trkpt lat="46.8476" lon="6.23829">
        <ele>1024</ele>
        <time>2016-06-19T09:25:06.588Z</time>
      </trkpt>
      <trkpt lat="46.84761" lon="6.23826">
        <ele>1024</ele>
        <time>2016-06-19T09:25:08.588Z</time>
      </trkpt>
      <trkpt lat="46.84761" lon="6.23821">
        <ele>1024</ele>
        <time>2016-06-19T09:25:10.588Z</time>
      </trkpt>
      <trkpt lat="46.84761" lon="6.23818">
        <ele>1024</ele>
        <time>2016-06-19T09:25:11.588Z</time>
      </trkpt>
      <trkpt lat="46.84761" lon="6.23815">
        <ele>1024</ele>
        <time>2016-06-19T09:25:12.588Z</time>
      </trkpt>
      <trkpt lat="46.8476" lon="6.2381">
        <ele>1024</ele>
        <time>2016-06-19T09:25:14.588Z</time>
      </trkpt>
      <trkpt lat="46.84759" lon="6.23807">
        <ele>1024</ele>
        <time>2016-06-19T09:25:15.588Z</time>
      </trkpt>
      <trkpt lat="46.84758" lon="6.23805">
        <ele>1024</ele>
        <time>2016-06-19T09:25:16.588Z</time>
      </trkpt>
      <trkpt lat="46.84756" lon="6.23803">
        <ele>1024</ele>
        <time>2016-06-19T09:25:17.588Z</time>
      </trkpt>
      <trkpt lat="46.84754" lon="6.23801">
        <ele>1024</ele>
        <time>2016-06-19T09:25:19.588Z</time>
      </trkpt>
      <trkpt lat="46.84753" lon="6.238">
        <ele>1023.0839808</ele>
        <time>2016-06-19T09:25:20.588Z</time>
      </trkpt>
      <trkpt lat="46.84751" lon="6.23797">
        <ele>1022</ele>
        <time>2016-06-19T09:25:22.588Z</time>
      </trkpt>
      <trkpt lat="46.8475" lon="6.23793">
        <ele>1022</ele>
        <time>2016-06-19T09:25:24.588Z</time>
      </trkpt>
      <trkpt lat="46.84748" lon="6.2379">
        <ele>1022</ele>
        <time>2016-06-19T09:25:26.588Z</time>
      </trkpt>
      <trkpt lat="46.84746" lon="6.23787">
        <ele>1022</ele>
        <time>2016-06-19T09:25:28.588Z</time>
      </trkpt>
      <trkpt lat="46.84744" lon="6.23783">
        <ele>1021.0839808</ele>
        <time>2016-06-19T09:25:30.588Z</time>
      </trkpt>
      <trkpt lat="46.84742" lon="6.23781">
        <ele>1020</ele>
        <time>2016-06-19T09:25:31.588Z</time>
      </trkpt>
      <trkpt lat="46.8474" lon="6.23779">
        <ele>1020</ele>
        <time>2016-06-19T09:25:32.588Z</time>
      </trkpt>
      <trkpt lat="46.84732" lon="6.23771">
        <ele>1020</ele>
        <time>2016-06-19T09:25:37.588Z</time>
      </trkpt>
      <trkpt lat="46.84723" lon="6.23765">
        <ele>1018</ele>
        <time>2016-06-19T09:25:43.588Z</time>
      </trkpt>
      <trkpt lat="46.84729" lon="6.23765">
        <ele>1018</ele>
        <time>2016-06-19T09:25:52.588Z</time>
      </trkpt>
      <trkpt lat="46.84723" lon="6.23763">
        <ele>1016</ele>
        <time>2016-06-19T09:26:17.588Z</time>
      </trkpt>
      <trkpt lat="46.84722" lon="6.2376">
        <ele>1017</ele>
        <time>2016-06-19T09:26:36.588Z</time>
      </trkpt>
      <trkpt lat="46.84721" lon="6.23758">
        <ele>1017</ele>
        <time>2016-06-19T09:26:38.588Z</time>
      </trkpt>
      <trkpt lat="46.8472" lon="6.23754">
        <ele>1017</ele>
        <time>2016-06-19T09:26:40.588Z</time>
      </trkpt>
      <trkpt lat="46.84718" lon="6.23752">
        <ele>1017</ele>
        <time>2016-06-19T09:26:42.588Z</time>
      </trkpt>
      <trkpt lat="46.84717" lon="6.2375">
        <ele>1017</ele>
        <time>2016-06-19T09:26:43.588Z</time>
      </trkpt>
      <trkpt lat="46.84714" lon="6.23747">
        <ele>1017</ele>
        <time>2016-06-19T09:26:45.588Z</time>
      </trkpt>
      <trkpt lat="46.84713" lon="6.23745">
        <ele>1017</ele>
        <time>2016-06-19T09:26:46.588Z</time>
      </trkpt>
      <trkpt lat="46.84711" lon="6.23741">
        <ele>1017</ele>
        <time>2016-06-19T09:26:48.588Z</time>
      </trkpt>
      <trkpt lat="46.84709" lon="6.23739">
        <ele>1017</ele>
        <time>2016-06-19T09:26:49.588Z</time>
      </trkpt>
      <trkpt lat="46.84708" lon="6.23737">
        <ele>1016.0839808</ele>
        <time>2016-06-19T09:26:50.588Z</time>
      </trkpt>
      <trkpt lat="46.84705" lon="6.23734">
        <ele>1015</ele>
        <time>2016-06-19T09:26:52.588Z</time>
      </trkpt>
      <trkpt lat="46.84703" lon="6.23732">
        <ele>1015</ele>
        <time>2016-06-19T09:26:53.588Z</time>
      </trkpt>
      <trkpt lat="46.84701" lon="6.23729">
        <ele>1015</ele>
        <time>2016-06-19T09:26:54.588Z</time>
      </trkpt>
      <trkpt lat="46.847" lon="6.23726">
        <ele>1015</ele>
        <time>2016-06-19T09:26:55.588Z</time>
      </trkpt>
      <trkpt lat="46.84699" lon="6.23724">
        <ele>1015</ele>
        <time>2016-06-19T09:26:56.588Z</time>
      </trkpt>
      <trkpt lat="46.84697" lon="6.23721">
        <ele>1015</ele>
        <time>2016-06-19T09:26:57.588Z</time>
      </trkpt>
      <trkpt lat="46.84696" lon="6.23718">
        <ele>1015</ele>
        <time>2016-06-19T09:26:58.588Z</time>
      </trkpt>
      <trkpt lat="46.84695" lon="6.23716">
        <ele>1015</ele>
        <time>2016-06-19T09:26:59.588Z</time>
      </trkpt>
      <trkpt lat="46.84693" lon="6.23714">
        <ele>1014.0447624324</ele>
        <time>2016-06-19T09:27:00.588Z</time>
      </trkpt>
      <trkpt lat="46.84692" lon="6.23712">
        <ele>1010</ele>
        <time>2016-06-19T09:27:01.588Z</time>
      </trkpt>
      <trkpt lat="46.84691" lon="6.2371">
        <ele>1010</ele>
        <time>2016-06-19T09:27:02.588Z</time>
      </trkpt>
      <trkpt lat="46.8469" lon="6.23706">
        <ele>1010</ele>
        <time>2016-06-19T09:27:04.588Z</time>
      </trkpt>
      <trkpt lat="46.84687" lon="6.23705">
        <ele>1011</ele>
        <time>2016-06-19T09:27:08.588Z</time>
      </trkpt>
      <trkpt lat="46.84686" lon="6.23703">
        <ele>1011.4580096</ele>
        <time>2016-06-19T09:27:10.588Z</time>
      </trkpt>
      <trkpt lat="46.84688" lon="6.23702">
        <ele>1012</ele>
        <time>2016-06-19T09:27:19.588Z</time>
      </trkpt>
      <trkpt lat="46.84691" lon="6.23703">
        <ele>1011</ele>
        <time>2016-06-19T09:27:21.588Z</time>
      </trkpt>
      <trkpt lat="46.84694" lon="6.23699">
        <ele>1011</ele>
        <time>2016-06-19T09:27:24.588Z</time>
      </trkpt>
      <trkpt lat="46.84695" lon="6.23694">
        <ele>1011</ele>
        <time>2016-06-19T09:27:26.588Z</time>
      </trkpt>
      <trkpt lat="46.84696" lon="6.2369">
        <ele>1011</ele>
        <time>2016-06-19T09:27:28.588Z</time>
      </trkpt>
      <trkpt lat="46.84697" lon="6.23687">
        <ele>1011</ele>
        <time>2016-06-19T09:27:29.588Z</time>
      </trkpt>
      <trkpt lat="46.84697" lon="6.23684">
        <ele>1010.5419904</ele>
        <time>2016-06-19T09:27:30.588Z</time>
      </trkpt>
      <trkpt lat="46.84698" lon="6.23682">
        <ele>1010</ele>
        <time>2016-06-19T09:27:31.588Z</time>
      </trkpt>
      <trkpt lat="46.84698" lon="6.23679">
        <ele>1010</ele>
        <time>2016-06-19T09:27:33.588Z</time>
      </trkpt>
      <trkpt lat="46.84697" lon="6.23675">
        <ele>1010</ele>
        <time>2016-06-19T09:27:35.588Z</time>
      </trkpt>
      <trkpt lat="46.84697" lon="6.23671">
        <ele>1010</ele>
        <time>2016-06-19T09:27:37.588Z</time>
      </trkpt>
      <trkpt lat="46.84697" lon="6.23668">
        <ele>1010</ele>
        <time>2016-06-19T09:27:38.588Z</time>
      </trkpt>
      <trkpt lat="46.84697" lon="6.23665">
        <ele>1010</ele>
        <time>2016-06-19T09:27:39.588Z</time>
      </trkpt>
      <trkpt lat="46.84699" lon="6.23656">
        <ele>1008</ele>
        <time>2016-06-19T09:27:43.588Z</time>
      </trkpt>
      <trkpt lat="46.84701" lon="6.23651">
        <ele>1008</ele>
        <time>2016-06-19T09:27:45.588Z</time>
      </trkpt>
      <trkpt lat="46.84702" lon="6.23648">
        <ele>1008</ele>
        <time>2016-06-19T09:27:46.588Z</time>
      </trkpt>
      <trkpt lat="46.84703" lon="6.23645">
        <ele>1008</ele>
        <time>2016-06-19T09:27:47.588Z</time>
      </trkpt>
      <trkpt lat="46.84704" lon="6.23643">
        <ele>1008</ele>
        <time>2016-06-19T09:27:48.588Z</time>
      </trkpt>
      <trkpt lat="46.84705" lon="6.2364">
        <ele>1008</ele>
        <time>2016-06-19T09:27:49.588Z</time>
      </trkpt>
      <trkpt lat="46.84706" lon="6.23638">
        <ele>1007.0839808</ele>
        <time>2016-06-19T09:27:50.588Z</time>
      </trkpt>
      <trkpt lat="46.84708" lon="6.23635">
        <ele>1006</ele>
        <time>2016-06-19T09:27:52.588Z</time>
      </trkpt>
      <trkpt lat="46.8471" lon="6.23631">
        <ele>1006</ele>
        <time>2016-06-19T09:27:54.588Z</time>
      </trkpt>
      <trkpt lat="46.84713" lon="6.23628">
        <ele>1006</ele>
        <time>2016-06-19T09:27:56.588Z</time>
      </trkpt>
      <trkpt lat="46.84715" lon="6.23625">
        <ele>1006</ele>
        <time>2016-06-19T09:27:58.588Z</time>
      </trkpt>
      <trkpt lat="46.84717" lon="6.23623">
        <ele>1006</ele>
        <time>2016-06-19T09:27:59.588Z</time>
      </trkpt>
      <trkpt lat="46.84718" lon="6.23621">
        <ele>1006</ele>
        <time>2016-06-19T09:28:00.588Z</time>
      </trkpt>
      <trkpt lat="46.8472" lon="6.23618">
        <ele>1002</ele>
        <time>2016-06-19T09:28:02.588Z</time>
      </trkpt>
      <trkpt lat="46.84722" lon="6.23617">
        <ele>1002</ele>
        <time>2016-06-19T09:28:03.588Z</time>
      </trkpt>
      <trkpt lat="46.84724" lon="6.23616">
        <ele>1002</ele>
        <time>2016-06-19T09:28:04.588Z</time>
      </trkpt>
      <trkpt lat="46.84726" lon="6.23615">
        <ele>1002</ele>
        <time>2016-06-19T09:28:05.588Z</time>
      </trkpt>
      <trkpt lat="46.84727" lon="6.23614">
        <ele>1001.5419904</ele>
        <time>2016-06-19T09:28:06.588Z</time>
      </trkpt>
      <trkpt lat="46.8473" lon="6.23612">
        <ele>1001</ele>
        <time>2016-06-19T09:28:08.588Z</time>
      </trkpt>
      <trkpt lat="46.84733" lon="6.23611">
        <ele>1001</ele>
        <time>2016-06-19T09:28:10.588Z</time>
      </trkpt>
      <trkpt lat="46.84736" lon="6.23611">
        <ele>1000</ele>
        <time>2016-06-19T09:28:12.588Z</time>
      </trkpt>
      <trkpt lat="46.84739" lon="6.23611">
        <ele>1000</ele>
        <time>2016-06-19T09:28:14.588Z</time>
      </trkpt>
      <trkpt lat="46.84741" lon="6.23612">
        <ele>1000</ele>
        <time>2016-06-19T09:28:15.588Z</time>
      </trkpt>
      <trkpt lat="46.84744" lon="6.23613">
        <ele>1000</ele>
        <time>2016-06-19T09:28:17.588Z</time>
      </trkpt>
      <trkpt lat="46.84747" lon="6.23615">
        <ele>1000</ele>
        <time>2016-06-19T09:28:19.588Z</time>
      </trkpt>
      <trkpt lat="46.84749" lon="6.23617">
        <ele>998.1680128</ele>
        <time>2016-06-19T09:28:21.588Z</time>
      </trkpt>
      <trkpt lat="46.84752" lon="6.23618">
        <ele>996</ele>
        <time>2016-06-19T09:28:23.588Z</time>
      </trkpt>
      <trkpt lat="46.84755" lon="6.23619">
        <ele>996</ele>
        <time>2016-06-19T09:28:25.588Z</time>
      </trkpt>
      <trkpt lat="46.84758" lon="6.2362">
        <ele>993</ele>
        <time>2016-06-19T09:28:27.588Z</time>
      </trkpt>
      <trkpt lat="46.8476" lon="6.23621">
        <ele>993</ele>
        <time>2016-06-19T09:28:29.588Z</time>
      </trkpt>
      <trkpt lat="46.84763" lon="6.23622">
        <ele>992.5420032</ele>
        <time>2016-06-19T09:28:31.588Z</time>
      </trkpt>
      <trkpt lat="46.84767" lon="6.23622">
        <ele>992</ele>
        <time>2016-06-19T09:28:33.588Z</time>
      </trkpt>
      <trkpt lat="46.8477" lon="6.23621">
        <ele>992</ele>
        <time>2016-06-19T09:28:35.588Z</time>
      </trkpt>
      <trkpt lat="46.84773" lon="6.2362">
        <ele>991</ele>
        <time>2016-06-19T09:28:37.588Z</time>
      </trkpt>
      <trkpt lat="46.84776" lon="6.2362">
        <ele>991</ele>
        <time>2016-06-19T09:28:39.588Z</time>
      </trkpt>
      <trkpt lat="46.84778" lon="6.23621">
        <ele>991</ele>
        <time>2016-06-19T09:28:41.588Z</time>
      </trkpt>
      <trkpt lat="46.84781" lon="6.23622">
        <ele>991</ele>
        <time>2016-06-19T09:28:43.588Z</time>
      </trkpt>
      <trkpt lat="46.84783" lon="6.23623">
        <ele>992</ele>
        <time>2016-06-19T09:28:48.588Z</time>
      </trkpt>
      <trkpt lat="46.84785" lon="6.23626">
        <ele>992</ele>
        <time>2016-06-19T09:28:50.588Z</time>
      </trkpt>
      <trkpt lat="46.84788" lon="6.23628">
        <ele>990</ele>
        <time>2016-06-19T09:28:52.588Z</time>
      </trkpt>
      <trkpt lat="46.84791" lon="6.2363">
        <ele>990</ele>
        <time>2016-06-19T09:28:54.588Z</time>
      </trkpt>
      <trkpt lat="46.84794" lon="6.23632">
        <ele>990</ele>
        <time>2016-06-19T09:28:56.588Z</time>
      </trkpt>
      <trkpt lat="46.84796" lon="6.23633">
        <ele>990</ele>
        <time>2016-06-19T09:28:57.588Z</time>
      </trkpt>
      <trkpt lat="46.84798" lon="6.23634">
        <ele>990</ele>
        <time>2016-06-19T09:28:58.588Z</time>
      </trkpt>
      <trkpt lat="46.848" lon="6.23634">
        <ele>990</ele>
        <time>2016-06-19T09:28:59.588Z</time>
      </trkpt>
      <trkpt lat="46.84803" lon="6.23637">
        <ele>988</ele>
        <time>2016-06-19T09:29:01.588Z</time>
      </trkpt>
      <trkpt lat="46.84806" lon="6.23638">
        <ele>988</ele>
        <time>2016-06-19T09:29:02.588Z</time>
      </trkpt>
      <trkpt lat="46.84808" lon="6.23639">
        <ele>988</ele>
        <time>2016-06-19T09:29:03.588Z</time>
      </trkpt>
      <trkpt lat="46.8481" lon="6.2364">
        <ele>988</ele>
        <time>2016-06-19T09:29:04.588Z</time>
      </trkpt>
      <trkpt lat="46.84812" lon="6.23642">
        <ele>988</ele>
        <time>2016-06-19T09:29:05.588Z</time>
      </trkpt>
      <trkpt lat="46.84814" lon="6.23643">
        <ele>988</ele>
        <time>2016-06-19T09:29:06.588Z</time>
      </trkpt>
      <trkpt lat="46.84816" lon="6.23644">
        <ele>988</ele>
        <time>2016-06-19T09:29:07.588Z</time>
      </trkpt>
      <trkpt lat="46.84818" lon="6.23645">
        <ele>988</ele>
        <time>2016-06-19T09:29:08.588Z</time>
      </trkpt>
      <trkpt lat="46.8482" lon="6.23647">
        <ele>988</ele>
        <time>2016-06-19T09:29:09.588Z</time>
      </trkpt>
      <trkpt lat="46.84822" lon="6.23649">
        <ele>987.0839808</ele>
        <time>2016-06-19T09:29:10.588Z</time>
      </trkpt>
      <trkpt lat="46.84824" lon="6.2365">
        <ele>986</ele>
        <time>2016-06-19T09:29:11.588Z</time>
      </trkpt>
      <trkpt lat="46.84825" lon="6.23651">
        <ele>986</ele>
        <time>2016-06-19T09:29:12.588Z</time>
      </trkpt>
      <trkpt lat="46.84827" lon="6.23653">
        <ele>986</ele>
        <time>2016-06-19T09:29:13.588Z</time>
      </trkpt>
      <trkpt lat="46.84829" lon="6.23655">
        <ele>986</ele>
        <time>2016-06-19T09:29:14.588Z</time>
      </trkpt>
      <trkpt lat="46.84831" lon="6.23657">
        <ele>985.61791227266</ele>
        <time>2016-06-19T09:29:15.588Z</time>
      </trkpt>
      <trkpt lat="46.84833" lon="6.23659">
        <ele>984</ele>
        <time>2016-06-19T09:29:16.588Z</time>
      </trkpt>
      <trkpt lat="46.84835" lon="6.23661">
        <ele>984</ele>
        <time>2016-06-19T09:29:17.588Z</time>
      </trkpt>
      <trkpt lat="46.84836" lon="6.23663">
        <ele>984</ele>
        <time>2016-06-19T09:29:18.588Z</time>
      </trkpt>
      <trkpt lat="46.84838" lon="6.23664">
        <ele>984</ele>
        <time>2016-06-19T09:29:19.588Z</time>
      </trkpt>
      <trkpt lat="46.8484" lon="6.23666">
        <ele>983.5419904</ele>
        <time>2016-06-19T09:29:20.588Z</time>
      </trkpt>
      <trkpt lat="46.84841" lon="6.23668">
        <ele>983</ele>
        <time>2016-06-19T09:29:21.588Z</time>
      </trkpt>
      <trkpt lat="46.84843" lon="6.2367">
        <ele>983</ele>
        <time>2016-06-19T09:29:22.588Z</time>
      </trkpt>
      <trkpt lat="46.84845" lon="6.23671">
        <ele>983</ele>
        <time>2016-06-19T09:29:23.588Z</time>
      </trkpt>
      <trkpt lat="46.84847" lon="6.23673">
        <ele>983</ele>
        <time>2016-06-19T09:29:24.588Z</time>
      </trkpt>
      <trkpt lat="46.84849" lon="6.23674">
        <ele>982.5420032</ele>
        <time>2016-06-19T09:29:25.588Z</time>
      </trkpt>
      <trkpt lat="46.8485" lon="6.23676">
        <ele>982</ele>
        <time>2016-06-19T09:29:26.588Z</time>
      </trkpt>
      <trkpt lat="46.84852" lon="6.23678">
        <ele>982.4579968</ele>
        <time>2016-06-19T09:29:27.588Z</time>
      </trkpt>
      <trkpt lat="46.84854" lon="6.23679">
        <ele>983</ele>
        <time>2016-06-19T09:29:28.588Z</time>
      </trkpt>
      <trkpt lat="46.84856" lon="6.2368">
        <ele>983</ele>
        <time>2016-06-19T09:29:29.588Z</time>
      </trkpt>
      <trkpt lat="46.84857" lon="6.23682">
        <ele>982.0839808</ele>
        <time>2016-06-19T09:29:30.588Z</time>
      </trkpt>
      <trkpt lat="46.84859" lon="6.23683">
        <ele>981</ele>
        <time>2016-06-19T09:29:31.588Z</time>
      </trkpt>
      <trkpt lat="46.84861" lon="6.23685">
        <ele>981</ele>
        <time>2016-06-19T09:29:32.588Z</time>
      </trkpt>
      <trkpt lat="46.84862" lon="6.23686">
        <ele>981</ele>
        <time>2016-06-19T09:29:33.588Z</time>
      </trkpt>
      <trkpt lat="46.84864" lon="6.23688">
        <ele>981</ele>
        <time>2016-06-19T09:29:34.588Z</time>
      </trkpt>
      <trkpt lat="46.84865" lon="6.2369">
        <ele>980.0840064</ele>
        <time>2016-06-19T09:29:35.588Z</time>
      </trkpt>
      <trkpt lat="46.84867" lon="6.23691">
        <ele>979</ele>
        <time>2016-06-19T09:29:36.588Z</time>
      </trkpt>
      <trkpt lat="46.8487" lon="6.23694">
        <ele>979</ele>
        <time>2016-06-19T09:29:38.588Z</time>
      </trkpt>
      <trkpt lat="46.84872" lon="6.23696">
        <ele>979</ele>
        <time>2016-06-19T09:29:39.588Z</time>
      </trkpt>
      <trkpt lat="46.84874" lon="6.23697">
        <ele>978.6530230303</ele>
        <time>2016-06-19T09:29:40.588Z</time>
      </trkpt>
      <trkpt lat="46.84876" lon="6.23699">
        <ele>978</ele>
        <time>2016-06-19T09:29:41.588Z</time>
      </trkpt>
      <trkpt lat="46.84878" lon="6.237">
        <ele>978</ele>
        <time>2016-06-19T09:29:42.588Z</time>
      </trkpt>
      <trkpt lat="46.8488" lon="6.23701">
        <ele>978</ele>
        <time>2016-06-19T09:29:43.588Z</time>
      </trkpt>
      <trkpt lat="46.84881" lon="6.23703">
        <ele>978</ele>
        <time>2016-06-19T09:29:44.588Z</time>
      </trkpt>
      <trkpt lat="46.84883" lon="6.23705">
        <ele>977.0840064</ele>
        <time>2016-06-19T09:29:45.588Z</time>
      </trkpt>
      <trkpt lat="46.84885" lon="6.23706">
        <ele>976</ele>
        <time>2016-06-19T09:29:46.588Z</time>
      </trkpt>
      <trkpt lat="46.84887" lon="6.23708">
        <ele>976</ele>
        <time>2016-06-19T09:29:47.588Z</time>
      </trkpt>
      <trkpt lat="46.84889" lon="6.2371">
        <ele>976</ele>
        <time>2016-06-19T09:29:48.588Z</time>
      </trkpt>
      <trkpt lat="46.84891" lon="6.23712">
        <ele>976</ele>
        <time>2016-06-19T09:29:49.588Z</time>
      </trkpt>
      <trkpt lat="46.84892" lon="6.23714">
        <ele>975.0839808</ele>
        <time>2016-06-19T09:29:50.588Z</time>
      </trkpt>
      <trkpt lat="46.84896" lon="6.23716">
        <ele>974.3469769697</ele>
        <time>2016-06-19T09:29:52.588Z</time>
      </trkpt>
      <trkpt lat="46.84897" lon="6.23718">
        <ele>975</ele>
        <time>2016-06-19T09:29:53.588Z</time>
      </trkpt>
      <trkpt lat="46.849" lon="6.23721">
        <ele>974.5420032</ele>
        <time>2016-06-19T09:29:55.588Z</time>
      </trkpt>
      <trkpt lat="46.84902" lon="6.23722">
        <ele>974</ele>
        <time>2016-06-19T09:29:56.588Z</time>
      </trkpt>
      <trkpt lat="46.84904" lon="6.23724">
        <ele>974</ele>
        <time>2016-06-19T09:29:57.588Z</time>
      </trkpt>
      <trkpt lat="46.84905" lon="6.23726">
        <ele>974</ele>
        <time>2016-06-19T09:29:58.588Z</time>
      </trkpt>
      <trkpt lat="46.84907" lon="6.23728">
        <ele>974</ele>
        <time>2016-06-19T09:29:59.588Z</time>
      </trkpt>
      <trkpt lat="46.84908" lon="6.23729">
        <ele>972.1679616</ele>
        <time>2016-06-19T09:30:00.588Z</time>
      </trkpt>
      <trkpt lat="46.84911" lon="6.23732">
        <ele>970</ele>
        <time>2016-06-19T09:30:02.588Z</time>
      </trkpt>
      <trkpt lat="46.84913" lon="6.23734">
        <ele>970</ele>
        <time>2016-06-19T09:30:03.588Z</time>
      </trkpt>
      <trkpt lat="46.84915" lon="6.23735">
        <ele>970</ele>
        <time>2016-06-19T09:30:04.588Z</time>
      </trkpt>
      <trkpt lat="46.84916" lon="6.23737">
        <ele>970</ele>
        <time>2016-06-19T09:30:05.588Z</time>
      </trkpt>
      <trkpt lat="46.84918" lon="6.23738">
        <ele>970</ele>
        <time>2016-06-19T09:30:06.588Z</time>
      </trkpt>
      <trkpt lat="46.8492" lon="6.2374">
        <ele>970</ele>
        <time>2016-06-19T09:30:07.588Z</time>
      </trkpt>
      <trkpt lat="46.84921" lon="6.23742">
        <ele>970</ele>
        <time>2016-06-19T09:30:08.588Z</time>
      </trkpt>
      <trkpt lat="46.84923" lon="6.23744">
        <ele>970</ele>
        <time>2016-06-19T09:30:09.588Z</time>
      </trkpt>
      <trkpt lat="46.84925" lon="6.23745">
        <ele>969.5419904</ele>
        <time>2016-06-19T09:30:10.588Z</time>
      </trkpt>
      <trkpt lat="46.84928" lon="6.23749">
        <ele>969</ele>
        <time>2016-06-19T09:30:12.588Z</time>
      </trkpt>
      <trkpt lat="46.8493" lon="6.2375">
        <ele>969</ele>
        <time>2016-06-19T09:30:13.588Z</time>
      </trkpt>
      <trkpt lat="46.84933" lon="6.23753">
        <ele>969</ele>
        <time>2016-06-19T09:30:15.588Z</time>
      </trkpt>
      <trkpt lat="46.84935" lon="6.23756">
        <ele>969</ele>
        <time>2016-06-19T09:30:17.588Z</time>
      </trkpt>
      <trkpt lat="46.84937" lon="6.23758">
        <ele>969</ele>
        <time>2016-06-19T09:30:18.588Z</time>
      </trkpt>
      <trkpt lat="46.84938" lon="6.2376">
        <ele>969</ele>
        <time>2016-06-19T09:30:19.588Z</time>
      </trkpt>
      <trkpt lat="46.8494" lon="6.23761">
        <ele>968.0839808</ele>
        <time>2016-06-19T09:30:20.588Z</time>
      </trkpt>
      <trkpt lat="46.84942" lon="6.23763">
        <ele>967</ele>
        <time>2016-06-19T09:30:21.588Z</time>
      </trkpt>
      <trkpt lat="46.84943" lon="6.23765">
        <ele>967</ele>
        <time>2016-06-19T09:30:22.588Z</time>
      </trkpt>
      <trkpt lat="46.84945" lon="6.23767">
        <ele>967</ele>
        <time>2016-06-19T09:30:23.588Z</time>
      </trkpt>
      <trkpt lat="46.84947" lon="6.23769">
        <ele>967</ele>
        <time>2016-06-19T09:30:24.588Z</time>
      </trkpt>
      <trkpt lat="46.84948" lon="6.23771">
        <ele>966.0840064</ele>
        <time>2016-06-19T09:30:25.588Z</time>
      </trkpt>
      <trkpt lat="46.84951" lon="6.23774">
        <ele>965</ele>
        <time>2016-06-19T09:30:27.588Z</time>
      </trkpt>
      <trkpt lat="46.84953" lon="6.23776">
        <ele>965</ele>
        <time>2016-06-19T09:30:28.588Z</time>
      </trkpt>
      <trkpt lat="46.84955" lon="6.23778">
        <ele>965</ele>
        <time>2016-06-19T09:30:29.588Z</time>
      </trkpt>
      <trkpt lat="46.84957" lon="6.23779">
        <ele>963.95906909091</ele>
        <time>2016-06-19T09:30:30.588Z</time>
      </trkpt>
      <trkpt lat="46.84958" lon="6.23781">
        <ele>962</ele>
        <time>2016-06-19T09:30:31.588Z</time>
      </trkpt>
      <trkpt lat="46.84961" lon="6.23784">
        <ele>962</ele>
        <time>2016-06-19T09:30:33.588Z</time>
      </trkpt>
      <trkpt lat="46.84963" lon="6.23786">
        <ele>962</ele>
        <time>2016-06-19T09:30:34.588Z</time>
      </trkpt>
      <trkpt lat="46.84964" lon="6.23788">
        <ele>961.0840064</ele>
        <time>2016-06-19T09:30:35.588Z</time>
      </trkpt>
      <trkpt lat="46.84966" lon="6.23789">
        <ele>960</ele>
        <time>2016-06-19T09:30:36.588Z</time>
      </trkpt>
      <trkpt lat="46.84968" lon="6.23793">
        <ele>960.4580096</ele>
        <time>2016-06-19T09:30:38.588Z</time>
      </trkpt>
      <trkpt lat="46.8497" lon="6.23797">
        <ele>960.10194759562</ele>
        <time>2016-06-19T09:30:40.588Z</time>
      </trkpt>
      <trkpt lat="46.84972" lon="6.23799">
        <ele>959</ele>
        <time>2016-06-19T09:30:41.588Z</time>
      </trkpt>
      <trkpt lat="46.84973" lon="6.23801">
        <ele>959</ele>
        <time>2016-06-19T09:30:42.588Z</time>
      </trkpt>
      <trkpt lat="46.84976" lon="6.23804">
        <ele>959</ele>
        <time>2016-06-19T09:30:44.588Z</time>
      </trkpt>
      <trkpt lat="46.84978" lon="6.23807">
        <ele>957</ele>
        <time>2016-06-19T09:30:46.588Z</time>
      </trkpt>
      <trkpt lat="46.84981" lon="6.23811">
        <ele>957</ele>
        <time>2016-06-19T09:30:48.588Z</time>
      </trkpt>
      <trkpt lat="46.84986" lon="6.23817">
        <ele>956</ele>
        <time>2016-06-19T09:30:52.588Z</time>
      </trkpt>
      <trkpt lat="46.84989" lon="6.23821">
        <ele>956</ele>
        <time>2016-06-19T09:30:54.588Z</time>
      </trkpt>
      <trkpt lat="46.8499" lon="6.23823">
        <ele>955.30606545454</ele>
        <time>2016-06-19T09:30:55.588Z</time>
      </trkpt>
      <trkpt lat="46.84993" lon="6.23827">
        <ele>954</ele>
        <time>2016-06-19T09:30:57.588Z</time>
      </trkpt>
      <trkpt lat="46.84995" lon="6.23831">
        <ele>954</ele>
        <time>2016-06-19T09:30:59.588Z</time>
      </trkpt>
      <trkpt lat="46.85" lon="6.23838">
        <ele>952</ele>
        <time>2016-06-19T09:31:03.588Z</time>
      </trkpt>
      <trkpt lat="46.85003" lon="6.23841">
        <ele>951.0840064</ele>
        <time>2016-06-19T09:31:05.588Z</time>
      </trkpt>
      <trkpt lat="46.85011" lon="6.2385">
        <ele>948</ele>
        <time>2016-06-19T09:31:11.588Z</time>
      </trkpt>
      <trkpt lat="46.85019" lon="6.23857">
        <ele>947</ele>
        <time>2016-06-19T09:31:18.588Z</time>
      </trkpt>
      <trkpt lat="46.85028" lon="6.23863">
        <ele>946</ele>
        <time>2016-06-19T09:31:24.588Z</time>
      </trkpt>
      <trkpt lat="46.85037" lon="6.23867">
        <ele>946</ele>
        <time>2016-06-19T09:31:29.588Z</time>
      </trkpt>
      <trkpt lat="46.85046" lon="6.23873">
        <ele>943</ele>
        <time>2016-06-19T09:31:36.588Z</time>
      </trkpt>
      <trkpt lat="46.85055" lon="6.23879">
        <ele>941</ele>
        <time>2016-06-19T09:31:42.588Z</time>
      </trkpt>
      <trkpt lat="46.85064" lon="6.23885">
        <ele>939</ele>
        <time>2016-06-19T09:31:47.588Z</time>
      </trkpt>
      <trkpt lat="46.85074" lon="6.23891">
        <ele>937</ele>
        <time>2016-06-19T09:31:53.588Z</time>
      </trkpt>
      <trkpt lat="46.85082" lon="6.239">
        <ele>935</ele>
        <time>2016-06-19T09:31:58.588Z</time>
      </trkpt>
      <trkpt lat="46.85091" lon="6.23909">
        <ele>933</ele>
        <time>2016-06-19T09:32:03.588Z</time>
      </trkpt>
      <trkpt lat="46.85099" lon="6.23917">
        <ele>932</ele>
        <time>2016-06-19T09:32:08.588Z</time>
      </trkpt>
      <trkpt lat="46.85104" lon="6.23922">
        <ele>931</ele>
        <time>2016-06-19T09:32:11.588Z</time>
      </trkpt>
      <trkpt lat="46.85112" lon="6.2393">
        <ele>931</ele>
        <time>2016-06-19T09:32:17.588Z</time>
      </trkpt>
      <trkpt lat="46.85115" lon="6.23934">
        <ele>931</ele>
        <time>2016-06-19T09:32:19.588Z</time>
      </trkpt>
      <trkpt lat="46.85123" lon="6.23942">
        <ele>929</ele>
        <time>2016-06-19T09:32:24.588Z</time>
      </trkpt>
      <trkpt lat="46.8513" lon="6.23952">
        <ele>925.5419904</ele>
        <time>2016-06-19T09:32:30.588Z</time>
      </trkpt>
      <trkpt lat="46.85139" lon="6.2396">
        <ele>923</ele>
        <time>2016-06-19T09:32:36.588Z</time>
      </trkpt>
      <trkpt lat="46.85146" lon="6.23969">
        <ele>922</ele>
        <time>2016-06-19T09:32:42.588Z</time>
      </trkpt>
      <trkpt lat="46.85156" lon="6.23971">
        <ele>919.55097379781</ele>
        <time>2016-06-19T09:32:50.588Z</time>
      </trkpt>
      <trkpt lat="46.85164" lon="6.23979">
        <ele>918.5420032</ele>
        <time>2016-06-19T09:32:55.588Z</time>
      </trkpt>
      <trkpt lat="46.85168" lon="6.23987">
        <ele>918</ele>
        <time>2016-06-19T09:32:59.588Z</time>
      </trkpt>
      <trkpt lat="46.85169" lon="6.2399">
        <ele>917.0839808</ele>
        <time>2016-06-19T09:33:00.588Z</time>
      </trkpt>
      <trkpt lat="46.85173" lon="6.24002">
        <ele>916</ele>
        <time>2016-06-19T09:33:06.588Z</time>
      </trkpt>
      <trkpt lat="46.85178" lon="6.24013">
        <ele>916</ele>
        <time>2016-06-19T09:33:11.588Z</time>
      </trkpt>
      <trkpt lat="46.85179" lon="6.24019">
        <ele>916</ele>
        <time>2016-06-19T09:33:18.588Z</time>
      </trkpt>
      <trkpt lat="46.85181" lon="6.24022">
        <ele>915.55533186693</ele>
        <time>2016-06-19T09:33:20.588Z</time>
      </trkpt>
      <trkpt lat="46.85182" lon="6.24024">
        <ele>915</ele>
        <time>2016-06-19T09:33:21.588Z</time>
      </trkpt>
      <trkpt lat="46.85189" lon="6.24036">
        <ele>915</ele>
        <time>2016-06-19T09:33:27.588Z</time>
      </trkpt>
      <trkpt lat="46.85197" lon="6.24045">
        <ele>914</ele>
        <time>2016-06-19T09:33:33.588Z</time>
      </trkpt>
      <trkpt lat="46.85201" lon="6.24057">
        <ele>914</ele>
        <time>2016-06-19T09:33:40.588Z</time>
      </trkpt>
      <trkpt lat="46.85205" lon="6.24071">
        <ele>914</ele>
        <time>2016-06-19T09:33:48.588Z</time>
      </trkpt>
      <trkpt lat="46.8521" lon="6.24082">
        <ele>913</ele>
        <time>2016-06-19T09:33:56.588Z</time>
      </trkpt>
      <trkpt lat="46.85213" lon="6.24087">
        <ele>913</ele>
        <time>2016-06-19T09:33:59.588Z</time>
      </trkpt>
      <trkpt lat="46.85217" lon="6.24092">
        <ele>913</ele>
        <time>2016-06-19T09:34:04.588Z</time>
      </trkpt>
      <trkpt lat="46.85219" lon="6.24095">
        <ele>913</ele>
        <time>2016-06-19T09:34:06.588Z</time>
      </trkpt>
      <trkpt lat="46.85221" lon="6.24094">
        <ele>913</ele>
        <time>2016-06-19T09:34:08.588Z</time>
      </trkpt>
      <trkpt lat="46.85211" lon="6.24088">
        <ele>913</ele>
        <time>2016-06-19T09:34:19.588Z</time>
      </trkpt>
      <trkpt lat="46.85203" lon="6.2408">
        <ele>912</ele>
        <time>2016-06-19T09:34:24.588Z</time>
      </trkpt>
      <trkpt lat="46.85194" lon="6.24072">
        <ele>913</ele>
        <time>2016-06-19T09:34:31.588Z</time>
      </trkpt>
      <trkpt lat="46.85187" lon="6.24063">
        <ele>913</ele>
        <time>2016-06-19T09:34:38.588Z</time>
      </trkpt>
      <trkpt lat="46.85182" lon="6.2405">
        <ele>914</ele>
        <time>2016-06-19T09:34:44.588Z</time>
      </trkpt>
      <trkpt lat="46.85175" lon="6.24039">
        <ele>914</ele>
        <time>2016-06-19T09:34:54.588Z</time>
      </trkpt>
      <trkpt lat="46.85169" lon="6.24028">
        <ele>915</ele>
        <time>2016-06-19T09:35:04.588Z</time>
      </trkpt>
      <trkpt lat="46.85162" lon="6.24017">
        <ele>915</ele>
        <time>2016-06-19T09:35:10.588Z</time>
      </trkpt>
      <trkpt lat="46.85157" lon="6.24006">
        <ele>915</ele>
        <time>2016-06-19T09:35:15.588Z</time>
      </trkpt>
      <trkpt lat="46.85152" lon="6.23992">
        <ele>916</ele>
        <time>2016-06-19T09:35:22.588Z</time>
      </trkpt>
      <trkpt lat="46.85155" lon="6.23979">
        <ele>916</ele>
        <time>2016-06-19T09:35:27.588Z</time>
      </trkpt>
      <trkpt lat="46.85162" lon="6.23969">
        <ele>917</ele>
        <time>2016-06-19T09:35:32.588Z</time>
      </trkpt>
      <trkpt lat="46.85173" lon="6.23968">
        <ele>917</ele>
        <time>2016-06-19T09:35:38.588Z</time>
      </trkpt>
      <trkpt lat="46.85182" lon="6.23966">
        <ele>916</ele>
        <time>2016-06-19T09:35:44.588Z</time>
      </trkpt>
      <trkpt lat="46.85184" lon="6.23966">
        <ele>916</ele>
        <time>2016-06-19T09:35:46.588Z</time>
      </trkpt>
      <trkpt lat="46.85187" lon="6.23966">
        <ele>916</ele>
        <time>2016-06-19T09:35:48.588Z</time>
      </trkpt>
      <trkpt lat="46.8519" lon="6.23966">
        <ele>915.0839808</ele>
        <time>2016-06-19T09:35:50.588Z</time>
      </trkpt>
      <trkpt lat="46.85192" lon="6.23966">
        <ele>914</ele>
        <time>2016-06-19T09:35:51.588Z</time>
      </trkpt>
      <trkpt lat="46.85202" lon="6.23965">
        <ele>913</ele>
        <time>2016-06-19T09:35:57.588Z</time>
      </trkpt>
      <trkpt lat="46.85211" lon="6.23967">
        <ele>912</ele>
        <time>2016-06-19T09:36:04.588Z</time>
      </trkpt>
      <trkpt lat="46.85215" lon="6.23968">
        <ele>912</ele>
        <time>2016-06-19T09:36:07.588Z</time>
      </trkpt>
      <trkpt lat="46.85219" lon="6.23968">
        <ele>912</ele>
        <time>2016-06-19T09:36:09.588Z</time>
      </trkpt>
      <trkpt lat="46.85221" lon="6.23969">
        <ele>912</ele>
        <time>2016-06-19T09:36:10.588Z</time>
      </trkpt>
      <trkpt lat="46.85225" lon="6.23969">
        <ele>912</ele>
        <time>2016-06-19T09:36:12.588Z</time>
      </trkpt>
      <trkpt lat="46.8523" lon="6.2397">
        <ele>912</ele>
        <time>2016-06-19T09:36:15.588Z</time>
      </trkpt>
      <trkpt lat="46.85232" lon="6.23971">
        <ele>912</ele>
        <time>2016-06-19T09:36:17.588Z</time>
      </trkpt>
      <trkpt lat="46.85234" lon="6.23972">
        <ele>912</ele>
        <time>2016-06-19T09:36:19.588Z</time>
      </trkpt>
      <trkpt lat="46.85237" lon="6.23974">
        <ele>911</ele>
        <time>2016-06-19T09:36:21.588Z</time>
      </trkpt>
      <trkpt lat="46.85239" lon="6.23977">
        <ele>911</ele>
        <time>2016-06-19T09:36:23.588Z</time>
      </trkpt>
      <trkpt lat="46.85241" lon="6.23978">
        <ele>911</ele>
        <time>2016-06-19T09:36:24.588Z</time>
      </trkpt>
      <trkpt lat="46.85243" lon="6.23979">
        <ele>911</ele>
        <time>2016-06-19T09:36:25.588Z</time>
      </trkpt>
      <trkpt lat="46.85244" lon="6.23981">
        <ele>911</ele>
        <time>2016-06-19T09:36:26.588Z</time>
      </trkpt>
      <trkpt lat="46.85246" lon="6.23982">
        <ele>911</ele>
        <time>2016-06-19T09:36:27.588Z</time>
      </trkpt>
      <trkpt lat="46.85248" lon="6.23984">
        <ele>911</ele>
        <time>2016-06-19T09:36:29.588Z</time>
      </trkpt>
      <trkpt lat="46.85251" lon="6.23987">
        <ele>908</ele>
        <time>2016-06-19T09:36:31.588Z</time>
      </trkpt>
      <trkpt lat="46.85254" lon="6.23989">
        <ele>908</ele>
        <time>2016-06-19T09:36:33.588Z</time>
      </trkpt>
      <trkpt lat="46.85256" lon="6.23991">
        <ele>908</ele>
        <time>2016-06-19T09:36:34.588Z</time>
      </trkpt>
      <trkpt lat="46.85258" lon="6.23992">
        <ele>907.5420032</ele>
        <time>2016-06-19T09:36:35.588Z</time>
      </trkpt>
      <trkpt lat="46.8526" lon="6.23995">
        <ele>907</ele>
        <time>2016-06-19T09:36:37.588Z</time>
      </trkpt>
      <trkpt lat="46.85263" lon="6.23997">
        <ele>907</ele>
        <time>2016-06-19T09:36:39.588Z</time>
      </trkpt>
      <trkpt lat="46.85265" lon="6.24">
        <ele>907</ele>
        <time>2016-06-19T09:36:41.588Z</time>
      </trkpt>
      <trkpt lat="46.85267" lon="6.24002">
        <ele>907</ele>
        <time>2016-06-19T09:36:42.588Z</time>
      </trkpt>
      <trkpt lat="46.85269" lon="6.24004">
        <ele>907</ele>
        <time>2016-06-19T09:36:43.588Z</time>
      </trkpt>
      <trkpt lat="46.8527" lon="6.24006">
        <ele>907</ele>
        <time>2016-06-19T09:36:44.588Z</time>
      </trkpt>
      <trkpt lat="46.85272" lon="6.2401">
        <ele>907</ele>
        <time>2016-06-19T09:36:46.588Z</time>
      </trkpt>
      <trkpt lat="46.85273" lon="6.24015">
        <ele>907</ele>
        <time>2016-06-19T09:36:48.588Z</time>
      </trkpt>
      <trkpt lat="46.85273" lon="6.24017">
        <ele>907</ele>
        <time>2016-06-19T09:36:49.588Z</time>
      </trkpt>
      <trkpt lat="46.85273" lon="6.24022">
        <ele>907</ele>
        <time>2016-06-19T09:36:51.588Z</time>
      </trkpt>
      <trkpt lat="46.85274" lon="6.24027">
        <ele>907</ele>
        <time>2016-06-19T09:36:53.588Z</time>
      </trkpt>
      <trkpt lat="46.85273" lon="6.24031">
        <ele>907</ele>
        <time>2016-06-19T09:36:55.588Z</time>
      </trkpt>
      <trkpt lat="46.85274" lon="6.24036">
        <ele>907</ele>
        <time>2016-06-19T09:36:57.588Z</time>
      </trkpt>
      <trkpt lat="46.85275" lon="6.2404">
        <ele>907</ele>
        <time>2016-06-19T09:36:59.588Z</time>
      </trkpt>
      <trkpt lat="46.85275" lon="6.24044">
        <ele>906</ele>
        <time>2016-06-19T09:37:01.588Z</time>
      </trkpt>
      <trkpt lat="46.85275" lon="6.24047">
        <ele>906</ele>
        <time>2016-06-19T09:37:03.588Z</time>
      </trkpt>
      <trkpt lat="46.85276" lon="6.24051">
        <ele>906</ele>
        <time>2016-06-19T09:37:05.588Z</time>
      </trkpt>
      <trkpt lat="46.85277" lon="6.24055">
        <ele>906</ele>
        <time>2016-06-19T09:37:07.588Z</time>
      </trkpt>
      <trkpt lat="46.8528" lon="6.24066">
        <ele>906</ele>
        <time>2016-06-19T09:37:13.588Z</time>
      </trkpt>
      <trkpt lat="46.85281" lon="6.24071">
        <ele>906</ele>
        <time>2016-06-19T09:37:15.588Z</time>
      </trkpt>
      <trkpt lat="46.85282" lon="6.24074">
        <ele>906</ele>
        <time>2016-06-19T09:37:16.588Z</time>
      </trkpt>
      <trkpt lat="46.85282" lon="6.24076">
        <ele>906</ele>
        <time>2016-06-19T09:37:17.588Z</time>
      </trkpt>
      <trkpt lat="46.85283" lon="6.24081">
        <ele>906</ele>
        <time>2016-06-19T09:37:19.588Z</time>
      </trkpt>
      <trkpt lat="46.85283" lon="6.24083">
        <ele>905.5419904</ele>
        <time>2016-06-19T09:37:20.588Z</time>
      </trkpt>
      <trkpt lat="46.85284" lon="6.24087">
        <ele>905</ele>
        <time>2016-06-19T09:37:22.588Z</time>
      </trkpt>
      <trkpt lat="46.85285" lon="6.24092">
        <ele>905</ele>
        <time>2016-06-19T09:37:24.588Z</time>
      </trkpt>
      <trkpt lat="46.85286" lon="6.24095">
        <ele>905</ele>
        <time>2016-06-19T09:37:26.588Z</time>
      </trkpt>
      <trkpt lat="46.85287" lon="6.24099">
        <ele>905</ele>
        <time>2016-06-19T09:37:28.588Z</time>
      </trkpt>
      <trkpt lat="46.85287" lon="6.24102">
        <ele>905</ele>
        <time>2016-06-19T09:37:30.588Z</time>
      </trkpt>
      <trkpt lat="46.85288" lon="6.24106">
        <ele>904</ele>
        <time>2016-06-19T09:37:32.588Z</time>
      </trkpt>
      <trkpt lat="46.85289" lon="6.24109">
        <ele>904</ele>
        <time>2016-06-19T09:37:34.588Z</time>
      </trkpt>
      <trkpt lat="46.85292" lon="6.24116">
        <ele>904</ele>
        <time>2016-06-19T09:37:38.588Z</time>
      </trkpt>
      <trkpt lat="46.85291" lon="6.24119">
        <ele>904</ele>
        <time>2016-06-19T09:37:40.588Z</time>
      </trkpt>
      <trkpt lat="46.8529" lon="6.24122">
        <ele>904</ele>
        <time>2016-06-19T09:37:42.588Z</time>
      </trkpt>
      <trkpt lat="46.85291" lon="6.24126">
        <ele>904</ele>
        <time>2016-06-19T09:37:44.588Z</time>
      </trkpt>
      <trkpt lat="46.85293" lon="6.2413">
        <ele>904</ele>
        <time>2016-06-19T09:37:46.588Z</time>
      </trkpt>
      <trkpt lat="46.85294" lon="6.24134">
        <ele>904</ele>
        <time>2016-06-19T09:37:48.588Z</time>
      </trkpt>
      <trkpt lat="46.85294" lon="6.24139">
        <ele>903.5419904</ele>
        <time>2016-06-19T09:37:50.588Z</time>
      </trkpt>
      <trkpt lat="46.85295" lon="6.24142">
        <ele>903</ele>
        <time>2016-06-19T09:37:52.588Z</time>
      </trkpt>
      <trkpt lat="46.85294" lon="6.24145">
        <ele>903</ele>
        <time>2016-06-19T09:37:54.588Z</time>
      </trkpt>
      <trkpt lat="46.85292" lon="6.24153">
        <ele>901.96689315343</ele>
        <time>2016-06-19T09:38:00.588Z</time>
      </trkpt>
      <trkpt lat="46.85291" lon="6.24156">
        <ele>900</ele>
        <time>2016-06-19T09:38:02.588Z</time>
      </trkpt>
      <trkpt lat="46.85288" lon="6.24168">
        <ele>899.5419904</ele>
        <time>2016-06-19T09:38:10.588Z</time>
      </trkpt>
      <trkpt lat="46.85281" lon="6.24179">
        <ele>899</ele>
        <time>2016-06-19T09:38:16.588Z</time>
      </trkpt>
      <trkpt lat="46.8528" lon="6.24193">
        <ele>898</ele>
        <time>2016-06-19T09:38:25.588Z</time>
      </trkpt>
      <trkpt lat="46.85289" lon="6.24199">
        <ele>894.6259712</ele>
        <time>2016-06-19T09:38:40.588Z</time>
      </trkpt>
      <trkpt lat="46.85298" lon="6.242">
        <ele>892</ele>
        <time>2016-06-19T09:38:46.588Z</time>
      </trkpt>
      <trkpt lat="46.85306" lon="6.24195">
        <ele>892</ele>
        <time>2016-06-19T09:38:54.588Z</time>
      </trkpt>
      <trkpt lat="46.85315" lon="6.24199">
        <ele>890</ele>
        <time>2016-06-19T09:39:03.588Z</time>
      </trkpt>
      <trkpt lat="46.85324" lon="6.24199">
        <ele>890</ele>
        <time>2016-06-19T09:39:15.588Z</time>
      </trkpt>
      <trkpt lat="46.85327" lon="6.24202">
        <ele>890</ele>
        <time>2016-06-19T09:39:17.588Z</time>
      </trkpt>
      <trkpt lat="46.85329" lon="6.24205">
        <ele>890</ele>
        <time>2016-06-19T09:39:19.588Z</time>
      </trkpt>
      <trkpt lat="46.85331" lon="6.24206">
        <ele>890</ele>
        <time>2016-06-19T09:39:21.588Z</time>
      </trkpt>
      <trkpt lat="46.85332" lon="6.24208">
        <ele>890</ele>
        <time>2016-06-19T09:39:23.588Z</time>
      </trkpt>
      <trkpt lat="46.85335" lon="6.2421">
        <ele>890</ele>
        <time>2016-06-19T09:39:25.588Z</time>
      </trkpt>
      <trkpt lat="46.85336" lon="6.24211">
        <ele>890</ele>
        <time>2016-06-19T09:39:26.588Z</time>
      </trkpt>
      <trkpt lat="46.85339" lon="6.24214">
        <ele>890</ele>
        <time>2016-06-19T09:39:28.588Z</time>
      </trkpt>
      <trkpt lat="46.85341" lon="6.24217">
        <ele>889.0839808</ele>
        <time>2016-06-19T09:39:30.588Z</time>
      </trkpt>
      <trkpt lat="46.85343" lon="6.24221">
        <ele>888</ele>
        <time>2016-06-19T09:39:32.588Z</time>
      </trkpt>
      <trkpt lat="46.85344" lon="6.24224">
        <ele>888</ele>
        <time>2016-06-19T09:39:34.588Z</time>
      </trkpt>
      <trkpt lat="46.85346" lon="6.24227">
        <ele>888</ele>
        <time>2016-06-19T09:39:36.588Z</time>
      </trkpt>
      <trkpt lat="46.85348" lon="6.24229">
        <ele>888</ele>
        <time>2016-06-19T09:39:37.588Z</time>
      </trkpt>
      <trkpt lat="46.8535" lon="6.2423">
        <ele>888</ele>
        <time>2016-06-19T09:39:38.588Z</time>
      </trkpt>
      <trkpt lat="46.85352" lon="6.24233">
        <ele>887.5419904</ele>
        <time>2016-06-19T09:39:40.588Z</time>
      </trkpt>
      <trkpt lat="46.85352" lon="6.24237">
        <ele>887</ele>
        <time>2016-06-19T09:39:42.588Z</time>
      </trkpt>
      <trkpt lat="46.85353" lon="6.24241">
        <ele>887</ele>
        <time>2016-06-19T09:39:44.588Z</time>
      </trkpt>
      <trkpt lat="46.85354" lon="6.24243">
        <ele>887</ele>
        <time>2016-06-19T09:39:46.588Z</time>
      </trkpt>
      <trkpt lat="46.85355" lon="6.24246">
        <ele>887</ele>
        <time>2016-06-19T09:39:48.588Z</time>
      </trkpt>
      <trkpt lat="46.85356" lon="6.24248">
        <ele>886.0839808</ele>
        <time>2016-06-19T09:39:50.588Z</time>
      </trkpt>
      <trkpt lat="46.85358" lon="6.24251">
        <ele>885</ele>
        <time>2016-06-19T09:39:52.588Z</time>
      </trkpt>
      <trkpt lat="46.85359" lon="6.24254">
        <ele>885</ele>
        <time>2016-06-19T09:39:54.588Z</time>
      </trkpt>
      <trkpt lat="46.85362" lon="6.24257">
        <ele>885</ele>
        <time>2016-06-19T09:39:56.588Z</time>
      </trkpt>
      <trkpt lat="46.85364" lon="6.24258">
        <ele>885</ele>
        <time>2016-06-19T09:39:58.588Z</time>
      </trkpt>
      <trkpt lat="46.85365" lon="6.24261">
        <ele>884.30604606061</ele>
        <time>2016-06-19T09:40:00.588Z</time>
      </trkpt>
      <trkpt lat="46.85367" lon="6.24263">
        <ele>883</ele>
        <time>2016-06-19T09:40:02.588Z</time>
      </trkpt>
      <trkpt lat="46.85369" lon="6.24267">
        <ele>883</ele>
        <time>2016-06-19T09:40:04.588Z</time>
      </trkpt>
      <trkpt lat="46.85371" lon="6.24268">
        <ele>883</ele>
        <time>2016-06-19T09:40:06.588Z</time>
      </trkpt>
      <trkpt lat="46.85373" lon="6.2427">
        <ele>883</ele>
        <time>2016-06-19T09:40:08.588Z</time>
      </trkpt>
      <trkpt lat="46.85375" lon="6.24271">
        <ele>882.65820342351</ele>
        <time>2016-06-19T09:40:10.588Z</time>
      </trkpt>
      <trkpt lat="46.85378" lon="6.24272">
        <ele>882</ele>
        <time>2016-06-19T09:40:12.588Z</time>
      </trkpt>
      <trkpt lat="46.85381" lon="6.24273">
        <ele>882</ele>
        <time>2016-06-19T09:40:14.588Z</time>
      </trkpt>
      <trkpt lat="46.85384" lon="6.24274">
        <ele>882</ele>
        <time>2016-06-19T09:40:16.588Z</time>
      </trkpt>
      <trkpt lat="46.85386" lon="6.24276">
        <ele>882</ele>
        <time>2016-06-19T09:40:19.588Z</time>
      </trkpt>
      <trkpt lat="46.85388" lon="6.24278">
        <ele>881</ele>
        <time>2016-06-19T09:40:21.588Z</time>
      </trkpt>
      <trkpt lat="46.85391" lon="6.24279">
        <ele>881</ele>
        <time>2016-06-19T09:40:23.588Z</time>
      </trkpt>
      <trkpt lat="46.85393" lon="6.2428">
        <ele>881</ele>
        <time>2016-06-19T09:40:24.588Z</time>
      </trkpt>
      <trkpt lat="46.85394" lon="6.24282">
        <ele>881</ele>
        <time>2016-06-19T09:40:25.588Z</time>
      </trkpt>
      <trkpt lat="46.85397" lon="6.24284">
        <ele>881</ele>
        <time>2016-06-19T09:40:27.588Z</time>
      </trkpt>
      <trkpt lat="46.854" lon="6.24287">
        <ele>881</ele>
        <time>2016-06-19T09:40:29.588Z</time>
      </trkpt>
      <trkpt lat="46.85402" lon="6.24289">
        <ele>879</ele>
        <time>2016-06-19T09:40:31.588Z</time>
      </trkpt>
      <trkpt lat="46.85405" lon="6.24291">
        <ele>879</ele>
        <time>2016-06-19T09:40:33.588Z</time>
      </trkpt>
      <trkpt lat="46.85407" lon="6.24295">
        <ele>879</ele>
        <time>2016-06-19T09:40:35.588Z</time>
      </trkpt>
      <trkpt lat="46.85409" lon="6.24299">
        <ele>879</ele>
        <time>2016-06-19T09:40:37.588Z</time>
      </trkpt>
      <trkpt lat="46.85411" lon="6.24303">
        <ele>879</ele>
        <time>2016-06-19T09:40:39.588Z</time>
      </trkpt>
      <trkpt lat="46.85412" lon="6.24305">
        <ele>878.5419904</ele>
        <time>2016-06-19T09:40:40.588Z</time>
      </trkpt>
      <trkpt lat="46.85414" lon="6.24308">
        <ele>878</ele>
        <time>2016-06-19T09:40:42.588Z</time>
      </trkpt>
      <trkpt lat="46.85414" lon="6.24321">
        <ele>878</ele>
        <time>2016-06-19T09:40:49.588Z</time>
      </trkpt>
      <trkpt lat="46.85414" lon="6.2433">
        <ele>878</ele>
        <time>2016-06-19T09:40:55.588Z</time>
      </trkpt>
      <trkpt lat="46.85405" lon="6.24337">
        <ele>878</ele>
        <time>2016-06-19T09:41:03.588Z</time>
      </trkpt>
      <trkpt lat="46.85395" lon="6.24338">
        <ele>878</ele>
        <time>2016-06-19T09:41:09.588Z</time>
      </trkpt>
      <trkpt lat="46.85387" lon="6.24342">
        <ele>878</ele>
        <time>2016-06-19T09:41:12.588Z</time>
      </trkpt>
      <trkpt lat="46.85376" lon="6.24344">
        <ele>878</ele>
        <time>2016-06-19T09:41:16.588Z</time>
      </trkpt>
      <trkpt lat="46.85366" lon="6.24345">
        <ele>878</ele>
        <time>2016-06-19T09:41:21.588Z</time>
      </trkpt>
      <trkpt lat="46.85357" lon="6.24351">
        <ele>878</ele>
        <time>2016-06-19T09:41:26.588Z</time>
      </trkpt>
      <trkpt lat="46.85349" lon="6.2436">
        <ele>877</ele>
        <time>2016-06-19T09:41:33.588Z</time>
      </trkpt>
      <trkpt lat="46.85347" lon="6.24374">
        <ele>877.4580096</ele>
        <time>2016-06-19T09:41:40.588Z</time>
      </trkpt>
      <trkpt lat="46.85354" lon="6.24385">
        <ele>878</ele>
        <time>2016-06-19T09:41:45.588Z</time>
      </trkpt>
      <trkpt lat="46.85361" lon="6.24394">
        <ele>878</ele>
        <time>2016-06-19T09:41:49.588Z</time>
      </trkpt>
      <trkpt lat="46.85368" lon="6.24404">
        <ele>876</ele>
        <time>2016-06-19T09:41:54.588Z</time>
      </trkpt>
      <trkpt lat="46.85372" lon="6.24417">
        <ele>875.0839808</ele>
        <time>2016-06-19T09:42:00.588Z</time>
      </trkpt>
      <trkpt lat="46.85378" lon="6.24426">
        <ele>874</ele>
        <time>2016-06-19T09:42:05.588Z</time>
      </trkpt>
      <trkpt lat="46.85386" lon="6.24434">
        <ele>874</ele>
        <time>2016-06-19T09:42:10.588Z</time>
      </trkpt>
      <trkpt lat="46.8539" lon="6.24447">
        <ele>874</ele>
        <time>2016-06-19T09:42:16.588Z</time>
      </trkpt>
      <trkpt lat="46.85393" lon="6.24461">
        <ele>873</ele>
        <time>2016-06-19T09:42:21.588Z</time>
      </trkpt>
      <trkpt lat="46.85394" lon="6.24476">
        <ele>873</ele>
        <time>2016-06-19T09:42:27.588Z</time>
      </trkpt>
      <trkpt lat="46.85398" lon="6.2449">
        <ele>872</ele>
        <time>2016-06-19T09:42:33.588Z</time>
      </trkpt>
      <trkpt lat="46.85406" lon="6.24499">
        <ele>872</ele>
        <time>2016-06-19T09:42:37.588Z</time>
      </trkpt>
      <trkpt lat="46.85416" lon="6.24504">
        <ele>871</ele>
        <time>2016-06-19T09:42:42.588Z</time>
      </trkpt>
      <trkpt lat="46.85424" lon="6.24514">
        <ele>871</ele>
        <time>2016-06-19T09:42:48.588Z</time>
      </trkpt>
      <trkpt lat="46.85431" lon="6.24526">
        <ele>869</ele>
        <time>2016-06-19T09:42:55.588Z</time>
      </trkpt>
      <trkpt lat="46.85435" lon="6.24538">
        <ele>869</ele>
        <time>2016-06-19T09:43:01.588Z</time>
      </trkpt>
      <trkpt lat="46.8544" lon="6.24549">
        <ele>869</ele>
        <time>2016-06-19T09:43:08.588Z</time>
      </trkpt>
      <trkpt lat="46.85448" lon="6.24559">
        <ele>869</ele>
        <time>2016-06-19T09:43:14.588Z</time>
      </trkpt>
      <trkpt lat="46.85456" lon="6.24567">
        <ele>869.44124516699</ele>
        <time>2016-06-19T09:43:20.588Z</time>
      </trkpt>
      <trkpt lat="46.85462" lon="6.24577">
        <ele>870</ele>
        <time>2016-06-19T09:43:28.588Z</time>
      </trkpt>
      <trkpt lat="46.85468" lon="6.24589">
        <ele>870</ele>
        <time>2016-06-19T09:43:38.588Z</time>
      </trkpt>
      <trkpt lat="46.85473" lon="6.24594">
        <ele>869</ele>
        <time>2016-06-19T09:43:43.588Z</time>
      </trkpt>
      <trkpt lat="46.85475" lon="6.24595">
        <ele>869</ele>
        <time>2016-06-19T09:43:45.588Z</time>
      </trkpt>
      <trkpt lat="46.85477" lon="6.24596">
        <ele>869</ele>
        <time>2016-06-19T09:43:47.588Z</time>
      </trkpt>
      <trkpt lat="46.8548" lon="6.24596">
        <ele>869</ele>
        <time>2016-06-19T09:43:49.588Z</time>
      </trkpt>
      <trkpt lat="46.85482" lon="6.24597">
        <ele>869</ele>
        <time>2016-06-19T09:43:51.588Z</time>
      </trkpt>
      <trkpt lat="46.85484" lon="6.24599">
        <ele>869</ele>
        <time>2016-06-19T09:43:53.588Z</time>
      </trkpt>
      <trkpt lat="46.85486" lon="6.246">
        <ele>869</ele>
        <time>2016-06-19T09:43:55.588Z</time>
      </trkpt>
      <trkpt lat="46.85489" lon="6.24602">
        <ele>869</ele>
        <time>2016-06-19T09:43:57.588Z</time>
      </trkpt>
      <trkpt lat="46.85491" lon="6.24605">
        <ele>869</ele>
        <time>2016-06-19T09:43:59.588Z</time>
      </trkpt>
      <trkpt lat="46.85493" lon="6.24608">
        <ele>869</ele>
        <time>2016-06-19T09:44:01.588Z</time>
      </trkpt>
      <trkpt lat="46.85495" lon="6.24612">
        <ele>869</ele>
        <time>2016-06-19T09:44:03.588Z</time>
      </trkpt>
      <trkpt lat="46.85497" lon="6.24615">
        <ele>869</ele>
        <time>2016-06-19T09:44:05.588Z</time>
      </trkpt>
      <trkpt lat="46.85499" lon="6.24618">
        <ele>869</ele>
        <time>2016-06-19T09:44:07.588Z</time>
      </trkpt>
      <trkpt lat="46.85503" lon="6.24624">
        <ele>869</ele>
        <time>2016-06-19T09:44:10.588Z</time>
      </trkpt>
      <trkpt lat="46.85504" lon="6.24628">
        <ele>869</ele>
        <time>2016-06-19T09:44:12.588Z</time>
      </trkpt>
      <trkpt lat="46.85505" lon="6.2463">
        <ele>869</ele>
        <time>2016-06-19T09:44:13.588Z</time>
      </trkpt>
      <trkpt lat="46.8551" lon="6.24643">
        <ele>869</ele>
        <time>2016-06-19T09:44:19.588Z</time>
      </trkpt>
      <trkpt lat="46.85512" lon="6.24656">
        <ele>866.5420032</ele>
        <time>2016-06-19T09:44:25.588Z</time>
      </trkpt>
      <trkpt lat="46.85516" lon="6.2467">
        <ele>865</ele>
        <time>2016-06-19T09:44:31.588Z</time>
      </trkpt>
      <trkpt lat="46.8552" lon="6.24682">
        <ele>865</ele>
        <time>2016-06-19T09:44:37.588Z</time>
      </trkpt>
      <trkpt lat="46.85524" lon="6.24695">
        <ele>862</ele>
        <time>2016-06-19T09:44:43.588Z</time>
      </trkpt>
      <trkpt lat="46.85526" lon="6.2471">
        <ele>861</ele>
        <time>2016-06-19T09:44:49.588Z</time>
      </trkpt>
      <trkpt lat="46.8553" lon="6.24723">
        <ele>861</ele>
        <time>2016-06-19T09:44:55.588Z</time>
      </trkpt>
      <trkpt lat="46.85537" lon="6.24734">
        <ele>860</ele>
        <time>2016-06-19T09:45:02.588Z</time>
      </trkpt>
      <trkpt lat="46.8554" lon="6.24747">
        <ele>860</ele>
        <time>2016-06-19T09:45:09.588Z</time>
      </trkpt>
      <trkpt lat="46.85546" lon="6.24759">
        <ele>860</ele>
        <time>2016-06-19T09:45:16.588Z</time>
      </trkpt>
      <trkpt lat="46.8555" lon="6.24769">
        <ele>860</ele>
        <time>2016-06-19T09:45:21.588Z</time>
      </trkpt>
      <trkpt lat="46.85551" lon="6.24781">
        <ele>860</ele>
        <time>2016-06-19T09:45:27.588Z</time>
      </trkpt>
      <trkpt lat="46.85551" lon="6.24785">
        <ele>860</ele>
        <time>2016-06-19T09:45:29.588Z</time>
      </trkpt>
      <trkpt lat="46.8555" lon="6.24798">
        <ele>861</ele>
        <time>2016-06-19T09:45:35.588Z</time>
      </trkpt>
      <trkpt lat="46.85549" lon="6.24812">
        <ele>861</ele>
        <time>2016-06-19T09:45:41.588Z</time>
      </trkpt>
      <trkpt lat="46.85548" lon="6.24817">
        <ele>861</ele>
        <time>2016-06-19T09:45:43.588Z</time>
      </trkpt>
      <trkpt lat="46.85549" lon="6.24821">
        <ele>861</ele>
        <time>2016-06-19T09:45:45.588Z</time>
      </trkpt>
      <trkpt lat="46.85549" lon="6.24825">
        <ele>861</ele>
        <time>2016-06-19T09:45:47.588Z</time>
      </trkpt>
      <trkpt lat="46.85549" lon="6.24828">
        <ele>861</ele>
        <time>2016-06-19T09:45:49.588Z</time>
      </trkpt>
      <trkpt lat="46.8555" lon="6.24832">
        <ele>861</ele>
        <time>2016-06-19T09:45:51.588Z</time>
      </trkpt>
      <trkpt lat="46.85551" lon="6.24842">
        <ele>861</ele>
        <time>2016-06-19T09:45:56.588Z</time>
      </trkpt>
      <trkpt lat="46.85552" lon="6.24846">
        <ele>861</ele>
        <time>2016-06-19T09:45:58.588Z</time>
      </trkpt>
      <trkpt lat="46.85553" lon="6.2485">
        <ele>860.66073443382</ele>
        <time>2016-06-19T09:46:00.588Z</time>
      </trkpt>
      <trkpt lat="46.85554" lon="6.24854">
        <ele>860</ele>
        <time>2016-06-19T09:46:02.588Z</time>
      </trkpt>
      <trkpt lat="46.85555" lon="6.24856">
        <ele>860</ele>
        <time>2016-06-19T09:46:03.588Z</time>
      </trkpt>
      <trkpt lat="46.85556" lon="6.24858">
        <ele>860</ele>
        <time>2016-06-19T09:46:04.588Z</time>
      </trkpt>
      <trkpt lat="46.85558" lon="6.24862">
        <ele>860</ele>
        <time>2016-06-19T09:46:06.588Z</time>
      </trkpt>
      <trkpt lat="46.8556" lon="6.24866">
        <ele>860</ele>
        <time>2016-06-19T09:46:08.588Z</time>
      </trkpt>
      <trkpt lat="46.85562" lon="6.24869">
        <ele>860</ele>
        <time>2016-06-19T09:46:10.588Z</time>
      </trkpt>
      <trkpt lat="46.85564" lon="6.24873">
        <ele>860</ele>
        <time>2016-06-19T09:46:12.588Z</time>
      </trkpt>
      <trkpt lat="46.85566" lon="6.24877">
        <ele>860</ele>
        <time>2016-06-19T09:46:14.588Z</time>
      </trkpt>
      <trkpt lat="46.85568" lon="6.24881">
        <ele>860</ele>
        <time>2016-06-19T09:46:16.588Z</time>
      </trkpt>
      <trkpt lat="46.8557" lon="6.24885">
        <ele>860</ele>
        <time>2016-06-19T09:46:18.588Z</time>
      </trkpt>
      <trkpt lat="46.85571" lon="6.24888">
        <ele>860</ele>
        <time>2016-06-19T09:46:20.588Z</time>
      </trkpt>
      <trkpt lat="46.85573" lon="6.24891">
        <ele>860</ele>
        <time>2016-06-19T09:46:22.588Z</time>
      </trkpt>
      <trkpt lat="46.85575" lon="6.24894">
        <ele>860</ele>
        <time>2016-06-19T09:46:24.588Z</time>
      </trkpt>
      <trkpt lat="46.85577" lon="6.24898">
        <ele>860</ele>
        <time>2016-06-19T09:46:26.588Z</time>
      </trkpt>
      <trkpt lat="46.85579" lon="6.24901">
        <ele>860</ele>
        <time>2016-06-19T09:46:28.588Z</time>
      </trkpt>
      <trkpt lat="46.85581" lon="6.24905">
        <ele>860</ele>
        <time>2016-06-19T09:46:30.588Z</time>
      </trkpt>
      <trkpt lat="46.85583" lon="6.24908">
        <ele>860</ele>
        <time>2016-06-19T09:46:32.588Z</time>
      </trkpt>
      <trkpt lat="46.85585" lon="6.24912">
        <ele>860</ele>
        <time>2016-06-19T09:46:34.588Z</time>
      </trkpt>
      <trkpt lat="46.85586" lon="6.24915">
        <ele>860</ele>
        <time>2016-06-19T09:46:36.588Z</time>
      </trkpt>
      <trkpt lat="46.85588" lon="6.24919">
        <ele>860</ele>
        <time>2016-06-19T09:46:38.588Z</time>
      </trkpt>
      <trkpt lat="46.85589" lon="6.24922">
        <ele>859.79704470588</ele>
        <time>2016-06-19T09:46:40.588Z</time>
      </trkpt>
      <trkpt lat="46.8559" lon="6.24926">
        <ele>859</ele>
        <time>2016-06-19T09:46:42.588Z</time>
      </trkpt>
      <trkpt lat="46.85591" lon="6.24929">
        <ele>859</ele>
        <time>2016-06-19T09:46:44.588Z</time>
      </trkpt>
      <trkpt lat="46.85592" lon="6.24932">
        <ele>859</ele>
        <time>2016-06-19T09:46:46.588Z</time>
      </trkpt>
      <trkpt lat="46.85594" lon="6.24935">
        <ele>859</ele>
        <time>2016-06-19T09:46:48.588Z</time>
      </trkpt>
      <trkpt lat="46.85596" lon="6.24939">
        <ele>858.0839808</ele>
        <time>2016-06-19T09:46:50.588Z</time>
      </trkpt>
      <trkpt lat="46.85597" lon="6.24943">
        <ele>857</ele>
        <time>2016-06-19T09:46:52.588Z</time>
      </trkpt>
      <trkpt lat="46.85599" lon="6.24947">
        <ele>857</ele>
        <time>2016-06-19T09:46:54.588Z</time>
      </trkpt>
      <trkpt lat="46.856" lon="6.2495">
        <ele>857</ele>
        <time>2016-06-19T09:46:56.588Z</time>
      </trkpt>
      <trkpt lat="46.85601" lon="6.24954">
        <ele>857</ele>
        <time>2016-06-19T09:46:58.588Z</time>
      </trkpt>
      <trkpt lat="46.85601" lon="6.24958">
        <ele>857</ele>
        <time>2016-06-19T09:47:00.588Z</time>
      </trkpt>
      <trkpt lat="46.85602" lon="6.24963">
        <ele>856</ele>
        <time>2016-06-19T09:47:02.588Z</time>
      </trkpt>
      <trkpt lat="46.85603" lon="6.24967">
        <ele>856</ele>
        <time>2016-06-19T09:47:04.588Z</time>
      </trkpt>
      <trkpt lat="46.85604" lon="6.24971">
        <ele>856</ele>
        <time>2016-06-19T09:47:06.588Z</time>
      </trkpt>
      <trkpt lat="46.85605" lon="6.24975">
        <ele>856</ele>
        <time>2016-06-19T09:47:08.588Z</time>
      </trkpt>
      <trkpt lat="46.85607" lon="6.24978">
        <ele>856</ele>
        <time>2016-06-19T09:47:10.588Z</time>
      </trkpt>
      <trkpt lat="46.85608" lon="6.24982">
        <ele>856</ele>
        <time>2016-06-19T09:47:12.588Z</time>
      </trkpt>
      <trkpt lat="46.85609" lon="6.24988">
        <ele>856</ele>
        <time>2016-06-19T09:47:15.588Z</time>
      </trkpt>
      <trkpt lat="46.8561" lon="6.24992">
        <ele>856</ele>
        <time>2016-06-19T09:47:17.588Z</time>
      </trkpt>
      <trkpt lat="46.85611" lon="6.24996">
        <ele>856</ele>
        <time>2016-06-19T09:47:19.588Z</time>
      </trkpt>
      <trkpt lat="46.85612" lon="6.24999">
        <ele>856</ele>
        <time>2016-06-19T09:47:21.588Z</time>
      </trkpt>
      <trkpt lat="46.85614" lon="6.25002">
        <ele>856</ele>
        <time>2016-06-19T09:47:23.588Z</time>
      </trkpt>
      <trkpt lat="46.85615" lon="6.25006">
        <ele>856</ele>
        <time>2016-06-19T09:47:25.588Z</time>
      </trkpt>
      <trkpt lat="46.85616" lon="6.2501">
        <ele>856</ele>
        <time>2016-06-19T09:47:27.588Z</time>
      </trkpt>
      <trkpt lat="46.85618" lon="6.25015">
        <ele>856</ele>
        <time>2016-06-19T09:47:29.588Z</time>
      </trkpt>
      <trkpt lat="46.8562" lon="6.25018">
        <ele>856.9159936</ele>
        <time>2016-06-19T09:47:31.588Z</time>
      </trkpt>
      <trkpt lat="46.85623" lon="6.25022">
        <ele>858</ele>
        <time>2016-06-19T09:47:33.588Z</time>
      </trkpt>
      <trkpt lat="46.85625" lon="6.25024">
        <ele>858</ele>
        <time>2016-06-19T09:47:35.588Z</time>
      </trkpt>
      <trkpt lat="46.85628" lon="6.25027">
        <ele>858</ele>
        <time>2016-06-19T09:47:38.588Z</time>
      </trkpt>
      <trkpt lat="46.8563" lon="6.25029">
        <ele>858</ele>
        <time>2016-06-19T09:47:40.588Z</time>
      </trkpt>
      <trkpt lat="46.85632" lon="6.25032">
        <ele>858</ele>
        <time>2016-06-19T09:47:42.588Z</time>
      </trkpt>
      <trkpt lat="46.85633" lon="6.25034">
        <ele>858</ele>
        <time>2016-06-19T09:47:44.588Z</time>
      </trkpt>
      <trkpt lat="46.85636" lon="6.25036">
        <ele>858</ele>
        <time>2016-06-19T09:47:47.588Z</time>
      </trkpt>
      <trkpt lat="46.85638" lon="6.25038">
        <ele>858</ele>
        <time>2016-06-19T09:47:49.588Z</time>
      </trkpt>
      <trkpt lat="46.8564" lon="6.25039">
        <ele>858</ele>
        <time>2016-06-19T09:47:51.588Z</time>
      </trkpt>
      <trkpt lat="46.85642" lon="6.25041">
        <ele>858</ele>
        <time>2016-06-19T09:47:53.588Z</time>
      </trkpt>
      <trkpt lat="46.85645" lon="6.25043">
        <ele>858</ele>
        <time>2016-06-19T09:47:55.588Z</time>
      </trkpt>
      <trkpt lat="46.85647" lon="6.25045">
        <ele>858</ele>
        <time>2016-06-19T09:47:57.588Z</time>
      </trkpt>
      <trkpt lat="46.85649" lon="6.25046">
        <ele>858</ele>
        <time>2016-06-19T09:47:59.588Z</time>
      </trkpt>
      <trkpt lat="46.85652" lon="6.25048">
        <ele>858</ele>
        <time>2016-06-19T09:48:01.588Z</time>
      </trkpt>
      <trkpt lat="46.85654" lon="6.25049">
        <ele>858</ele>
        <time>2016-06-19T09:48:03.588Z</time>
      </trkpt>
      <trkpt lat="46.85656" lon="6.25051">
        <ele>858</ele>
        <time>2016-06-19T09:48:05.588Z</time>
      </trkpt>
      <trkpt lat="46.85658" lon="6.25053">
        <ele>858</ele>
        <time>2016-06-19T09:48:07.588Z</time>
      </trkpt>
      <trkpt lat="46.85661" lon="6.25055">
        <ele>858</ele>
        <time>2016-06-19T09:48:09.588Z</time>
      </trkpt>
      <trkpt lat="46.85664" lon="6.25056">
        <ele>859</ele>
        <time>2016-06-19T09:48:11.588Z</time>
      </trkpt>
      <trkpt lat="46.85666" lon="6.25057">
        <ele>859</ele>
        <time>2016-06-19T09:48:13.588Z</time>
      </trkpt>
      <trkpt lat="46.85668" lon="6.25058">
        <ele>859</ele>
        <time>2016-06-19T09:48:15.588Z</time>
      </trkpt>
      <trkpt lat="46.85671" lon="6.25059">
        <ele>859</ele>
        <time>2016-06-19T09:48:17.588Z</time>
      </trkpt>
      <trkpt lat="46.85673" lon="6.2506">
        <ele>859</ele>
        <time>2016-06-19T09:48:19.588Z</time>
      </trkpt>
      <trkpt lat="46.85675" lon="6.25061">
        <ele>859</ele>
        <time>2016-06-19T09:48:21.588Z</time>
      </trkpt>
      <trkpt lat="46.85677" lon="6.25061">
        <ele>859</ele>
        <time>2016-06-19T09:48:23.588Z</time>
      </trkpt>
      <trkpt lat="46.85679" lon="6.25061">
        <ele>859</ele>
        <time>2016-06-19T09:48:25.588Z</time>
      </trkpt>
      <trkpt lat="46.85684" lon="6.25061">
        <ele>859</ele>
        <time>2016-06-19T09:48:29.588Z</time>
      </trkpt>
      <trkpt lat="46.85687" lon="6.25061">
        <ele>859</ele>
        <time>2016-06-19T09:48:31.588Z</time>
      </trkpt>
      <trkpt lat="46.8569" lon="6.2506">
        <ele>859</ele>
        <time>2016-06-19T09:48:33.588Z</time>
      </trkpt>
      <trkpt lat="46.85692" lon="6.25058">
        <ele>859</ele>
        <time>2016-06-19T09:48:35.588Z</time>
      </trkpt>
      <trkpt lat="46.85695" lon="6.25055">
        <ele>859</ele>
        <time>2016-06-19T09:48:37.588Z</time>
      </trkpt>
      <trkpt lat="46.85701" lon="6.25052">
        <ele>859</ele>
        <time>2016-06-19T09:48:43.588Z</time>
      </trkpt>
      <trkpt lat="46.85704" lon="6.25052">
        <ele>859</ele>
        <time>2016-06-19T09:48:45.588Z</time>
      </trkpt>
      <trkpt lat="46.85707" lon="6.25053">
        <ele>859</ele>
        <time>2016-06-19T09:48:46.588Z</time>
      </trkpt>
      <trkpt lat="46.85709" lon="6.25053">
        <ele>859</ele>
        <time>2016-06-19T09:48:47.588Z</time>
      </trkpt>
      <trkpt lat="46.85713" lon="6.25053">
        <ele>859</ele>
        <time>2016-06-19T09:48:49.588Z</time>
      </trkpt>
      <trkpt lat="46.85717" lon="6.25052">
        <ele>858</ele>
        <time>2016-06-19T09:48:51.588Z</time>
      </trkpt>
      <trkpt lat="46.8572" lon="6.25052">
        <ele>858</ele>
        <time>2016-06-19T09:48:53.588Z</time>
      </trkpt>
      <trkpt lat="46.85722" lon="6.25052">
        <ele>858</ele>
        <time>2016-06-19T09:48:54.588Z</time>
      </trkpt>
      <trkpt lat="46.85725" lon="6.25051">
        <ele>858</ele>
        <time>2016-06-19T09:48:56.588Z</time>
      </trkpt>
      <trkpt lat="46.85728" lon="6.25049">
        <ele>858</ele>
        <time>2016-06-19T09:48:58.588Z</time>
      </trkpt>
      <trkpt lat="46.8573" lon="6.25048">
        <ele>858</ele>
        <time>2016-06-19T09:49:00.588Z</time>
      </trkpt>
      <trkpt lat="46.85733" lon="6.25046">
        <ele>858</ele>
        <time>2016-06-19T09:49:02.588Z</time>
      </trkpt>
      <trkpt lat="46.85736" lon="6.25047">
        <ele>858</ele>
        <time>2016-06-19T09:49:04.588Z</time>
      </trkpt>
      <trkpt lat="46.85738" lon="6.25048">
        <ele>858</ele>
        <time>2016-06-19T09:49:05.588Z</time>
      </trkpt>
      <trkpt lat="46.85742" lon="6.25048">
        <ele>858</ele>
        <time>2016-06-19T09:49:08.588Z</time>
      </trkpt>
      <trkpt lat="46.85751" lon="6.2505">
        <ele>858</ele>
        <time>2016-06-19T09:49:15.588Z</time>
      </trkpt>
      <trkpt lat="46.85761" lon="6.25051">
        <ele>857</ele>
        <time>2016-06-19T09:49:22.588Z</time>
      </trkpt>
      <trkpt lat="46.85771" lon="6.25056">
        <ele>857</ele>
        <time>2016-06-19T09:49:27.588Z</time>
      </trkpt>
      <trkpt lat="46.85775" lon="6.25058">
        <ele>857</ele>
        <time>2016-06-19T09:49:30.588Z</time>
      </trkpt>
      <trkpt lat="46.85785" lon="6.25064">
        <ele>857</ele>
        <time>2016-06-19T09:49:40.588Z</time>
      </trkpt>
      <trkpt lat="46.85795" lon="6.25069">
        <ele>858</ele>
        <time>2016-06-19T09:49:45.588Z</time>
      </trkpt>
      <trkpt lat="46.85803" lon="6.25075">
        <ele>858</ele>
        <time>2016-06-19T09:49:49.588Z</time>
      </trkpt>
      <trkpt lat="46.85812" lon="6.2508">
        <ele>858</ele>
        <time>2016-06-19T09:49:55.588Z</time>
      </trkpt>
      <trkpt lat="46.85821" lon="6.25081">
        <ele>858</ele>
        <time>2016-06-19T09:50:01.588Z</time>
      </trkpt>
      <trkpt lat="46.85832" lon="6.25081">
        <ele>858</ele>
        <time>2016-06-19T09:50:08.588Z</time>
      </trkpt>
      <trkpt lat="46.85841" lon="6.25085">
        <ele>858</ele>
        <time>2016-06-19T09:50:16.588Z</time>
      </trkpt>
      <trkpt lat="46.85851" lon="6.25086">
        <ele>859</ele>
        <time>2016-06-19T09:50:23.588Z</time>
      </trkpt>
      <trkpt lat="46.85861" lon="6.25087">
        <ele>859</ele>
        <time>2016-06-19T09:50:28.588Z</time>
      </trkpt>
      <trkpt lat="46.85871" lon="6.2509">
        <ele>860</ele>
        <time>2016-06-19T09:50:35.588Z</time>
      </trkpt>
      <trkpt lat="46.85881" lon="6.25095">
        <ele>860</ele>
        <time>2016-06-19T09:50:41.588Z</time>
      </trkpt>
      <trkpt lat="46.8589" lon="6.25099">
        <ele>860</ele>
        <time>2016-06-19T09:50:46.588Z</time>
      </trkpt>
      <trkpt lat="46.859" lon="6.25103">
        <ele>859</ele>
        <time>2016-06-19T09:50:53.588Z</time>
      </trkpt>
      <trkpt lat="46.85909" lon="6.25105">
        <ele>859</ele>
        <time>2016-06-19T09:51:02.588Z</time>
      </trkpt>
      <trkpt lat="46.8592" lon="6.25108">
        <ele>859</ele>
        <time>2016-06-19T09:51:10.588Z</time>
      </trkpt>
      <trkpt lat="46.85929" lon="6.25106">
        <ele>859</ele>
        <time>2016-06-19T09:51:17.588Z</time>
      </trkpt>
      <trkpt lat="46.85938" lon="6.251">
        <ele>859</ele>
        <time>2016-06-19T09:51:24.588Z</time>
      </trkpt>
      <trkpt lat="46.85946" lon="6.25087">
        <ele>859</ele>
        <time>2016-06-19T09:51:29.588Z</time>
      </trkpt>
      <trkpt lat="46.85953" lon="6.25076">
        <ele>859</ele>
        <time>2016-06-19T09:51:34.588Z</time>
      </trkpt>
      <trkpt lat="46.85961" lon="6.25068">
        <ele>859</ele>
        <time>2016-06-19T09:51:38.588Z</time>
      </trkpt>
      <trkpt lat="46.85968" lon="6.25061">
        <ele>860</ele>
        <time>2016-06-19T09:51:41.588Z</time>
      </trkpt>
      <trkpt lat="46.8597" lon="6.25059">
        <ele>860</ele>
        <time>2016-06-19T09:51:42.588Z</time>
      </trkpt>
      <trkpt lat="46.85972" lon="6.25057">
        <ele>860</ele>
        <time>2016-06-19T09:51:43.588Z</time>
      </trkpt>
      <trkpt lat="46.8598" lon="6.2505">
        <ele>860</ele>
        <time>2016-06-19T09:51:48.588Z</time>
      </trkpt>
      <trkpt lat="46.85987" lon="6.25041">
        <ele>860</ele>
        <time>2016-06-19T09:51:54.588Z</time>
      </trkpt>
      <trkpt lat="46.85994" lon="6.25033">
        <ele>859.5419904</ele>
        <time>2016-06-19T09:52:00.588Z</time>
      </trkpt>
      <trkpt lat="46.85996" lon="6.25031">
        <ele>859</ele>
        <time>2016-06-19T09:52:02.588Z</time>
      </trkpt>
      <trkpt lat="46.85998" lon="6.2503">
        <ele>859</ele>
        <time>2016-06-19T09:52:04.588Z</time>
      </trkpt>
      <trkpt lat="46.85999" lon="6.25028">
        <ele>859</ele>
        <time>2016-06-19T09:52:06.588Z</time>
      </trkpt>
      <trkpt lat="46.86001" lon="6.25024">
        <ele>859</ele>
        <time>2016-06-19T09:52:09.588Z</time>
      </trkpt>
      <trkpt lat="46.86003" lon="6.25022">
        <ele>859</ele>
        <time>2016-06-19T09:52:11.588Z</time>
      </trkpt>
      <trkpt lat="46.86005" lon="6.2502">
        <ele>859</ele>
        <time>2016-06-19T09:52:15.588Z</time>
      </trkpt>
      <trkpt lat="46.86006" lon="6.25019">
        <ele>859</ele>
        <time>2016-06-19T09:52:17.588Z</time>
      </trkpt>
      <trkpt lat="46.86008" lon="6.25017">
        <ele>859</ele>
        <time>2016-06-19T09:52:19.588Z</time>
      </trkpt>
      <trkpt lat="46.8601" lon="6.25016">
        <ele>858</ele>
        <time>2016-06-19T09:52:25.588Z</time>
      </trkpt>
      <trkpt lat="46.86012" lon="6.25014">
        <ele>858</ele>
        <time>2016-06-19T09:52:27.588Z</time>
      </trkpt>
      <trkpt lat="46.86014" lon="6.25013">
        <ele>858</ele>
        <time>2016-06-19T09:52:29.588Z</time>
      </trkpt>
      <trkpt lat="46.86016" lon="6.25012">
        <ele>858</ele>
        <time>2016-06-19T09:52:31.588Z</time>
      </trkpt>
      <trkpt lat="46.86017" lon="6.2501">
        <ele>858</ele>
        <time>2016-06-19T09:52:33.588Z</time>
      </trkpt>
      <trkpt lat="46.86019" lon="6.25008">
        <ele>858</ele>
        <time>2016-06-19T09:52:35.588Z</time>
      </trkpt>
      <trkpt lat="46.86021" lon="6.25006">
        <ele>858</ele>
        <time>2016-06-19T09:52:38.588Z</time>
      </trkpt>
      <trkpt lat="46.86022" lon="6.25003">
        <ele>858</ele>
        <time>2016-06-19T09:52:40.588Z</time>
      </trkpt>
      <trkpt lat="46.86026" lon="6.25001">
        <ele>858</ele>
        <time>2016-06-19T09:52:42.588Z</time>
      </trkpt>
      <trkpt lat="46.86027" lon="6.24999">
        <ele>858</ele>
        <time>2016-06-19T09:52:43.588Z</time>
      </trkpt>
      <trkpt lat="46.86031" lon="6.24997">
        <ele>858</ele>
        <time>2016-06-19T09:52:46.588Z</time>
      </trkpt>
      <trkpt lat="46.86039" lon="6.24987">
        <ele>858</ele>
        <time>2016-06-19T09:52:54.588Z</time>
      </trkpt>
      <trkpt lat="46.86045" lon="6.24983">
        <ele>858</ele>
        <time>2016-06-19T09:52:58.588Z</time>
      </trkpt>
      <trkpt lat="46.86048" lon="6.2498">
        <ele>858</ele>
        <time>2016-06-19T09:53:00.588Z</time>
      </trkpt>
      <trkpt lat="46.86051" lon="6.24979">
        <ele>858</ele>
        <time>2016-06-19T09:53:02.588Z</time>
      </trkpt>
      <trkpt lat="46.86054" lon="6.24976">
        <ele>858</ele>
        <time>2016-06-19T09:53:04.588Z</time>
      </trkpt>
      <trkpt lat="46.86055" lon="6.24975">
        <ele>858</ele>
        <time>2016-06-19T09:53:05.588Z</time>
      </trkpt>
      <trkpt lat="46.86058" lon="6.24972">
        <ele>858</ele>
        <time>2016-06-19T09:53:07.588Z</time>
      </trkpt>
      <trkpt lat="46.86059" lon="6.2497">
        <ele>858</ele>
        <time>2016-06-19T09:53:08.588Z</time>
      </trkpt>
      <trkpt lat="46.86061" lon="6.24966">
        <ele>858</ele>
        <time>2016-06-19T09:53:10.588Z</time>
      </trkpt>
      <trkpt lat="46.86064" lon="6.24963">
        <ele>858</ele>
        <time>2016-06-19T09:53:12.588Z</time>
      </trkpt>
      <trkpt lat="46.86067" lon="6.2496">
        <ele>858</ele>
        <time>2016-06-19T09:53:14.588Z</time>
      </trkpt>
      <trkpt lat="46.86069" lon="6.24957">
        <ele>858</ele>
        <time>2016-06-19T09:53:16.588Z</time>
      </trkpt>
      <trkpt lat="46.86072" lon="6.24953">
        <ele>858</ele>
        <time>2016-06-19T09:53:19.588Z</time>
      </trkpt>
      <trkpt lat="46.86079" lon="6.24941">
        <ele>856</ele>
        <time>2016-06-19T09:53:26.588Z</time>
      </trkpt>
      <trkpt lat="46.86086" lon="6.24931">
        <ele>855</ele>
        <time>2016-06-19T09:53:32.588Z</time>
      </trkpt>
      <trkpt lat="46.86088" lon="6.24929">
        <ele>855</ele>
        <time>2016-06-19T09:53:34.588Z</time>
      </trkpt>
      <trkpt lat="46.8609" lon="6.24926">
        <ele>855</ele>
        <time>2016-06-19T09:53:36.588Z</time>
      </trkpt>
      <trkpt lat="46.86096" lon="6.24917">
        <ele>857</ele>
        <time>2016-06-19T09:53:45.588Z</time>
      </trkpt>
    </trkseg>
  </trk>
</gpx>